[[[{"header":{"parameterUnit":"kt","parameterCategory":2,"dx":1,"dy":1,"la1":29.285339999999998,"la2":30.599998999999997,"lo1":-89.70041500000002,"lo2":-87.6738589999976,"nx":112,"ny":82,"refTime":"2022-10-29T06:00:00:Z","depth":0,"parameterNumber":1,"parameterNumberName":"U-component_of_WINDS"},"data":[3.0612,3.0307,2.9671,2.8563,2.6697,0.0,2.3577,0.0,1.9026,0.0,0.0,0.0,0.0,0.0,0.0,0.0,0.0,0.0,0.0,0.0,0.0,0.0,0.0,0.0,0.0,0.0,0.0,0.0,0.0,0.0,0.0,0.0,3.3452,3.5892,3.743,3.8246,3.8233,3.8897,3.9454,3.9903,4.0669,4.1033,4.1033,4.1033,4.1033,4.1033,4.1033,4.1033,4.1033,4.1033,4.1033,4.1033,4.1033,4.1033,4.1033,4.1033,4.1033,4.1033,4.1033,4.1033,4.1033,4.1033,4.1033,4.1033,4.1033,4.1033,4.1033,4.1033,4.1033,4.1033,4.1033,4.1033,4.1033,4.1033,4.1033,4.1033,4.1033,4.1033,4.1033,4.1033,4.1033,4.1033,4.1033,4.1033,4.1033,4.1033,4.1033,4.1033,4.1033,4.1033,4.1033,4.1033,4.1033,4.1033,4.1033,4.4374,4.8274,5.2286,5.6425,5.9598,6.1616,6.3752,6.4765,6.4542,6.4765,6.4765,6.4542,6.4765,6.4898,6.4898,6.4898,6.4898,2.8599,2.818,2.7469,2.6485,0.0,0.0,0.0,0.0,0.0,0.0,0.0,0.0,0.0,0.0,0.0,0.0,0.0,0.0,0.0,0.0,0.0,0.0,0.0,0.0,0.0,0.0,0.0,0.0,0.0,0.0,0.0,3.2673,3.4944,3.7595,3.8203,3.8497,3.8475,3.8987,3.9617,4.0262,4.076,4.1033,4.1033,4.1033,4.1033,4.1033,4.1033,4.1033,4.1033,4.1033,4.1033,4.1033,4.1033,4.1033,4.1059,4.1253,4.1331,4.1331,4.1331,4.1201,4.1033,4.1033,4.1033,4.1033,4.1033,4.1033,4.1033,4.1033,4.1033,4.1033,4.1033,4.1033,4.1033,4.1033,4.1033,4.1033,4.1033,4.1033,4.1033,4.1033,4.1033,4.1033,4.1033,4.1033,4.1033,4.1033,4.1033,4.1033,4.1033,4.1033,4.1033,4.1033,4.1033,4.1033,4.1033,4.3188,4.7557,5.4711,5.8465,6.0743,6.1554,6.3734,6.4898,6.4898,6.4898,6.4898,6.4898,6.4898,6.4898,6.4898,6.4898,6.4898,0.0,0.0,0.0,2.5301,0.0,0.0,0.0,0.0,1.5196,0.0,0.0,0.0,0.0,0.0,0.0,0.0,0.0,0.0,0.0,0.0,0.0,0.0,0.0,0.0,0.0,0.0,0.0,0.0,0.0,0.0,3.5818,3.7128,3.8761,4.0805,4.1515,4.0757,3.8501,3.9,3.9571,4.0288,4.0773,4.1033,4.1033,4.1033,4.1033,4.1033,4.1033,4.1033,4.1033,4.1033,4.1033,4.1033,4.1033,4.1059,4.1149,4.1783,4.1991,4.1991,4.1991,4.1601,4.1059,4.1033,4.1033,4.1033,4.1033,4.1033,4.1033,4.1033,4.1033,4.1033,4.1033,4.1033,4.1033,4.1033,4.1033,4.1033,4.1033,4.1033,4.1033,4.1033,4.1033,4.1033,4.1033,4.1033,4.1033,4.1033,4.1033,4.1033,4.1033,4.1033,4.1033,4.1033,4.1033,4.1059,4.1137,4.324,5.0159,6.3425,6.4714,6.4898,6.4898,6.4898,6.4898,6.4898,6.4898,6.4898,6.4898,6.4898,6.4898,6.4898,6.4898,6.4898,2.5435,0.0,0.0,0.0,0.0,0.0,0.0,0.0,0.0,0.0,0.0,0.0,0.0,0.0,0.0,0.0,0.0,1.434,0.0,0.0,0.0,0.0,0.0,0.0,0.0,0.0,0.0,0.0,0.0,3.6162,3.3558,3.7652,3.9452,3.7971,3.852,3.894,3.9026,3.9195,3.9765,4.0799,4.0955,4.1033,4.1033,4.1033,4.1033,4.1033,4.1033,4.1033,4.1033,4.1033,4.1033,4.1033,4.1033,4.1539,4.2292,4.2512,4.2564,4.2564,4.2564,4.2199,4.1653,4.1175,4.1033,4.1033,4.1033,4.1033,4.1033,4.1033,4.1033,4.1033,4.1033,4.1033,4.1033,4.1033,4.1033,4.1033,4.1033,4.1033,4.1033,4.1033,4.1033,4.1033,4.1033,4.1033,4.1033,4.1033,4.1033,4.1033,4.1033,4.1033,4.1033,4.1033,4.1033,4.1708,4.3435,4.415,4.6121,4.9899,5.9438,6.4898,6.4898,6.4898,6.4898,6.4898,6.4898,6.4898,6.4898,6.4898,6.4898,6.4898,6.4898,6.4898,0.0,0.0,0.0,0.0,0.0,0.0,1.6214,0.0,1.5166,0.0,0.0,0.0,0.0,0.0,0.0,0.0,1.6332,0.0,0.0,0.0,0.0,0.0,0.0,0.0,2.8563,3.2414,3.4416,3.4028,3.9652,4.2139,3.9835,4.1751,4.2789,4.2643,4.0784,4.0262,4.1099,4.0144,4.0137,4.1033,4.1033,4.1033,4.1033,4.1033,4.1033,4.1046,4.1292,4.1396,4.1409,4.1656,4.1747,4.1747,4.1747,4.2149,4.276,4.3006,4.3084,4.3084,4.3084,4.2876,4.2564,4.1942,4.1591,4.1344,4.1111,4.1033,4.1033,4.1033,4.1033,4.1033,4.1033,4.1033,4.1033,4.1033,4.1033,4.1033,4.1033,4.1033,4.1033,4.1033,4.1033,4.1033,4.1033,4.1033,4.1033,4.1033,4.1033,4.1033,4.1033,4.1033,4.1033,4.1033,4.189,4.3058,4.4397,4.4501,4.4501,4.4501,5.734,6.4898,6.4898,6.4898,6.4898,6.4898,6.4898,6.4898,6.4898,6.4898,6.4898,6.4898,6.4898,6.4898,0.0,0.0,0.0,0.0,1.9138,0.0,0.0,0.0,1.5738,1.6752,0.0,0.0,0.0,0.0,0.0,0.0,0.0,0.0,1.7818,2.0693,2.3343,2.4194,2.319,2.4529,2.9873,3.779,4.149,3.8787,4.5514,4.9627,4.9298,4.7243,4.733,5.0116,4.5752,4.3621,4.4253,4.2275,4.1417,4.1572,4.1927,4.1954,4.1664,4.1664,4.1704,4.1796,4.201,4.2056,4.2095,4.2603,4.2734,4.2811,4.2941,4.2928,4.2993,4.3487,4.3682,4.3682,4.3682,4.3564,4.3487,4.2993,4.2512,4.1952,4.1383,4.1188,4.1124,4.1059,4.1033,4.1033,4.1033,4.1033,4.1033,4.1033,4.1033,4.1033,4.1033,4.1033,4.1033,4.1033,4.1033,4.1033,4.1033,4.1033,4.1124,4.1383,4.1422,4.1422,4.1422,4.1422,4.1422,4.1422,4.3292,4.4501,4.4501,4.4501,4.5153,4.6768,5.8225,6.4898,6.4898,6.4898,6.4898,6.4898,6.4898,6.4898,6.4898,6.4898,6.4898,6.4898,6.4898,6.4898,0.0,0.0,0.0,0.0,0.0,1.7938,0.0,0.0,0.0,0.0,0.0,0.0,0.0,0.0,0.0,1.8408,0.0,0.0,0.0,2.4852,0.0,2.9939,2.9404,2.976,3.184,3.4066,3.6473,3.9055,4.5812,4.8727,4.6441,4.847,4.8914,4.7171,4.6831,4.6975,4.75,4.7657,4.6844,4.4978,4.7492,4.7719,4.5904,4.5672,4.5943,4.635,4.3758,4.2642,4.2642,4.2695,4.2734,4.2889,4.3812,4.4176,4.4189,4.4293,4.4345,4.4345,4.4345,4.3967,4.3486,4.3448,4.3032,4.2616,4.2499,4.2147,4.1692,4.1162,4.1033,4.1033,4.1033,4.1033,4.1033,4.1033,4.1033,4.1033,4.1033,4.1033,4.1033,4.1033,4.1033,4.1033,4.1033,4.1033,4.1656,4.3565,4.3851,4.3851,4.3851,4.3851,4.3851,4.3851,4.4241,4.4501,4.4501,4.4501,4.926,6.027,6.3487,6.4898,6.4898,6.4898,6.4898,6.4898,6.4898,6.4898,6.4898,6.4898,6.4898,6.4898,6.4898,6.4898,0.0,0.0,0.0,2.0449,0.0,0.0,0.0,1.9453,1.9597,2.318,2.1416,2.0038,2.2656,2.2461,2.1774,2.1453,2.3416,2.4862,2.4443,2.9907,3.3634,3.2852,3.3711,3.4972,3.6703,3.7555,3.9514,4.3065,4.8612,5.1358,5.0329,5.1945,5.2214,5.0699,5.0335,5.0308,5.0549,5.0259,4.9641,4.8806,5.0397,5.0762,5.0048,4.9925,4.912,4.7761,4.6347,4.4799,4.3175,4.3474,4.3656,4.3904,4.6141,4.5989,4.4501,4.4501,4.4501,4.4501,4.4501,4.4319,4.4006,4.4006,4.363,4.3162,4.3162,4.276,4.2317,4.1968,4.189,4.189,4.189,4.189,4.189,4.189,4.189,4.189,4.189,4.189,4.1708,4.1149,4.1955,4.2747,4.2747,4.2747,4.3188,4.4332,4.4501,4.4501,4.4501,4.4501,4.4501,4.4501,4.4501,4.4501,4.4501,5.0795,5.764,6.451,6.4898,6.4898,6.4898,6.4898,6.4898,6.4898,6.4898,6.4898,6.4898,6.4898,6.4898,6.4898,6.4898,6.4898,2.0956,2.0502,2.0198,0.0,0.0,0.0,2.3678,2.3106,2.3175,0.0,2.5356,2.4091,2.627,2.6772,2.6358,2.4765,2.793,3.0587,3.0589,3.5102,3.7601,3.5501,3.7359,3.9554,4.1444,4.2463,4.4288,4.7511,5.1045,5.364,5.4955,5.4993,5.4993,5.4993,5.4111,5.3642,5.3642,5.2982,5.2612,5.2684,5.3434,5.4002,5.4208,5.4208,5.2669,5.0142,4.9302,4.7312,4.4742,4.5286,4.5472,4.5671,4.7795,4.69,4.4501,4.4501,4.4501,4.4501,4.4501,4.4501,4.4501,4.4501,4.4189,4.3746,4.3746,4.3344,4.2902,4.2902,4.2825,4.2734,4.2734,4.2734,4.2734,4.2734,4.2734,4.2799,4.3084,4.2994,4.2657,4.1877,4.3253,4.4501,4.4501,4.4501,4.4501,4.4501,4.4501,4.4501,4.4501,4.4501,4.4501,4.4501,4.4501,4.4501,4.4501,5.707,6.4898,6.4898,6.4898,6.4898,6.4898,6.4898,6.4898,6.4898,6.4898,6.4898,6.4898,6.4898,6.4898,6.4898,6.4898,6.4898,2.016,2.0065,2.0198,2.0994,2.1184,0.0,2.197,2.4228,2.6523,2.7855,2.9142,3.0519,3.2045,3.1339,3.0263,2.9476,3.2581,3.5999,3.8729,3.9673,4.0228,4.0387,4.138,4.2317,4.3057,4.3833,4.5713,4.9207,4.9952,5.1624,5.4832,5.4993,5.4993,5.4993,5.6267,5.7026,5.7026,5.9021,5.8687,5.6041,5.9686,6.0316,5.8429,5.8184,5.824,5.8174,5.2132,4.9239,4.8912,4.8984,4.9013,4.8765,4.6121,4.4834,4.4501,4.4501,4.4501,4.4501,4.4501,4.4501,4.4501,4.4501,4.4462,4.441,4.441,4.3941,4.3487,4.3487,4.3123,4.2734,4.2734,4.2734,4.2734,4.2734,4.2734,4.3084,4.4098,4.379,4.3448,4.4005,4.4332,4.4501,4.4501,4.4501,4.4501,4.4501,4.4501,4.4501,4.4501,4.4501,4.4501,4.4501,4.4501,4.4501,4.4501,5.707,6.4898,6.4898,6.4898,6.4898,6.4898,6.4898,6.4898,6.4898,6.4898,6.4898,6.4898,6.4898,6.4898,6.4898,6.4898,6.4898,2.0027,2.035,2.092,2.1776,0.0,0.0,2.5365,2.7303,2.9336,3.1764,3.3275,3.4443,3.5329,3.5656,3.5533,3.4994,3.9662,4.2787,4.1139,4.4257,4.6279,4.4879,4.6863,4.8455,4.8677,4.9458,5.0526,5.2016,5.2579,5.3471,5.4922,5.4993,5.4993,5.4993,5.7081,5.8237,5.8237,6.0726,6.1618,6.0781,6.2505,6.2968,6.2476,6.2354,6.1433,5.9689,5.6816,5.4457,5.2753,5.4777,5.4393,5.2688,5.3237,5.099,4.748,4.748,4.6187,4.4501,4.4501,4.4501,4.4501,4.4501,4.4501,4.4501,4.4501,4.4345,4.4084,4.4084,4.3981,4.3799,4.3799,4.3799,4.3799,4.3799,4.3799,4.3929,4.441,4.4276,4.413,4.4435,4.4501,4.4501,4.4501,4.4501,4.4501,4.4501,4.4501,4.4501,4.4501,5.1444,5.6435,5.6435,5.6435,5.6435,5.6435,6.1616,6.4898,6.4898,6.4898,6.4898,6.4898,6.4898,6.4898,6.4898,6.4898,6.4898,6.4898,6.4898,6.4898,6.4898,6.4898,6.4898,2.0217,0.0,0.0,0.0,0.0,0.0,2.967,3.1644,3.3366,3.5668,3.7691,3.9168,3.932,4.0436,4.1413,4.1509,4.6017,4.8278,4.481,4.8569,5.0911,4.8932,5.1139,5.2867,5.2867,5.3677,5.4171,0.0,5.4722,5.4993,5.4993,5.4993,5.5088,5.5335,5.7518,5.8828,5.9075,6.1657,6.3215,6.3744,6.3972,6.439,6.4898,6.4898,6.361,6.1225,6.027,5.8998,5.7754,5.925,5.8431,5.6341,5.7863,5.5416,5.102,5.102,4.8831,4.5922,4.5922,4.5273,4.4501,4.4501,4.4501,4.4501,4.4501,4.4501,4.4501,4.4501,4.4501,4.4501,4.4501,4.4501,4.4501,4.4501,4.4501,4.4501,4.4501,4.5472,4.6768,4.8058,4.9275,5.0159,5.0159,4.7019,4.4501,4.4501,4.7729,5.0159,5.0159,5.8809,6.4898,6.4898,6.4898,6.4898,6.4898,6.4898,6.4898,6.4898,6.4898,6.4898,6.4898,6.4898,6.4898,6.4898,6.4898,6.4898,6.4898,6.4898,6.4898,6.4898,6.4898,6.4898,0.0,0.0,0.0,2.7342,2.8596,2.9689,3.3865,3.7339,3.9522,3.8729,4.2496,4.5757,4.4975,4.6143,4.7724,4.9368,5.0531,5.1433,5.2032,5.235,5.2419,5.2369,5.3228,5.3791,5.3791,5.4532,5.4955,5.4955,5.4974,5.4993,5.4993,5.4993,5.5354,5.6098,5.7822,5.9112,6.0005,6.2472,6.3725,6.3763,6.4561,6.4879,6.4898,6.4898,6.4836,6.4591,6.1287,6.1678,6.4387,6.1162,5.9814,5.9375,5.6214,5.4826,5.4633,5.4633,5.243,4.9405,4.9405,4.7282,4.4501,4.4501,4.4501,4.4501,4.4501,4.4501,4.4501,4.4501,4.4501,4.4501,4.4501,4.4501,4.4501,4.4501,4.4501,4.4501,4.4501,4.7992,5.243,5.6866,6.126,6.4326,6.4326,5.3302,4.4501,4.4501,5.5799,6.4326,6.4326,6.4652,6.4898,6.4898,6.4898,6.4898,6.4898,6.4898,6.4898,6.4898,6.4898,6.4898,6.4898,6.4898,6.4898,6.4898,6.4898,6.4898,6.4898,6.4898,6.4898,6.4898,6.4898,6.4898,2.09,2.3191,2.5863,2.817,3.1246,3.3909,3.4814,3.8042,4.0718,4.0433,4.3486,4.6318,4.6603,4.8482,5.0191,5.0779,5.1557,5.2203,5.2419,5.3,5.3411,5.3411,5.4133,5.4646,5.4646,5.4822,5.4993,5.4993,5.4993,5.4993,5.4993,5.5506,5.5923,5.6155,5.7309,5.8847,6.084,6.3327,6.4561,6.4561,6.4826,6.4898,6.4898,6.4898,6.4898,6.4836,6.3752,6.3876,6.4836,6.3672,6.3221,6.3098,6.1945,6.0163,5.8179,5.8179,5.6006,5.2688,5.0369,4.8831,4.7532,4.522,4.4501,4.4501,4.4501,4.4501,4.4501,4.4501,4.4501,4.4501,4.4501,4.4501,4.4501,4.4501,4.6253,4.7861,4.7861,5.089,5.4489,5.7517,5.9365,6.1403,6.4387,6.11,5.8099,5.8099,6.2007,6.4898,6.4898,6.4898,6.4898,6.4898,6.4898,6.4898,6.4898,6.4898,6.4898,6.4898,6.4898,6.4898,6.4898,6.4898,6.4898,6.4898,6.4898,6.4898,6.4898,6.4898,6.4898,6.4898,6.4898,6.4898,2.2796,2.5597,2.8751,3.2347,3.5422,3.7797,3.8801,4.1078,4.3012,4.3012,4.5236,4.7331,4.7818,4.9773,5.153,5.2138,5.262,5.3076,5.3361,5.3873,5.4266,5.4266,5.4671,5.4993,5.4993,5.4993,5.4993,5.4993,5.4993,5.5126,5.5411,5.5923,5.636,5.6664,5.748,5.8902,6.0821,6.3289,6.4674,6.4898,6.4898,6.4898,6.4898,6.4898,6.4898,6.4898,6.4898,6.4898,6.4898,6.4898,6.4898,6.4898,6.4898,6.361,6.1678,6.1678,5.9518,5.6341,5.4008,5.2479,5.1085,4.8896,4.8189,4.8189,4.8189,4.8189,4.8189,4.8189,4.8189,4.8189,4.8189,4.7282,4.6306,4.6306,4.7084,4.8765,5.2479,5.5049,5.742,6.0055,6.0574,6.1465,6.4406,6.4898,6.4898,6.4898,6.4898,6.4898,6.4898,6.4898,6.4898,6.4898,6.4898,6.4898,6.4898,6.4898,6.4898,6.4898,6.4898,6.4898,6.4898,6.4898,6.4898,6.4898,6.4898,6.4898,6.4898,6.4898,6.4898,6.4898,6.4898,6.4898,2.6109,2.8417,3.1246,3.9238,4.0775,4.1384,4.5388,4.6318,4.6318,4.6375,4.7673,4.8794,4.8889,5.0314,5.1986,5.3582,5.3867,5.4152,5.4879,5.4993,5.4993,5.4993,5.4993,5.4993,5.4993,5.4993,5.4993,5.4993,5.5031,5.5392,5.6117,5.6231,5.6702,5.7572,5.8334,5.9207,6.01,6.2491,6.4105,6.4898,6.4898,6.4898,6.4898,6.4898,6.4898,6.4898,6.4898,6.4898,6.4898,6.4898,6.4898,6.4898,6.4898,6.4898,6.4898,6.4898,6.2894,6.0127,5.994,5.78,5.5082,5.489,5.4826,5.4826,5.4826,5.4826,5.4826,5.4826,5.4826,5.4826,5.4826,5.2381,4.9848,5.0044,4.7532,4.7795,5.7703,5.9877,6.0913,6.4264,6.4898,6.4898,6.4898,6.4898,6.4898,6.4898,6.4898,6.4898,6.4898,6.4898,6.4898,6.4898,6.4898,6.4898,6.4898,6.4898,6.4898,6.4898,6.4898,6.4898,6.4898,6.4898,6.4898,6.4898,6.4898,6.4898,6.4898,6.4898,6.4898,6.4898,6.4898,6.4898,2.6709,3.2719,3.783,4.0547,4.2977,4.5127,4.6774,4.7153,4.7343,4.8015,4.849,4.9174,5.0447,5.2062,5.3335,5.3753,5.4342,5.4765,5.4974,5.4993,5.4993,5.4993,5.4993,5.4993,5.4993,5.4993,5.4993,5.4993,5.5563,5.5946,5.6155,5.7385,5.8163,5.8372,5.9245,6.01,6.0935,6.2265,6.3554,6.4898,6.4898,6.4898,6.4898,6.4898,6.4898,6.4898,6.4898,6.4898,6.4898,6.4898,6.4898,6.4898,6.4898,6.4898,6.4898,6.4898,6.4387,6.3283,6.0708,5.9312,5.8179,5.564,5.4826,5.4826,5.4826,5.4826,5.4826,5.4826,5.4826,5.4826,5.4826,5.4184,5.4104,5.6626,5.4665,5.359,5.8746,5.9877,6.0913,6.4264,6.4898,6.4898,6.4898,6.4898,6.4898,6.4898,6.4898,6.4898,6.4898,6.4898,6.4898,6.4898,6.4898,6.4898,6.4898,6.4898,6.4898,6.4898,6.4898,6.4898,6.4898,6.4898,6.4898,6.4898,6.4898,6.4898,6.4898,6.4898,6.4898,6.4898,6.4898,6.4898,2.6557,3.3992,4.0662,4.3278,4.4795,4.609,4.7666,4.7723,4.7704,4.8604,4.9383,5.0295,5.1576,5.2936,5.3943,5.4304,5.4689,5.4993,5.4993,5.4993,5.4993,5.4993,5.5316,5.5525,5.5525,5.5866,5.6147,5.6147,5.6512,5.6929,5.729,5.8182,5.8885,5.9283,5.9777,6.027,6.0726,6.1561,6.2624,6.3896,6.4617,6.4898,6.4898,6.4898,6.4898,6.4898,6.4898,6.4898,6.4898,6.4898,6.4898,6.4898,6.4898,6.4898,6.4898,6.4898,6.4898,6.4633,6.277,6.2069,6.1741,5.9849,5.9284,5.9284,5.9284,5.9284,5.9284,5.9284,5.9284,5.9284,5.9284,5.8196,5.7547,5.9438,5.7294,5.615,6.1055,6.2069,6.2646,6.4591,6.4898,6.4898,6.4898,6.4898,6.4898,6.4898,6.4898,6.4898,6.4898,6.4898,6.4898,6.4898,6.4898,6.4898,6.4898,6.4898,6.4898,6.4898,6.4898,6.4898,6.4898,6.4898,6.4898,6.4898,6.4898,6.4898,6.4898,6.4898,6.4898,6.4898,6.4898,6.4898,2.7151,3.4188,4.1365,4.6242,4.6331,4.5895,4.8395,4.8235,4.7875,4.8775,5.0219,5.1538,5.2355,5.3209,5.4095,5.486,5.5088,5.5164,5.5164,5.5259,5.5316,5.5316,5.5961,5.6326,5.6326,5.7097,5.7534,5.7534,5.7629,5.8009,5.8657,5.8809,5.9245,6.0024,6.0043,6.0043,6.0043,6.0859,6.1637,6.2436,6.4029,6.4864,6.4898,6.4898,6.4898,6.4898,6.4898,6.4898,6.4898,6.4898,6.4898,6.4898,6.4898,6.4898,6.4898,6.4898,6.4898,6.4898,6.4898,6.4898,6.4898,6.4898,6.4898,6.4898,6.4898,6.4898,6.4898,6.4898,6.4898,6.4898,6.4898,6.277,6.052,6.052,5.8305,5.7754,6.3691,6.4898,6.4898,6.4898,6.4898,6.4898,6.4898,6.4898,6.4898,6.4898,6.4898,6.4898,6.4898,6.4898,6.4898,6.4898,6.4898,6.4898,6.4898,6.4898,6.4898,6.4898,6.4898,6.4898,6.4898,6.4898,6.4898,6.4898,6.4898,6.4898,6.4898,6.4898,6.4898,6.4898,6.4898,6.4898,3.2897,3.7266,4.2045,4.635,4.7204,4.7469,4.9328,4.9128,4.8813,4.9574,5.0589,5.1538,5.2355,5.3209,5.4095,5.486,5.5563,5.5999,5.5999,5.6607,5.7116,5.7116,5.723,5.7306,5.7306,5.7458,5.7534,5.7534,5.8161,5.8562,5.8695,5.9416,5.9891,6.0043,6.0043,6.0043,6.0043,6.0859,6.1333,6.1504,6.3175,6.4314,6.4898,6.4898,6.4898,6.4898,6.4898,6.4898,6.4898,6.4898,6.4898,6.4898,6.4898,6.4898,6.4898,6.4898,6.4898,6.4898,6.4898,6.4898,6.4898,6.4898,6.4898,6.4898,6.4898,6.4898,6.4898,6.4898,6.4898,6.4898,6.4898,6.451,6.4061,6.4061,6.361,6.3487,6.4652,6.4898,6.4898,6.4898,6.4898,6.4898,6.4898,6.4898,6.4898,6.4898,6.4898,6.4898,6.4898,6.4898,6.4898,6.4898,6.4898,6.4898,6.4898,6.4898,6.4898,6.4898,6.4898,6.4898,6.4898,6.4898,6.4898,6.4898,6.4898,6.4898,6.4898,6.4898,6.4898,6.4898,6.4898,6.4898,3.4326,3.7667,4.0907,4.508,4.6767,4.7867,4.9593,4.9355,4.8281,4.6489,4.9583,5.2214,5.0798,5.3019,5.5183,5.5563,5.6322,5.6873,5.6873,5.7287,5.7534,5.7534,5.7914,5.8161,5.8161,5.8598,5.8883,5.8883,5.9188,5.9397,5.9397,5.9815,6.0043,6.0043,6.0043,6.0043,6.0043,6.0441,6.084,6.1277,6.2074,6.3118,6.4314,6.3896,6.3934,6.4352,6.4788,6.4898,6.4898,6.4898,6.4898,6.4898,6.4898,6.4898,6.4898,6.4898,6.4898,6.4898,6.4898,6.4898,6.4898,6.4898,6.4898,6.4898,6.4898,6.4898,6.4898,6.4898,6.4898,6.4898,6.4898,6.4898,6.4898,6.4898,6.4898,6.4898,6.4898,6.4898,6.4898,6.4898,6.4898,6.4898,6.4898,6.4898,6.4898,6.4898,6.4898,6.4898,6.4898,6.4898,6.4898,6.4898,6.4898,6.4898,6.4898,6.4898,6.4898,6.4898,6.4898,6.4898,6.4898,6.4561,6.4143,6.3706,6.3687,6.3687,6.3687,6.3687,6.3687,6.3687,6.3687,6.3687,3.3479,3.6982,4.0016,4.3275,4.58,4.7735,4.891,4.8691,4.7312,4.4063,4.8661,5.2594,5.0295,5.2886,5.5548,5.6079,5.6929,5.7591,5.7762,5.7971,5.8085,5.8085,5.86,5.898,5.898,5.9625,6.0043,6.0043,6.0043,6.0043,6.0043,6.0043,6.0043,6.0043,6.0043,6.0043,6.0043,6.0043,6.0365,6.0953,6.1182,6.196,6.3194,6.2548,6.2778,6.3535,6.4352,6.4746,6.4898,6.4898,6.4898,6.4898,6.4898,6.4898,6.4898,6.4898,6.4898,6.4898,6.4898,6.4898,6.4898,6.4898,6.4898,6.4898,6.4898,6.4898,6.4898,6.4898,6.4898,6.4898,6.4898,6.4898,6.4898,6.4898,6.4898,6.4898,6.4898,6.4898,6.4898,6.4898,6.4898,6.4898,6.4898,6.4898,6.4898,6.4898,6.4898,6.4898,6.4898,6.4898,6.4898,6.4898,6.4898,6.4898,6.4898,6.4898,6.4898,6.4898,6.4898,6.4822,6.4651,6.3915,6.3234,6.2607,6.2588,6.2588,6.2588,6.2588,6.2588,6.2588,6.2588,6.2683,3.0761,3.5635,4.1058,4.1437,4.4511,4.7305,4.6717,4.6527,4.6375,4.6039,4.89,5.1948,5.3145,5.3057,5.3538,5.5795,5.6929,5.78,5.8486,5.9302,5.9815,5.9815,5.9872,5.9929,5.9929,6.0005,6.0043,6.0043,6.0043,6.0043,6.0043,6.0043,6.0043,6.0043,6.0043,6.0043,6.0043,6.0043,6.0081,6.0176,6.0916,6.1294,6.1485,6.1409,6.1846,6.274,6.3498,6.4276,6.4898,6.4898,6.4898,6.4898,6.4898,6.4898,6.4898,6.4898,6.4898,6.4898,6.4898,6.4898,6.4898,6.4898,6.4898,6.4898,6.4898,6.4898,6.4898,6.4898,6.4898,6.4898,6.4898,6.4898,6.4898,6.4898,6.4898,6.4898,6.4898,6.4898,6.4898,6.4898,6.4898,6.4898,6.4898,6.4898,6.4898,6.4898,6.4898,6.4898,6.4898,6.4898,6.4898,6.4898,6.4898,6.4898,6.4898,6.4898,6.4898,6.4898,6.4898,6.4636,6.3896,6.3139,6.2664,6.2588,6.2588,6.2588,6.2588,6.2588,6.2588,6.2588,6.2588,6.2987,3.097,3.5502,3.9807,4.0376,4.2503,4.4534,4.4705,4.5184,4.5412,4.4856,4.9033,5.2423,5.1036,5.1359,5.2601,5.5069,5.5406,5.6109,5.8372,5.9473,6.0043,6.0043,6.0043,6.0043,6.0043,6.0043,6.0043,6.0043,6.0043,6.0043,6.0043,6.0043,6.0043,6.0043,6.0043,6.0043,6.0043,6.0043,6.0043,6.0043,6.0384,6.0536,6.0536,6.0536,6.0992,6.1789,6.2112,6.2719,6.3535,6.4029,6.4523,6.4898,6.4898,6.4898,6.4898,6.4898,6.4898,6.4898,6.4898,6.4898,6.4898,6.4898,6.4898,6.4898,6.4898,6.4898,6.4898,6.4898,6.4898,6.4898,6.4898,6.4898,6.4898,6.4898,6.4898,6.4898,6.4898,6.4898,6.4898,6.4898,6.4898,6.4898,6.4898,6.4898,6.4898,6.4898,6.4898,6.4898,6.4898,6.4898,6.4898,6.4898,6.4523,6.4238,6.4238,6.3782,6.3498,6.3498,6.3498,6.3118,6.2283,6.1941,6.1542,6.1106,6.1087,6.1087,6.1087,6.1087,6.1277,6.1828,6.3703,6.4982,2.9528,3.3682,3.7206,3.707,3.9655,4.2389,4.3224,4.3132,4.3094,4.3945,4.8927,5.2214,4.9307,4.9554,5.0969,5.3494,5.3468,5.4418,5.8163,5.9245,5.9739,6.0005,6.0043,6.0043,6.0043,6.0043,6.0043,6.0043,6.0043,6.0043,6.0043,6.0043,6.0043,6.0043,6.0043,6.0043,6.0043,6.0043,6.0043,6.0043,6.0043,6.0043,6.0043,6.0043,6.0365,6.0916,6.1105,6.1599,6.2284,6.3042,6.3725,6.4276,6.4523,6.4599,6.4636,6.4822,6.4898,6.4898,6.4898,6.4898,6.4955,6.5263,6.5339,6.5396,6.5624,6.5529,6.5339,6.5339,6.5168,6.4898,6.4898,6.4898,6.4898,6.4898,6.4898,6.4898,6.4898,6.4898,6.4898,6.4898,6.4898,6.4898,6.4898,6.4898,6.4898,6.4898,6.4898,6.4822,6.4636,6.4599,6.4523,6.4276,6.3725,6.3384,6.3384,6.2911,6.2588,6.2588,6.2588,6.2094,6.0954,6.0897,6.0631,6.0062,6.0289,6.0403,6.0403,6.0669,6.1087,6.1695,6.4823,6.6651,2.5347,2.9413,3.3251,3.0666,3.5692,4.1476,4.2351,3.9997,3.9009,4.4066,4.8414,5.0798,4.9098,4.8064,4.8349,5.0912,5.133,5.3038,5.7992,5.8714,5.9037,5.9948,6.0043,6.0043,6.0043,6.0043,6.0043,6.0043,6.0043,6.0043,6.0043,6.0043,6.0043,6.0043,6.0043,6.0043,6.0043,6.0043,6.0043,6.0043,6.0043,6.0043,6.0043,6.0043,6.0043,6.01,6.0916,6.12,6.1294,6.2188,6.2607,6.2683,6.3441,6.3763,6.3858,6.4613,6.4898,6.4898,6.4898,6.4898,6.5111,6.5946,6.6275,6.6446,6.718,6.6857,6.6275,6.6275,6.5605,6.4898,6.4898,6.4898,6.4898,6.4898,6.4898,6.4898,6.4898,6.4898,6.4898,6.4898,6.4898,6.4898,6.4898,6.4898,6.4898,6.4898,6.4898,6.4674,6.3858,6.3763,6.3441,6.2702,6.2607,6.2607,6.2607,6.2588,6.2588,6.2588,6.2588,6.1847,6.0119,6.0062,6.0062,6.0043,6.084,6.12,6.1258,6.2151,6.2569,6.2628,6.5666,6.7571,2.4047,2.7601,3.153,3.303,3.518,3.7171,3.8006,4.0946,4.2999,4.1079,4.404,4.6982,4.702,4.7787,4.9165,5.1709,5.1652,5.262,5.6455,5.7974,5.879,5.9093,5.9663,6.0043,6.0043,6.0043,6.0043,6.0043,6.0043,6.0043,6.0043,6.0043,6.0043,6.0043,6.0043,6.0043,6.0043,6.0043,6.0043,6.0043,6.0043,6.0043,6.0043,6.0043,6.0043,6.0062,6.0327,6.0441,6.0536,6.2018,6.2588,6.2664,6.3422,6.3403,6.3082,6.3839,6.4143,6.4219,6.4708,6.5339,6.587,6.6199,6.6674,6.7123,6.737,6.7275,6.7066,6.7066,6.6478,6.5832,6.5832,6.5832,6.57,6.5111,6.4898,6.4898,6.4898,6.4523,6.4143,6.4143,6.3687,6.3348,6.3348,6.3348,6.3348,6.3348,6.3348,6.3213,6.3006,6.2968,6.2873,6.2607,6.2017,6.1675,6.1675,6.1144,6.0878,6.0878,6.1961,6.236,6.1828,6.1809,6.1809,6.1809,6.2056,6.3185,6.5188,6.5526,6.7065,6.9852,7.2934,7.4791,2.3759,2.6551,3.0069,3.2499,3.3181,3.429,3.8033,4.1215,4.2545,3.969,4.2697,4.5891,4.5933,4.7743,4.9487,5.0428,5.1178,5.2741,5.5763,5.71,5.7992,5.8619,5.9188,5.9682,6.0005,6.0043,6.0043,6.0043,6.0043,6.0043,6.0043,6.0043,6.0043,6.0043,6.0043,6.0043,6.0043,6.0043,6.0043,6.0043,6.0043,6.0043,6.0043,6.0043,6.0213,6.0517,6.0517,6.0517,6.0612,6.2037,6.2398,6.2131,6.3025,6.3215,6.3158,6.3896,6.401,6.3877,6.4674,6.5111,6.5515,6.6446,6.7047,6.7579,6.8224,6.8205,6.7958,6.7958,6.7351,6.6554,6.5908,6.5529,6.5135,6.4238,6.4048,6.4048,6.4048,6.3649,6.3289,6.3289,6.293,6.2588,6.2588,6.2588,6.2588,6.2588,6.2588,6.2474,6.2151,6.2113,6.1999,6.1676,6.1125,6.0802,6.0802,6.0612,6.0517,6.0517,6.2875,6.3805,6.2647,6.4797,6.5474,6.4293,6.5755,6.7442,6.9312,6.9611,7.1051,7.3601,7.6732,7.8438,2.4044,2.5968,2.8737,3.0067,3.056,3.2826,4.0811,4.0512,3.8598,3.9029,4.3092,4.618,4.5009,4.696,4.8428,4.749,5.049,5.375,5.598,5.6594,5.7336,5.8741,5.9027,5.9391,6.0023,6.0043,6.0043,6.0043,6.0043,6.0043,6.0043,6.0043,6.0043,6.0043,6.0043,6.0043,6.0043,6.0043,6.0269,6.0703,6.0269,6.0194,6.0459,6.0232,6.0574,6.1352,6.1352,6.1352,6.1428,6.2264,6.2169,6.1523,6.236,6.3139,6.3839,6.4599,6.4409,6.3877,6.4674,6.4523,6.4314,6.6611,6.7408,6.775,6.9344,6.9306,6.8699,6.8699,6.811,6.7085,6.5472,6.4485,6.3706,6.2892,6.2683,6.2664,6.2607,6.255,6.2493,6.2493,6.2455,6.2417,6.2417,6.2417,6.2417,6.2417,6.2417,6.2132,6.1277,6.1182,6.0878,6.0119,6.0043,6.0043,6.0043,6.0802,6.1372,6.1757,6.5423,6.6309,6.3548,6.8884,7.0515,6.7629,7.1288,7.33,7.3527,7.421,7.4705,7.4993,7.7925,7.9264,2.2746,2.3842,2.6542,3.3296,3.3932,3.3435,3.5427,3.7256,3.7284,3.2981,3.5122,3.7881,3.8292,3.8653,4.0559,4.5702,5.3644,5.8727,5.7528,6.0915,6.2782,6.0967,6.2124,6.2256,6.0231,6.0043,6.0043,6.0043,6.0043,6.0043,6.0043,6.0043,6.0043,6.0043,6.0043,6.0043,6.0043,6.0043,6.2254,6.6571,6.2143,6.1501,6.4159,6.1949,6.1428,6.2284,6.2284,6.2284,6.236,6.3118,6.3346,6.3194,6.3384,6.3592,6.3763,6.3953,6.3915,6.3877,6.4674,6.5263,6.58,6.6389,6.6933,6.7522,6.7921,6.7921,6.7769,6.7769,6.7617,6.7218,6.6193,6.5857,6.5344,6.3801,6.346,6.3348,6.2721,6.2017,6.1561,6.1561,6.1049,6.0631,6.0631,6.0631,6.0631,6.0631,6.0631,6.0555,6.0365,6.0327,6.0251,6.0062,6.0043,6.0043,6.0043,6.0802,6.2798,6.6519,7.0403,7.2243,7.1568,7.2914,7.3338,7.2568,7.3498,7.5179,7.7526,7.7754,7.9073,8.1389,8.2152,8.2505,2.2406,2.383,2.6751,3.3474,3.3622,3.2636,3.4676,3.5373,3.4626,3.1462,3.3828,3.6463,3.6351,3.9098,4.2448,4.5739,5.1313,5.4527,5.2584,5.5852,5.8666,5.9216,6.1547,6.2876,6.21,6.2011,6.2011,6.2011,6.0797,6.1228,6.3862,6.2773,6.2606,6.3952,6.4028,6.4028,6.4028,6.2717,6.4263,6.8563,6.319,6.2345,6.5455,6.2991,6.2302,6.3158,6.3158,6.3158,6.3215,6.3972,6.4086,6.3782,6.4162,6.4314,6.4314,6.4314,6.4314,6.4371,6.4746,6.5016,6.5287,6.6047,6.6598,6.6971,6.7332,6.7446,6.7446,6.7446,6.6895,6.6117,6.5301,6.5092,6.4831,6.3557,6.3234,6.3061,6.2683,6.2227,6.1732,6.1294,6.0916,6.0498,6.0119,6.0043,6.0043,6.0043,6.0043,6.0043,6.0043,6.0043,6.0043,6.0043,6.0043,6.0194,6.0574,6.1011,6.3301,6.8115,7.2102,7.4242,7.4242,7.6996,7.7868,7.6426,7.7812,7.9376,8.1058,8.1058,8.1908,8.3589,8.3589,8.3589,2.2673,2.4993,2.8268,3.2019,3.1759,3.1563,3.5326,3.4048,3.2074,3.2074,3.4972,3.7161,3.6067,4.1243,4.5803,4.6236,4.6492,4.6607,4.6666,4.982,5.3476,5.7075,6.094,6.3677,6.4619,6.4908,6.4991,6.4991,6.2773,6.3495,6.8381,6.6354,6.6116,6.8563,6.8595,6.9044,6.9947,6.7219,6.7358,7.0115,6.5195,6.4418,6.7249,6.5181,6.4642,6.538,6.538,6.538,6.5438,6.6077,6.596,6.5438,6.6096,6.6064,6.5656,6.5656,6.5308,6.4898,6.4898,6.4523,6.4162,6.5586,6.6104,6.6237,6.6857,6.7066,6.7066,6.7066,6.606,6.4746,6.4105,6.3934,6.3725,6.2968,6.2778,6.274,6.2607,6.2588,6.2379,6.1599,6.1466,6.1239,6.0555,6.0422,6.0422,6.0422,6.0308,6.0232,6.0232,6.0119,6.0043,6.0043,6.0157,6.0727,6.1855,6.2162,6.4523,6.9697,7.3151,7.5166,7.5683,8.0758,8.2316,7.9711,8.2262,8.3589,8.3589,8.3589,8.3589,8.3589,8.3589,8.3589,2.3156,2.6587,2.9958,3.0636,3.1322,3.1961,3.264,3.2415,3.2074,3.2074,3.2585,3.2987,3.2784,3.3565,3.6913,4.5238,4.2496,4.1896,4.9257,5.7133,6.1804,6.095,6.6207,6.9019,6.6732,6.7371,6.7952,6.7952,6.7598,6.7684,6.8563,6.8242,6.8167,6.8595,6.8595,7.0948,7.5808,7.3914,7.4354,7.7101,7.2372,7.2046,7.5465,7.2715,7.1952,7.2633,7.2633,7.2633,7.2633,7.2783,7.2761,7.2654,7.2783,7.1202,6.8845,6.8845,6.722,6.4898,6.4898,6.4822,6.4765,6.5073,6.5168,6.5187,6.5239,6.5296,6.5296,6.5296,6.5087,6.4879,6.4746,6.4788,6.458,6.3763,6.3554,6.3443,6.274,6.2588,6.255,6.2417,6.2398,6.236,6.2227,6.2208,6.2208,6.2208,6.1542,6.1087,6.1087,6.0479,6.0043,6.0043,6.0669,6.2161,6.4968,6.6514,7.0214,7.6929,7.789,7.9376,8.2042,8.3075,8.3347,8.2911,8.3317,8.3589,8.3589,8.3589,8.3589,8.3589,8.3589,8.3589,2.5298,2.796,3.017,2.9519,3.0733,3.2074,3.2074,3.2074,3.2074,3.2074,3.2074,3.2074,3.2074,3.3892,3.6294,3.9238,3.9812,4.1457,4.5889,5.4252,6.0567,6.2341,6.6821,6.9626,6.9305,6.9793,7.0341,7.0881,6.95,6.9999,7.3079,7.1786,7.163,7.3206,7.3234,7.4515,7.7165,7.5375,7.5893,7.8673,7.4458,7.4166,7.7292,7.483,7.3944,7.4242,7.4242,7.4242,7.4242,7.4242,7.4242,7.4242,7.4242,7.335,7.2123,7.2123,7.1202,6.9979,6.9979,6.8865,6.7159,6.5492,6.6064,6.7118,6.543,6.6125,6.7118,6.543,6.4898,6.4898,6.4898,6.4898,6.4803,6.4504,6.4409,6.4295,6.3934,6.3839,6.3725,6.3329,6.3194,6.312,6.2664,6.2588,6.2588,6.2588,6.2265,6.196,6.196,6.3086,6.388,6.388,6.5716,6.7712,6.9628,7.2444,7.6217,8.1121,8.1445,8.2097,8.3534,8.3589,8.3589,8.3589,8.3589,8.3589,8.3589,8.3589,8.3589,8.3589,8.3589,8.3589,2.8237,0.0,3.1048,3.0959,3.1892,3.2854,0.0,3.2459,3.2074,3.2074,3.2074,3.2074,3.2074,3.4753,3.6533,3.514,3.7948,4.1129,4.3567,4.9897,5.6226,6.1454,6.5501,6.8536,7.0218,7.1604,7.2802,7.3833,7.1839,7.2561,7.694,7.51,7.4872,7.709,7.7165,7.7165,7.7165,7.602,7.6542,7.8697,7.6291,7.633,7.8381,7.7075,7.6426,7.6426,7.6426,7.6426,7.6426,7.6426,7.6426,7.6426,7.6426,7.6027,7.5339,7.5339,7.4878,7.4242,7.4242,7.2708,7.0315,6.7884,6.8745,7.0077,6.6936,6.7159,6.8165,6.647,6.5492,6.4898,6.4898,6.4898,6.4898,6.4898,6.4898,6.4898,6.4898,6.4898,6.4788,6.4162,6.4029,6.3839,6.3272,6.3158,6.3158,6.3158,6.3621,6.3939,6.3939,6.6422,6.8143,6.8143,7.0459,7.2596,7.4084,7.7769,8.1058,8.3426,8.3589,8.3589,8.3589,8.3589,8.3589,8.3589,8.3589,8.3589,8.3589,8.3589,8.3589,8.3589,8.3589,8.3589,0.0,3.3268,3.4087,3.705,3.644,3.5161,3.5161,3.3565,0.0,3.2074,3.2074,3.2074,3.2074,3.2338,3.3777,3.7533,3.685,3.863,4.6672,4.8361,5.1138,5.7552,6.2903,6.6532,6.7631,7.2318,7.5722,7.6817,7.6688,7.6739,7.7165,7.699,7.694,7.7165,7.7165,7.7165,7.7165,7.8011,7.8546,7.8724,8.053,8.1473,8.1735,8.2535,8.2911,8.2911,8.2911,8.2911,8.2911,8.2911,8.2911,8.2911,8.2911,8.1169,7.8567,7.8567,7.6768,7.4242,7.4242,7.4127,7.3895,7.3662,7.3779,7.335,7.0175,6.7401,6.5839,6.8505,6.7159,6.4898,6.4898,6.4898,6.4898,6.4898,6.4898,6.4898,6.4898,6.4898,6.4879,6.4822,6.4822,6.4803,6.4746,6.4727,6.4727,6.4727,6.6612,6.8039,6.8039,6.9974,7.1416,7.1416,7.2344,7.4197,7.715,8.0982,8.3371,8.3534,8.3589,8.3589,8.3589,8.3589,8.3589,8.3589,8.3589,8.3589,8.3589,8.3589,8.3589,8.3589,8.3589,8.3589,3.0999,3.3942,3.7096,3.9003,3.8949,3.8228,3.7466,3.6176,3.4511,3.2488,3.2074,3.2074,3.2074,3.2074,3.2585,3.4241,3.4458,3.7631,4.6922,4.9979,5.4372,6.2864,6.4475,6.6354,7.0112,7.0503,7.2113,7.5921,7.6824,7.7165,7.7165,7.7165,7.7165,7.7165,7.7799,7.8165,7.8165,7.9163,8.0093,8.0805,8.1611,8.2343,8.3003,8.3418,8.3589,8.3589,8.3589,8.3589,0.0,8.3589,8.3589,8.3589,8.3589,8.2833,8.1799,8.1799,8.109,8.0068,8.0068,7.8792,7.7472,7.9431,7.7393,7.4069,7.2825,7.3059,7.3445,7.2708,7.0255,6.8285,7.0217,6.7823,6.543,6.7401,6.6349,6.4898,6.4898,6.4898,6.4898,6.4898,6.4898,6.4898,6.4898,6.6531,6.7804,6.7804,7.0203,7.2081,7.2081,7.449,7.6203,7.6203,7.8285,8.0136,8.1279,8.2723,8.3589,8.3589,8.3589,8.3589,8.3589,8.3589,8.3589,8.3589,8.3589,8.3589,8.3589,8.3589,8.3589,8.3589,8.3589,8.3589,3.2427,3.5781,3.9587,4.2043,4.2158,4.1332,3.9879,3.8467,3.6388,3.2826,3.2074,3.2074,3.2074,3.2074,3.2074,3.2074,3.3336,3.7558,4.6898,5.1004,5.6129,6.4409,6.4451,6.5396,6.9401,6.9624,7.1186,7.531,7.6605,7.7165,7.7165,7.7165,7.7165,7.7165,7.7873,7.8263,7.8263,7.9261,8.0163,8.1,8.1684,8.2368,8.31,8.3442,8.3589,8.3589,8.3589,8.3589,8.3589,8.3589,8.3589,8.3589,8.3589,8.3589,8.3589,8.3589,8.3589,8.3589,8.3589,8.2207,8.0758,8.2887,8.0703,7.7223,7.7223,7.868,7.9543,7.5396,7.2005,7.0294,7.3408,7.0335,6.7179,7.0315,6.9443,6.7884,6.7884,6.7884,6.7602,6.6592,6.7179,6.7602,6.6592,6.8965,7.1063,7.1063,7.3757,7.574,7.574,7.8455,8.0402,8.0402,8.2316,8.3589,8.3589,8.3589,8.3589,8.3589,8.3589,8.3589,8.3589,8.3589,8.3589,8.3589,8.3589,8.3589,8.3589,8.3589,8.3589,8.3589,8.3589,8.3589,3.7092,3.9351,4.139,4.6839,4.6533,4.4406,4.2272,4.0087,3.7313,3.2973,3.2074,3.2074,3.2074,3.2074,3.2074,3.2074,3.3948,3.8436,4.702,5.1028,5.5115,6.0488,6.2035,6.3108,6.4224,7.0088,7.431,7.5506,7.658,7.7141,7.7165,7.7165,7.7165,7.7165,7.7165,7.7165,7.7165,7.8239,7.8724,7.8749,8.0976,8.2055,8.2103,8.3125,8.3589,8.3589,8.3589,8.3589,8.3589,8.3589,8.3589,8.3589,8.3589,8.3589,8.3589,8.3589,8.3589,8.3589,8.3589,8.3589,8.3589,8.3589,8.3589,8.3589,8.3589,8.3589,8.2316,7.6084,7.2123,7.0413,7.3525,7.2005,7.0413,7.3525,7.43,7.4242,7.4242,7.4242,7.335,7.0235,7.2123,7.3234,7.0175,7.224,7.43,7.43,7.6939,7.896,7.896,8.1689,8.3589,8.3589,8.3589,8.3589,8.3589,8.3589,8.3589,8.3589,8.3589,8.3589,8.3589,8.3589,8.3589,8.3589,8.3589,8.3589,8.3589,8.3589,8.3589,8.3589,8.3589,8.3589,3.5251,3.8877,4.3429,4.6616,4.785,4.7167,4.2776,4.1841,4.0045,3.3436,3.2074,3.2074,3.2074,3.2074,3.2074,3.2074,3.5873,4.1001,4.7313,5.2981,5.874,6.4799,6.6482,6.6384,6.4517,6.879,7.2453,7.4236,7.5457,7.6409,7.7116,7.7165,7.7165,7.7165,7.7897,7.8288,7.8288,7.931,8.0264,8.1049,8.1684,8.2392,8.3125,8.3442,8.3589,8.3589,8.3589,8.3589,8.3589,8.3589,8.3589,8.3589,8.3589,8.3589,8.3589,8.3589,8.3589,8.3589,8.3589,8.3589,8.3589,8.3589,8.3589,8.3589,8.3589,8.3589,8.3184,8.1334,8.0156,7.9185,7.7868,7.5201,7.3699,7.6768,7.5855,7.4242,7.4242,7.4242,7.3989,7.3059,7.3583,7.3953,7.3,7.5489,7.7529,7.7529,8.018,8.2207,8.2207,8.302,8.3589,8.3589,8.3589,8.3589,8.3589,8.3589,8.3589,8.3589,8.3589,8.3589,8.3589,8.3589,8.3589,8.3589,8.3589,8.3589,8.3589,8.3589,8.3589,8.3589,8.3589,8.3589,3.6903,3.9959,4.385,4.6414,4.8489,4.8497,4.3043,4.2908,4.1676,3.3729,3.2074,3.2585,3.4314,3.3241,3.2802,3.4971,3.6996,4.0756,4.7856,5.2956,5.8838,6.653,6.8339,6.8457,6.7032,6.9205,7.1452,7.3114,7.4724,7.5701,7.5847,7.5847,7.6067,7.6556,7.7141,7.7702,7.8117,7.9139,7.9993,8.0732,8.1586,8.2397,8.2978,8.3393,8.3589,8.3589,8.3589,8.3589,8.3589,8.3589,8.3589,8.3589,8.3589,8.3589,8.3589,8.3589,8.3589,8.3589,8.3589,8.3589,8.3589,8.3589,8.3589,8.3589,8.3589,8.3589,8.3589,8.3589,8.3589,8.2833,7.9711,7.8455,7.8432,8.037,7.932,7.7981,7.7981,7.7981,7.7586,7.6369,7.7132,7.7586,7.6312,7.868,8.0758,8.0758,8.2371,8.3589,8.3589,8.3589,8.3589,8.3589,8.3589,8.3589,8.3589,8.3589,8.3589,8.3589,8.3589,8.3589,8.3589,8.3589,8.3589,8.3589,8.3589,8.3589,8.3589,8.3589,8.3589,8.3589,8.3589,8.3589,4.03,4.1685,4.3235,4.6052,4.8513,4.8741,4.2811,4.3231,4.2456,3.3828,3.2074,3.3387,3.7704,3.5363,3.458,3.9952,3.8852,4.0364,4.9125,5.2624,5.752,6.6408,0.0,0.0,7.0622,7.0765,7.1135,7.2111,7.4114,7.4846,7.3797,7.3822,7.4358,7.5432,7.5457,7.5921,7.6848,7.8019,7.8602,7.8724,8.0976,8.2103,8.2226,8.3149,8.3589,8.3589,8.3589,8.3589,8.3589,8.3589,8.3589,8.3589,8.3589,8.3589,8.3589,8.3589,8.3589,8.3589,8.3589,8.3589,8.3589,8.3589,8.3589,8.3589,8.3589,8.3589,8.3589,8.3589,8.3589,8.2911,8.0068,8.1445,8.3589,8.3589,8.3589,8.3589,8.3589,8.3589,8.2723,7.9878,8.1634,8.2669,7.9845,8.1689,8.3589,8.3589,8.3589,8.3589,8.3589,8.3589,8.3589,8.3589,8.3589,8.3589,8.3589,8.3589,8.3589,8.3589,8.3589,8.3589,8.3589,8.3589,8.3589,8.3589,8.3589,8.3589,8.3589,8.3491,8.3442,8.3442,8.3344,8.3241,3.8516,4.0376,4.2892,4.4143,4.7873,4.9116,4.1028,4.2154,4.2456,3.3828,3.2074,3.3387,3.7704,3.8485,4.0001,4.4513,4.893,5.2459,5.4531,5.9643,6.4231,6.7116,6.8339,0.0,7.0622,7.0765,7.0863,7.1037,7.2282,7.2942,7.2673,7.3407,7.3992,7.4236,7.4236,7.4358,7.4578,7.653,7.7921,7.8724,8.0976,8.2441,8.3247,8.3491,8.3589,8.3589,8.3589,8.3589,8.3589,8.3589,8.3589,8.3589,8.3589,8.3589,8.3589,8.3589,8.3589,8.3589,8.3589,8.3589,8.3589,8.3589,8.3589,8.3589,8.3589,8.3589,8.3589,8.3589,8.3589,8.3426,8.2778,8.3075,8.3589,8.3589,8.3589,8.3589,8.3589,8.3589,8.3371,8.2723,8.3129,8.3371,8.2723,8.3129,8.3589,8.3589,8.3589,8.3589,8.3589,8.3589,8.3589,8.3589,8.3589,8.3589,8.3589,8.3589,8.3589,8.3589,8.3589,8.3589,8.3589,8.3589,8.3589,8.3589,8.3589,8.3589,8.3589,8.2758,8.2397,8.2319,8.1436,8.0992,3.9427,4.0566,4.2178,4.3411,4.7325,4.9191,4.296,4.328,4.3041,3.6509,3.3509,3.3558,3.8437,3.983,4.198,4.727,5.0955,5.3995,5.6629,6.0814,6.4548,6.714,6.8847,7.0109,7.0716,7.0765,7.0765,7.0765,7.1232,7.155,7.155,7.2087,7.2577,7.3089,7.3114,7.3358,7.387,7.5017,7.5872,7.6433,7.8143,7.9486,8.0508,8.1558,8.229,8.2856,8.3369,8.3589,8.3589,8.3589,8.3589,8.3589,8.3589,8.3589,8.3589,8.3589,8.3589,8.3589,8.3589,8.3589,8.3589,8.3589,8.3589,8.3589,8.3589,8.3589,8.3589,8.3589,8.3589,8.3589,8.3589,8.3589,8.3589,8.3589,8.3589,8.3589,8.3589,8.3589,8.3589,8.3589,8.3589,8.3589,8.3589,8.3589,8.3589,8.3589,8.3589,8.3589,8.3589,8.3589,8.3393,8.288,8.3296,8.3393,8.288,8.3296,8.3589,8.3589,8.3125,8.2832,8.2832,8.229,8.2021,8.2021,8.2021,8.2021,8.2021,8.146,8.1192,8.1167,8.0578,8.031,4.0888,4.1191,4.157,4.3167,4.6473,4.8494,4.5179,4.4858,4.4155,4.0163,3.6631,3.5923,4.1198,4.2493,4.4639,5.0492,5.1907,5.3786,5.8106,6.0692,6.3474,0.0,6.9425,7.0765,7.0765,7.0765,7.0765,7.0765,7.0765,7.0765,7.0765,7.0765,7.1135,7.2014,7.2063,7.2478,7.3309,7.3504,7.37,7.3895,7.5066,7.6165,7.7214,7.9139,8.0557,8.1513,8.2587,8.3051,8.2997,8.3247,8.332,8.3344,8.3515,8.3589,8.3589,8.3589,8.3589,8.3589,8.3589,8.3589,8.354,8.3173,8.3051,8.3051,8.3051,8.3051,8.3051,8.3051,8.3051,8.3076,8.3271,8.332,8.3369,8.354,8.3589,8.3589,8.3589,8.3589,8.3589,8.3589,8.3589,8.3589,8.3589,8.3589,8.3589,8.3589,8.3589,8.3589,8.3589,8.3271,8.271,8.1806,8.2514,8.2685,8.1782,8.2539,8.3051,8.3051,8.2221,8.1708,8.1708,8.0773,8.031,8.031,8.031,8.0494,8.0938,8.0741,8.0901,8.1263,8.109,8.1042,4.0376,4.1191,4.1476,4.2465,4.4514,4.5616,4.3122,4.472,4.5988,4.3269,4.2944,4.4606,4.9189,5.1477,5.3932,5.7617,0.0,6.2319,6.201,6.4628,6.6799,6.7384,6.9425,7.0765,7.0765,7.0765,7.0765,7.0765,7.0765,7.0765,7.0765,7.0765,7.0839,7.0939,7.0985,7.1012,7.1135,7.2063,7.2943,7.3895,7.5066,7.6165,7.7214,7.841,7.8993,7.9239,8.0261,8.0724,8.0797,8.183,8.225,8.2294,8.3222,8.3589,8.3589,8.3589,8.3589,8.3589,8.3589,8.3589,8.3296,8.1334,8.0724,8.0724,8.0724,8.0724,8.0724,8.0724,8.0724,8.0944,8.1977,8.225,8.2441,8.3369,8.3589,8.3589,8.3589,8.3589,8.3589,8.3589,8.3589,8.3589,8.3589,8.3589,8.3589,8.3589,8.3589,8.3589,8.3589,8.1924,8.0675,8.0529,8.0651,8.0675,8.0529,8.0651,8.0724,8.0724,8.0602,8.0505,8.0505,8.0383,8.031,8.031,8.031,8.1328,8.3477,8.2561,8.3236,8.5336,8.4424,8.3994,4.0281,4.1191,4.1399,4.2332,4.4158,4.5718,4.5759,4.5927,4.6072,4.6071,4.4996,4.4801,4.7343,5.1053,5.4591,5.7214,6.0863,6.3401,6.3548,6.5842,6.7457,0.0,6.9425,0.0,7.0765,7.0765,7.0765,7.0765,7.0765,7.0765,7.0765,7.0765,7.0765,7.0765,7.0765,7.0765,7.0765,7.1183,7.1672,7.2136,7.2624,7.343,7.4504,7.553,7.636,7.7019,7.8092,7.8505,7.8654,7.9703,8.0219,8.0264,8.1338,8.1753,8.1753,8.1753,8.1753,8.1753,8.1753,8.1753,8.1553,8.0602,8.031,8.031,8.031,8.031,8.031,8.031,8.031,8.0407,8.0948,8.1045,8.1167,8.1631,8.1753,8.1753,8.1753,8.1753,8.1753,8.1753,8.1753,8.1753,8.1753,8.1753,8.1753,8.1753,8.1753,8.1533,8.0948,8.0505,7.9846,7.8651,7.9041,7.9163,7.8554,7.8505,7.8773,7.9383,7.8336,7.7677,7.7677,7.7017,7.7618,7.9701,7.9726,8.1231,8.4318,8.384,8.4171,8.5223,8.4759,8.4564,3.8879,3.9921,4.0262,4.1612,4.3096,4.4875,4.7303,4.6798,4.6487,4.8958,4.7703,4.6532,4.7574,5.137,5.4811,5.6361,5.9751,6.2425,6.3027,6.5158,0.0,6.7018,0.0,7.0426,7.0765,7.0765,7.0765,7.0765,7.0765,7.0765,7.0765,7.0765,7.0765,7.0765,7.0765,7.0765,7.0765,7.0765,7.0765,7.0765,7.0765,7.1135,7.1965,7.2992,7.3919,7.4846,7.5847,7.6335,7.6408,7.7482,7.7946,7.8068,7.9383,7.9724,7.9529,7.9797,7.9895,7.9773,7.8944,7.8651,7.8651,7.8651,7.8651,7.8651,7.8651,7.8651,7.8724,7.8993,7.909,7.9212,7.9773,7.9895,7.9968,8.0236,8.031,8.031,8.031,8.0038,7.9993,8.0209,8.009,7.9993,8.0261,8.009,7.9895,7.9895,7.9895,7.931,7.7676,7.8163,7.8041,7.6506,7.7043,7.7189,7.6384,7.6335,7.6652,7.7458,7.656,7.6062,7.6062,7.5769,7.6871,7.9577,7.965,8.1421,8.4975,8.4975,8.5501,8.6461,8.6461,8.6461,3.5071,3.6416,3.7019,3.9541,4.0262,4.1296,4.4963,4.6513,4.8198,5.2048,5.3469,5.4396,5.5409,5.6763,5.7691,5.7813,5.9667,6.079,5.9887,6.2474,6.4883,6.5866,0.0,0.0,0.0,7.0765,7.0765,7.0765,7.0765,7.0765,7.0765,7.0765,7.0765,7.0765,7.0765,7.0765,7.0765,7.0765,7.0765,7.0765,7.0765,7.0744,7.0888,7.1916,7.2453,7.2551,7.3578,7.4041,7.4139,7.531,7.5774,7.597,7.8019,7.8214,7.7433,7.8407,7.8798,7.8334,7.5286,7.4212,7.4212,7.4212,7.4212,7.4212,7.4212,7.4212,7.4432,7.5555,7.5848,7.6336,7.8312,7.8798,7.9041,8.0066,8.031,8.031,8.031,7.9505,7.909,8.0114,7.948,7.9115,8.0139,7.9456,7.8798,7.8798,7.8798,7.7651,7.4529,7.4163,7.4163,7.4066,7.409,7.4114,7.4066,7.4041,7.4066,7.4139,7.6131,7.7244,7.7244,7.9215,8.0417,8.0604,8.0604,8.2463,8.619,8.619,8.8074,9.1595,9.1595,9.1595,3.4806,3.6151,3.6792,3.9389,4.0053,4.1029,4.4835,4.5991,4.7341,5.1243,5.2893,5.3713,5.4103,5.5616,5.7043,5.7788,5.9106,6.0155,6.0424,6.2059,6.3645,6.4785,6.6725,6.8433,6.9506,6.9038,6.8916,6.9579,7.0329,7.0765,7.0765,7.0765,7.0765,7.0765,7.0765,7.0765,7.0765,7.0765,7.0765,7.0765,7.0765,7.0765,7.079,7.1135,7.1306,7.133,7.1696,7.1867,7.1965,7.3064,7.3503,7.365,7.5066,7.5383,7.5091,7.5481,7.5627,7.5359,7.3504,7.3309,7.387,7.387,7.387,7.387,7.387,7.387,7.3968,7.4358,7.4481,7.4651,7.5432,7.5627,7.5725,7.6042,7.6139,7.6139,7.6139,7.5847,7.5725,7.6066,7.5847,7.57,7.609,7.5822,7.5627,7.5627,7.5042,7.4163,7.2992,7.3456,7.3602,7.2919,7.2845,7.2845,7.2845,7.2258,7.216,7.2797,7.4334,7.5261,7.5261,7.7422,7.9716,8.1987,8.2056,8.382,8.7417,8.7417,8.8159,8.9431,8.9431,8.9926,3.2575,3.4275,3.554,3.8099,3.9389,4.0842,4.3984,4.5208,4.6594,4.9863,5.1608,5.2683,5.3015,5.4201,5.5605,5.7105,5.7921,5.8726,5.9814,6.0888,6.1986,6.31,6.4768,6.6384,6.7823,6.7335,6.7213,6.792,6.9014,6.9645,6.9645,6.9987,7.0161,7.0161,7.0524,7.0765,7.0765,7.0765,7.0765,7.0765,7.0765,7.0765,7.0765,7.0765,7.0765,7.0765,7.0765,7.0765,7.0814,7.1501,7.1794,7.1892,7.2919,7.3114,7.2845,7.3212,7.3114,7.2699,7.2038,7.2258,7.2797,7.2797,7.2797,7.2797,7.2797,7.2797,7.287,7.3236,7.3334,7.3431,7.3773,7.387,7.387,7.387,7.387,7.387,7.387,7.3602,7.3456,7.3797,7.3578,7.3456,7.3822,7.387,7.3748,7.3407,7.2771,7.2185,7.1818,7.2404,7.2575,7.1867,7.1794,7.1794,7.1794,7.1135,7.1381,7.2828,7.4378,7.5578,7.6328,7.8553,8.0892,8.3197,8.3266,8.4647,8.7395,8.6988,8.6988,8.7395,8.6959,8.721,2.8121,3.0496,3.2892,3.5507,3.8023,4.035,4.2259,4.421,4.6219,4.8166,5.0158,5.1828,5.282,5.304,5.3713,5.5751,5.6141,5.6531,5.7715,5.8764,5.9751,6.0839,6.1913,6.3377,6.55,6.572,6.5768,6.5793,6.675,6.736,6.736,6.8339,6.89,6.89,7.0039,7.0668,7.0668,7.0668,7.0692,7.0716,7.0716,7.0741,7.0765,7.0765,7.0765,7.0765,7.0765,7.0765,7.0765,7.0765,7.0765,7.0863,7.1867,7.1647,7.0842,7.1892,7.1623,7.0765,7.0765,7.0765,7.0765,7.0765,7.0765,7.0765,7.0765,7.0765,7.0939,7.1989,7.2282,7.2526,7.3504,7.3773,7.3773,7.3773,7.3773,7.3773,7.3773,7.2967,7.2575,7.3578,7.2943,7.2553,7.3602,7.3773,7.3431,7.2382,7.2282,7.1892,7.0912,7.0765,7.0765,7.0765,7.0765,7.0765,7.0765,7.0765,7.1696,7.3898,7.6252,7.8539,8.0702,8.2954,8.409,8.4032,8.4032,8.4681,8.5931,8.4681,8.471,8.5902,8.4652,8.4061,2.8949,2.8789,2.9282,3.4787,3.5825,3.6529,4.0214,4.3027,4.553,4.8063,5.0158,5.1608,5.1877,5.2585,5.3259,5.381,5.4567,5.5409,5.6507,5.6922,5.7799,5.9653,6.0839,6.14,6.1278,6.1937,6.2693,6.3474,6.4548,6.5183,6.5183,6.6208,6.6725,6.6725,6.7818,6.838,6.838,6.838,6.8725,6.9481,6.9481,6.9941,7.0765,7.0765,7.0765,7.0765,7.0765,7.0765,7.0765,7.0765,7.0765,7.0744,7.1037,7.1034,7.0814,7.1107,7.1034,7.0765,7.0765,7.0765,7.0765,7.0765,7.0765,7.0765,7.0765,7.0765,7.0839,7.1132,7.1159,7.1232,7.1525,7.1599,7.1599,7.1599,7.1599,7.1599,7.1599,7.1379,7.1257,7.155,7.1354,7.1257,7.155,7.1599,7.1501,7.1208,7.1159,7.1107,7.0814,7.0765,7.0765,7.0765,7.0765,7.0765,7.0765,7.0765,7.1696,7.3898,7.6252,7.8116,7.9392,8.1701,8.246,8.1492,8.1492,8.1666,8.2053,8.1637,8.1666,8.2053,8.1637,8.1986,2.6172,2.5735,2.6209,3.0458,3.1625,3.2759,3.6772,3.9519,4.2064,4.5054,4.7832,4.9845,5.0222,5.1433,5.2585,5.2991,5.3566,5.4347,5.5385,5.5922,5.6678,5.7946,5.8604,5.8751,5.8165,5.9458,6.0644,6.1238,6.2303,6.2954,6.2954,6.3938,6.4524,6.4524,6.5969,6.6818,6.6818,6.7238,6.7774,6.8384,6.8384,6.8701,6.9401,6.9401,6.9401,6.9425,6.9819,7.0015,7.0039,7.0548,7.0765,7.0765,7.0765,7.0765,7.0622,6.9718,6.9401,6.9401,6.9401,6.9401,6.9401,6.9401,6.9401,6.9511,7.0377,7.0688,7.0688,7.0688,7.0967,7.1361,7.145,7.1774,7.2394,7.3354,7.3621,7.3621,7.3621,7.3621,7.3621,7.3621,7.3621,7.3309,7.2304,7.2123,7.2484,7.3443,7.3621,7.3621,7.3621,7.3621,7.3621,7.3621,7.3621,7.3621,7.3621,7.3118,7.3705,7.5926,7.6835,7.7997,7.9512,8.0892,8.1238,8.0481,8.0481,8.0481,8.0481,7.9929,7.963,7.9667,7.9845,7.9693,2.1468,2.2094,2.3665,2.4659,2.643,2.8786,0.0,0.0,3.6878,4.0008,4.362,4.6524,4.7486,4.9362,5.1119,5.216,5.2649,5.3259,5.4299,5.5239,5.5848,5.5848,5.5946,5.6019,5.6019,5.7799,5.8994,5.9092,5.996,6.0546,6.0707,6.1693,6.2238,6.2238,6.428,6.5353,6.5353,6.636,6.6969,6.7091,6.7213,6.7335,6.7457,6.7457,6.7457,6.7506,6.8412,6.8827,6.89,6.9941,7.0378,7.0378,7.0378,7.0378,7.0133,6.814,6.7457,6.7457,6.7457,6.7457,6.7457,6.7457,6.7608,6.8151,7.0005,7.0741,7.0883,7.0883,7.156,7.2357,7.2588,7.3336,7.4563,7.6648,7.7113,7.707,7.6817,7.6944,7.7097,7.702,7.7174,7.6734,7.4795,7.4471,7.5066,7.6844,7.7113,7.7113,7.7113,7.6902,7.686,7.7113,7.6902,7.686,7.7113,7.6078,7.6336,7.8559,7.7632,7.7977,8.0175,8.0249,8.019,8.0045,7.9899,7.9812,7.9812,7.8496,7.7885,7.7892,7.8236,7.7376,0.0,0.0,0.0,0.0,0.0,0.0,0.0,2.9889,3.3144,3.4424,3.7638,4.0544,4.1654,4.4232,4.6557,4.7709,5.0085,5.2194,5.3235,5.3577,5.3664,5.3664,5.4421,5.4933,5.4933,5.5323,5.5897,5.6775,5.7019,5.7531,5.8472,5.9521,6.0068,6.0068,6.1302,6.2002,6.2002,6.3035,6.4011,6.4981,6.5793,6.6628,6.7457,6.7457,6.7457,6.7457,6.7677,6.775,6.7774,6.7994,6.8111,6.8111,6.8111,6.8111,6.8018,6.7603,6.7457,6.7457,6.7457,6.7457,6.7457,6.7457,6.8579,7.0047,7.0445,7.1734,7.3067,7.3067,7.3185,7.3371,7.3453,7.3571,7.388,7.4332,7.4413,7.3963,7.2311,7.3246,7.4229,7.3609,7.4826,7.6168,7.6776,7.6851,7.6339,7.4667,7.4413,7.4413,7.4413,7.2955,7.2537,7.425,7.2955,7.2579,7.4291,7.4199,7.4995,7.7225,7.7118,7.7543,7.886,7.8903,7.8409,7.7355,7.6315,7.5762,7.5768,7.4482,7.3809,7.3843,7.3921,7.5696,0.0,0.0,0.0,0.0,0.0,0.0,0.0,0.0,0.0,0.0,0.0,3.5969,3.6931,0.0,4.4508,4.5605,4.8515,5.1046,5.2112,5.2722,5.2869,5.2365,5.3211,5.3835,5.3835,5.4323,5.5191,5.6572,5.6668,5.7247,5.8616,5.845,5.8555,5.9067,5.932,6.017,6.1578,6.2639,6.3938,6.5504,6.5634,6.5971,6.6437,6.609,6.589,6.589,6.589,6.6208,6.6652,6.6652,6.6969,6.7238,6.5109,6.4255,6.4329,6.4823,6.5018,6.5261,6.6893,6.7446,6.7446,6.7446,6.8801,7.0476,7.0476,7.1912,7.358,7.358,7.3979,7.4483,7.4522,7.4921,7.5623,7.6785,7.7084,7.6785,7.5741,7.6357,7.698,7.6578,7.7322,7.786,7.7351,7.8252,7.8549,7.7252,7.7084,7.7084,7.7084,7.6134,7.4923,7.3387,7.4593,7.4868,7.3304,7.5583,7.7255,7.771,7.7149,7.674,7.66,7.6576,7.5995,7.4652,7.4017,7.3668,7.3668,7.3798,7.3866,7.3868,7.3327,7.4722,0.0,0.0,0.0,0.0,0.0,0.0,0.0,0.0,0.0,0.0,0.0,0.0,0.0,0.0,0.0,4.3062,4.6283,4.9184,5.0939,5.1892,5.2112,5.129,5.2112,5.2771,5.2771,5.3552,5.4789,5.6678,5.6814,5.76,5.9374,5.8002,5.7685,5.8801,5.7838,5.8524,6.1192,6.2281,6.3406,6.4652,6.4749,0.0,6.433,6.3909,6.3711,6.3711,6.3711,6.4199,6.4963,6.4963,6.5451,6.5884,6.2649,6.1378,6.1503,6.2332,6.2615,6.3016,6.5621,6.6556,6.6608,6.684,6.8278,6.9914,7.0168,7.1686,0.0,7.3304,7.4206,7.5136,7.5238,7.6065,7.7364,7.9257,7.9725,7.9615,7.922,7.9469,7.9674,7.9538,7.9817,7.958,7.7929,7.7973,7.7921,7.6896,7.6786,7.6786,7.6786,7.7281,7.619,7.2413,7.626,7.7579,7.3746,7.6402,7.8205,7.8176,7.5989,7.4163,7.2858,7.2966,7.2004,6.98,6.9829,7.0338,7.1331,7.2458,7.3617,7.4678,7.1589,7.1385,0.0,0.0,0.0,0.0,0.0,0.0,0.0,0.0,0.0,0.0,0.0,0.0,0.0,0.0,0.0,0.0,4.1457,4.5601,4.9419,5.0052,5.0077,4.9987,5.0997,5.1681,5.1681,5.1779,5.2877,5.5375,5.5585,5.6719,5.9354,5.8002,0.0,0.0,0.0,5.586,5.7676,5.8766,5.8605,5.7388,6.0801,6.1647,6.0198,6.1031,6.14,6.14,6.14,6.1489,6.1571,6.1571,6.1684,6.1817,6.2384,6.2592,6.2592,6.2723,6.2776,6.2838,6.3183,0.0,0.0,6.466,6.6442,6.834,6.9494,7.122,7.278,7.278,7.3706,7.4725,7.4725,7.5675,7.6724,7.6971,7.7036,7.6517,7.4643,7.5715,7.6799,7.612,7.7478,7.9034,7.9917,7.4636,6.8722,6.407,6.3402,6.3402,6.3402,6.5801,6.8002,6.926,7.2328,0.0,7.6053,7.2592,7.2156,7.6541,7.1341,6.7562,6.6253,6.6886,6.4736,5.9355,5.957,6.1943,6.6329,6.6039,6.8553,7.3421,6.3091,6.11,0.0,0.0,0.0,0.0,0.0,0.0,0.0,0.0,0.0,0.0,0.0,0.0,0.0,0.0,0.0,0.0,3.9177,4.2244,4.4,4.5274,4.6727,4.863,4.9808,5.05,5.05,5.1959,5.3732,5.5821,5.6887,5.8338,6.0409,5.9008,5.8747,6.0021,5.7771,5.7724,6.0192,6.0612,6.1019,6.1373,6.2546,6.2769,6.2091,6.2064,6.2031,6.2031,6.2031,6.2031,6.2031,6.2031,6.2031,6.1789,0.0,0.0,0.0,0.0,6.0513,6.2136,6.3962,6.4581,6.4697,6.5244,6.7358,6.9524,6.8862,7.0534,7.2675,7.2675,7.3086,7.3523,7.3523,7.393,7.4332,7.4332,7.4332,7.4098,7.3186,7.3727,7.4243,7.3909,7.5147,0.0,7.5995,7.329,7.0408,6.8227,6.7908,6.8169,6.8957,7.0162,7.0457,6.9123,7.2777,7.4451,7.2347,7.2937,0.0,0.0,0.0,7.0909,6.9567,6.9188,0.0,0.0,0.0,6.2589,6.3801,6.1072,0.0,0.0,5.8067,5.5862,0.0,0.0,0.0,0.0,0.0,0.0,0.0,0.0,0.0,0.0,0.0,0.0,0.0,0.0,0.0,0.0,3.5031,3.7386,3.7924,4.061,4.3384,4.5763,4.8,4.9517,4.9934,5.1736,5.3884,5.6351,5.766,5.9227,6.1138,5.9769,5.9464,6.0632,5.8631,5.8764,6.1407,6.1466,6.1864,6.2708,6.2916,6.2748,6.2294,6.2014,6.1869,6.1869,6.1869,6.1869,6.1869,6.1421,6.1214,6.0907,5.7706,5.6426,5.6593,5.7824,5.9501,6.156,6.382,6.4603,6.4691,6.5029,6.681,6.8588,6.7434,6.8731,7.0614,7.0614,7.0876,7.1138,7.1138,7.1429,7.169,7.169,7.169,7.169,7.169,7.169,7.1807,7.2156,7.2708,7.233,6.9943,7.0117,7.0149,6.8753,6.8549,6.8869,6.9832,7.117,7.0963,6.823,7.2472,7.4012,7.032,7.2094,7.3639,7.4075,7.2447,7.1858,7.2783,7.0292,6.926,7.0029,6.5409,6.278,0.0,0.0,0.0,0.0,0.0,0.0,0.0,0.0,0.0,0.0,0.0,0.0,0.0,0.0,0.0,0.0,0.0,0.0,0.0,0.0,0.0,0.0,0.0,0.0,3.2066,3.6947,4.0417,4.064,4.5136,4.8855,5.0346,5.0505,5.2248,5.6619,5.7017,5.8235,6.108,5.9769,5.9624,6.114,5.8095,5.7252,5.9008,5.9008,5.821,5.6695,5.9304,5.9698,5.8128,5.9111,5.958,5.958,5.958,5.958,5.9448,5.7937,5.7317,5.7561,6.0079,6.1028,6.1028,6.1085,6.117,6.1257,6.1342,6.137,6.1602,6.285,6.3344,6.3634,6.4855,6.5291,6.535,6.535,6.6282,6.7213,6.7213,6.8173,6.9131,6.9131,6.9131,6.9131,6.9131,6.9131,6.948,7.0763,7.0004,6.7559,6.2472,6.3663,6.3663,5.8746,5.799,0.0,5.8048,6.2383,6.535,6.5234,6.98,7.2733,7.2588,6.823,6.7561,7.2476,6.6948,6.6415,7.2828,6.7101,6.4855,6.712,6.1604,5.967,6.1644,0.0,0.0,0.0,0.0,0.0,0.0,0.0,0.0,0.0,0.0,0.0,0.0,0.0,0.0,0.0,0.0,0.0,0.0,0.0,0.0,0.0,0.0,0.0,0.0,3.0822,3.4613,3.6824,4.0996,4.3643,4.345,4.6306,4.9179,5.1591,5.4305,5.6648,5.8695,5.826,5.858,5.9913,5.8885,5.9002,6.0429,6.0457,6.0171,5.9595,6.0514,6.0656,6.013,6.0467,6.0635,6.0635,6.0635,6.0635,6.0605,6.0069,5.9255,5.8286,5.8103,5.7483,5.6881,5.7978,5.7867,5.7269,5.8397,5.8777,5.8865,5.9272,6.0552,6.1949,6.2413,6.3751,6.5118,6.5118,6.5408,6.5788,6.5788,6.6137,6.6426,6.6426,6.6426,6.6426,6.6426,6.6426,6.6543,6.6979,6.6048,6.5444,6.6377,6.5739,6.5445,6.6405,6.5004,6.4478,6.6195,6.7153,6.8026,6.8901,6.9742,7.0265,7.0265,6.9451,6.9335,7.0175,6.9044,6.8946,7.0329,6.8305,6.8033,6.9852,6.7988,6.3588,5.6581,0.0,0.0,0.0,0.0,0.0,0.0,0.0,0.0,0.0,0.0,0.0,0.0,0.0,0.0,0.0,0.0,0.0,0.0,0.0,0.0,0.0,0.0,0.0,0.0,0.0,0.0,3.4457,3.8468,0.0,3.9719,4.2612,4.4837,4.5567,4.8274,5.1286,5.4594,5.476,5.5982,5.8574,5.8688,5.9068,5.9913,5.9913,6.0117,6.0525,6.0525,6.0787,6.1252,6.1252,6.1252,6.1252,6.1252,6.1252,6.1164,6.0291,5.9303,5.8179,5.5673,5.4198,5.3592,5.4685,5.4553,5.4203,5.6689,5.7524,5.7524,5.7524,5.8894,6.0332,5.9206,6.0001,6.0917,5.9165,5.9648,6.062,6.0402,6.1366,6.2529,6.2936,6.3024,6.3169,6.3634,6.3722,6.3489,6.2616,6.2093,6.2255,6.3759,6.5071,6.6117,6.6566,6.7329,6.809,6.876,6.852,6.8652,6.9476,6.8829,6.8328,6.8328,6.8658,6.8523,6.7677,6.8872,6.9211,6.8477,6.8842,6.9346,6.9888,6.7906,6.2612,0.0,0.0,0.0,0.0,0.0,0.0,0.0,0.0,0.0,0.0,0.0,0.0,0.0,0.0,0.0,0.0,0.0,0.0,0.0,0.0,0.0,0.0,0.0,0.0,0.0,0.0,0.0,3.3166,3.7058,0.0,0.0,0.0,0.0,3.8765,3.9477,4.2597,4.875,4.9128,5.1565,5.6768,5.6942,5.7117,5.7437,5.7437,5.8048,5.9214,5.9268,5.9936,6.1132,6.1132,6.1132,6.1132,6.1076,6.1048,6.0845,5.8217,5.7108,5.6732,5.3053,5.1449,5.1193,5.1193,5.1164,5.1653,5.5359,5.6839,5.7069,5.6985,5.7771,5.816,5.5217,5.4088,0.0,0.0,4.9467,5.2134,5.1835,5.4452,5.7574,5.9053,5.9266,5.9563,6.0841,6.1104,6.0262,5.7579,5.7987,5.7842,5.4884,0.0,6.4644,5.9485,6.4402,6.7825,6.5532,6.6232,6.6942,6.6882,6.6822,6.6762,6.6762,6.5709,6.5001,6.5001,6.6253,6.7092,6.7322,6.834,6.8126,6.6622,6.1158,0.0,0.0,0.0,0.0,0.0,0.0,0.0,0.0,0.0,0.0,0.0,0.0,0.0,0.0,0.0,0.0,0.0,0.0,0.0,0.0,0.0,0.0,0.0,0.0,0.0,0.0,2.2037,2.5127,2.8664,2.9835,3.0113,0.0,0.0,0.0,0.0,0.0,0.0,3.9626,4.0706,4.3587,4.8686,4.8882,5.1187,5.6044,5.6098,5.6738,5.799,5.8896,5.9481,5.9783,5.9783,5.9783,5.9732,5.8854,5.8513,5.813,5.3403,5.1231,5.0873,5.0638,4.8011,4.4319,4.4319,4.3728,4.3016,4.4046,4.7179,5.0552,4.9511,5.0091,5.1038,5.0122,0.0,0.0,0.0,0.0,4.6849,5.1052,5.2221,5.3722,5.9283,5.9247,5.8312,5.9517,5.9088,5.6988,5.1892,5.1107,5.129,5.114,5.1284,0.0,6.064,6.1438,6.2528,6.61,6.6001,6.5211,6.4272,6.3304,6.2719,6.2719,6.3313,6.3693,6.3693,6.4885,6.5647,6.571,6.489,6.2259,5.7659,0.0,0.0,0.0,0.0,0.0,0.0,0.0,0.0,0.0,0.0,0.0,0.0,0.0,0.0,0.0,0.0,0.0,0.0,0.0,0.0,0.0,0.0,0.0,0.0,0.0,0.0,0.0,1.873,2.1797,2.5527,2.6,2.5507,0.0,0.0,0.0,0.0,0.0,0.0,0.0,0.0,0.0,4.1871,4.2187,4.4956,5.052,5.0745,5.2361,5.5319,5.577,5.6505,5.7475,5.7017,5.7066,5.7366,5.4518,5.2673,5.1447,4.8342,4.6525,4.5413,0.0,0.0,0.0,0.0,3.6053,3.5659,3.7338,4.0868,4.428,4.2183,0.0,0.0,0.0,0.0,0.0,0.0,0.0,4.2785,4.6405,4.9195,5.2211,5.6723,5.6355,5.531,5.6558,5.2605,4.7671,4.3599,4.3355,4.3554,4.2632,4.488,0.0,0.0,0.0,5.9547,6.2128,6.4025,6.5084,6.4981,6.4308,6.3647,6.3073,6.317,6.274,6.1539,6.3256,6.3429,6.1621,5.9983,5.6422,0.0,0.0,0.0,0.0,0.0,0.0,0.0,0.0,0.0,0.0,0.0,0.0,0.0,0.0,0.0,0.0,0.0,0.0,0.0,0.0,0.0,0.0,0.0,0.0,0.0,0.0,0.0,0.0,0.0,1.9035,2.3153,0.0,0.0,0.0,0.0,0.0,0.0,0.0,0.0,0.0,0.0,0.0,0.0,0.0,3.8217,4.2713,4.3069,4.5697,5.0557,5.0225,5.1283,5.3372,5.2483,5.2575,5.3108,4.7819,0.0,4.3448,4.2356,0.0,0.0,0.0,0.0,0.0,0.0,0.0,0.0,0.0,0.0,0.0,0.0,0.0,0.0,0.0,0.0,0.0,0.0,0.0,0.0,0.0,0.0,5.0056,5.186,5.1512,5.0773,5.0761,4.3474,3.6386,3.4577,3.5328,3.5266,0.0,0.0,0.0,0.0,0.0,0.0,5.6369,6.1592,6.5748,6.6624,6.6903,6.6548,6.5403,6.4122,6.2274,5.9738,6.0941,6.0033,5.6274,5.4472,0.0,0.0,0.0,0.0,0.0,0.0,0.0,0.0,0.0,0.0,0.0,0.0,0.0,0.0,0.0,0.0,0.0,0.0,0.0,0.0,0.0,0.0,0.0,0.0,0.0,0.0,0.0,0.0,0.0,0.0,0.0,0.0,0.0,0.0,0.0,0.0,0.0,0.0,0.0,0.0,0.0,0.0,0.0,0.0,0.0,0.0,0.0,0.0,0.0,0.0,4.1166,4.2438,4.3963,4.3782,4.3799,4.357,3.6341,3.5972,3.9916,3.3127,0.0,0.0,0.0,0.0,0.0,0.0,0.0,0.0,0.0,0.0,0.0,0.0,0.0,0.0,0.0,0.0,0.0,0.0,0.0,0.0,0.0,0.0,3.9648,4.41,4.5543,4.402,3.7028,0.0,0.0,0.0,0.0,0.0,0.0,0.0,0.0,0.0,0.0,0.0,5.4363,6.18,6.6113,6.409,6.4944,6.5551,6.5328,6.4012,6.2582,6.1153,5.6721,5.3433,0.0,0.0,0.0,0.0,0.0,0.0,0.0,0.0,0.0,0.0,0.0,0.0,0.0,0.0,0.0,0.0,0.0,0.0,0.0,0.0,0.0,0.0,0.0,0.0,0.0,0.0,0.0,0.0,0.0,0.0,0.0,0.0,0.0,0.0,0.0,0.0,0.0,0.0,0.0,0.0,0.0,0.0,0.0,0.0,0.0,0.0,0.0,0.0,0.0,0.0,0.0,0.0,0.0,0.0,0.0,0.0,0.0,0.0,3.3747,3.044,0.0,0.0,0.0,0.0,0.0,0.0,0.0,0.0,0.0,0.0,0.0,0.0,0.0,0.0,0.0,0.0,0.0,0.0,0.0,0.0,0.0,0.0,0.0,0.0,0.0,0.0,0.0,0.0,0.0,0.0,0.0,0.0,0.0,0.0,0.0,0.0,0.0,0.0,0.0,0.0,5.153,6.0192,6.5842,6.5247,6.5151,6.4846,6.4145,6.3452,6.1273,5.7055,5.3962,0.0,0.0,0.0,0.0,0.0,0.0,0.0,0.0,0.0,0.0,0.0,0.0,0.0,0.0,0.0,0.0,0.0,0.0,0.0,0.0,0.0,0.0,0.0,0.0,0.0,0.0,0.0,0.0,0.0,0.0,0.0,0.0,0.0,0.0,0.0,0.0,0.0,0.0,0.0,0.0,0.0,0.0,0.0,0.0,0.0,0.0,0.0,0.0,0.0,0.0,0.0,0.0,0.0,0.0,0.0,0.0,0.0,0.0,0.0,3.2033,2.6336,0.0,0.0,0.0,0.0,0.0,0.0,0.0,0.0,0.0,0.0,0.0,0.0,0.0,0.0,0.0,0.0,0.0,0.0,0.0,0.0,0.0,0.0,0.0,0.0,0.0,0.0,0.0,0.0,0.0,0.0,0.0,0.0,0.0,0.0,0.0,0.0,0.0,0.0,0.0,0.0,4.812,5.8079,6.5232,6.6075,6.5397,6.4512,6.3492,6.2899,5.9669,5.2871,5.06,0.0,0.0,0.0,0.0,0.0,0.0,0.0,0.0,0.0,0.0,0.0,0.0,0.0,0.0,0.0,0.0,0.0,0.0,0.0,0.0,0.0,0.0,0.0,0.0,0.0,0.0,0.0,0.0,0.0,0.0,0.0,0.0,0.0,0.0,0.0,0.0,0.0,0.0,0.0,0.0,0.0,0.0,0.0,0.0,0.0,0.0,0.0,0.0,0.0,0.0,0.0,0.0,0.0,0.0,0.0,0.0,0.0,0.0,0.0,0.0,0.0,0.0,0.0,0.0,0.0,0.0,0.0,0.0,0.0,0.0,0.0,0.0,0.0,0.0,0.0,0.0,0.0,0.0,0.0,0.0,0.0,0.0,0.0,0.0,0.0,0.0,0.0,0.0,0.0,0.0,0.0,0.0,0.0,0.0,0.0,0.0,0.0,0.0,0.0,0.0,0.0,4.3899,5.6206,6.4476,6.3299,6.4213,6.4875,6.4739,6.2564,5.8663,5.2666,0.0,0.0,0.0,0.0,0.0,0.0,0.0,0.0,0.0,0.0,0.0,0.0,0.0,0.0,0.0,0.0,0.0,0.0,0.0,0.0,0.0,0.0,0.0,0.0,0.0,0.0,0.0,0.0,0.0,0.0,0.0,0.0,0.0,0.0,0.0,0.0,0.0,0.0,0.0,0.0,0.0,0.0,0.0,0.0,0.0,0.0,0.0,0.0,0.0,0.0,0.0,0.0,0.0,0.0,0.0,0.0,0.0,0.0,0.0,0.0,0.0,0.0,0.0,0.0,0.0,0.0,0.0,0.0,0.0,0.0,0.0,0.0,0.0,0.0,0.0,0.0,0.0,0.0,0.0,0.0,0.0,0.0,0.0,0.0,0.0,0.0,0.0,0.0,0.0,0.0,0.0,0.0,0.0,0.0,0.0,0.0,0.0,0.0,0.0,0.0,0.0,0.0,4.442,5.573,6.3411,6.2839,6.2523,6.2372,6.2372,6.0623,5.6262,4.8686,0.0,0.0,0.0,0.0,0.0,0.0,0.0,0.0,0.0,0.0,0.0,0.0,0.0,0.0,0.0,0.0,0.0,0.0,0.0,0.0,0.0,0.0,0.0,0.0,0.0,0.0,0.0,0.0,0.0,0.0,0.0,0.0,0.0,0.0,0.0,0.0,0.0,0.0,0.0,0.0,0.0,0.0,0.0,0.0,0.0,0.0,0.0,0.0,0.0,0.0,0.0,0.0,0.0,0.0,0.0,0.0,0.0,0.0,0.0,0.0,0.0,0.0,0.0,0.0,0.0,0.0,0.0,0.0,0.0,0.0,0.0,0.0,0.0,0.0,0.0,0.0,0.0,0.0,0.0,0.0,0.0,0.0,0.0,0.0,0.0,0.0,0.0,0.0,0.0,0.0,0.0,0.0,0.0,0.0,0.0,0.0,0.0,0.0,0.0,0.0,0.0,0.0,4.3908,5.4713,6.2181,6.2181,6.124,6.0484,6.0037,5.743,5.2495,4.4702,0.0,0.0,0.0,0.0,0.0,0.0,0.0,0.0,0.0,0.0,0.0,0.0,0.0,0.0,0.0,0.0,0.0,0.0,0.0,0.0,0.0,0.0,0.0,0.0,0.0,0.0,0.0,0.0,0.0,0.0,0.0,0.0,0.0,0.0,0.0,0.0,0.0,0.0,0.0,0.0,0.0,0.0,0.0,0.0,0.0,0.0,0.0,0.0,0.0,0.0,0.0,0.0,0.0,0.0,0.0,0.0,0.0,0.0,0.0,0.0,0.0,0.0,0.0,0.0,0.0,0.0,0.0,0.0,0.0,0.0,0.0,0.0,0.0,0.0,0.0,0.0,0.0,0.0,0.0,0.0,0.0,0.0,0.0,0.0,0.0,0.0,0.0,0.0,0.0,0.0,0.0,0.0,0.0,0.0,0.0,0.0,0.0,0.0,0.0,0.0,0.0,0.0,4.1059,5.2623,6.0662,6.0662,6.0648,6.007,5.8638,5.2979,4.7119,0.0,0.0,0.0,0.0,0.0,0.0,0.0,0.0,0.0,0.0,0.0,0.0,0.0,0.0,0.0,0.0,0.0,0.0,0.0,0.0,0.0,0.0,0.0,0.0,0.0,0.0,0.0,0.0,0.0,0.0,0.0,0.0,0.0,0.0,0.0,0.0,0.0,0.0,0.0,0.0,0.0,0.0,0.0,0.0,0.0,0.0,0.0,0.0,0.0,0.0,0.0,0.0,0.0,0.0,0.0,0.0,0.0,0.0,0.0,0.0,0.0,0.0,0.0,0.0,0.0,0.0,0.0,0.0,0.0,0.0,0.0,0.0,0.0,0.0,0.0,0.0,0.0,0.0,0.0,0.0,0.0,0.0,0.0,0.0,0.0,0.0,0.0,0.0,0.0,0.0,0.0,0.0,0.0,0.0,0.0,0.0,0.0,0.0,0.0,0.0,0.0,0.0,0.0,4.0731,4.8337,5.4777,5.8755,5.8313,5.7524,5.7096,5.429,4.8847,4.0161,0.0,0.0,0.0,0.0,0.0,0.0,0.0,0.0,0.0,0.0,0.0,0.0,0.0,0.0,0.0,0.0,0.0,0.0,0.0,0.0,0.0,0.0,0.0,0.0,0.0,0.0,0.0,0.0,0.0,0.0,0.0,0.0,0.0,0.0,0.0,0.0,0.0,0.0,0.0,0.0,0.0,0.0,0.0,0.0,0.0,0.0,0.0,0.0,0.0,0.0,0.0,0.0,0.0,0.0,0.0,0.0,0.0,0.0,0.0,0.0,0.0,0.0,0.0,0.0,0.0,0.0,0.0,0.0,0.0,0.0,0.0,0.0,0.0,0.0,0.0,0.0,0.0,0.0,0.0,0.0,0.0,0.0,0.0,0.0,0.0,0.0,0.0,0.0,0.0,0.0,0.0,0.0,0.0,0.0,0.0,0.0,0.0,0.0,0.0,0.0,0.0,0.0,0.0,4.7623,5.4234,5.7374,5.6899,5.616,5.5533,5.2932,4.7544,3.8629,0.0,0.0,0.0,0.0,0.0,0.0,0.0,0.0,0.0,0.0,0.0,0.0,0.0,0.0,0.0,0.0,0.0,0.0,0.0,0.0,0.0,0.0,0.0,0.0,0.0,0.0,0.0,0.0,0.0,0.0,0.0,0.0,0.0,0.0,0.0,0.0,0.0,0.0,0.0,0.0,0.0,0.0,0.0,0.0,0.0,0.0,0.0,0.0,0.0,0.0,0.0,0.0,0.0,0.0,0.0,0.0,0.0,0.0,0.0,0.0,0.0,0.0,0.0,0.0,0.0,0.0,0.0,0.0,0.0,0.0,0.0,0.0,0.0,0.0,0.0,0.0,0.0,0.0,0.0,0.0,0.0,0.0,0.0,0.0,0.0,0.0,0.0,0.0,0.0,0.0,0.0,0.0,0.0,0.0,0.0,0.0,0.0,0.0,0.0,0.0,0.0,0.0,0.0,4.9042,5.7144,5.6274,5.6127,5.5485,5.4019,4.9774,4.4175,3.7031,3.1115,0.0,0.0,0.0,0.0,0.0,0.0,0.0,0.0,0.0,0.0,0.0,0.0,0.0,0.0,0.0,0.0,0.0,0.0,0.0,0.0,0.0,0.0,0.0,0.0,0.0,0.0,0.0,0.0,0.0,0.0,0.0,0.0,0.0,0.0,0.0,0.0,0.0,0.0,0.0,0.0,0.0,0.0,0.0,0.0,0.0,0.0,0.0,0.0,0.0,0.0,0.0,0.0,0.0,0.0,0.0,0.0,0.0,0.0,0.0,0.0,0.0,0.0,0.0,0.0,0.0,0.0,0.0,0.0,0.0,0.0,0.0,0.0,0.0,0.0,0.0,0.0,0.0,0.0,0.0,0.0,0.0,0.0,0.0,0.0,0.0,0.0,0.0,0.0,0.0,0.0,0.0,0.0,0.0,0.0,0.0,0.0,0.0,0.0,0.0,0.0,0.0,0.0,4.2884,4.8893,5.4036,5.3593,5.2821,5.2442,5.1358,4.6257,3.5761,3.3726,0.0,0.0,0.0,0.0,0.0,0.0,0.0,0.0,0.0,0.0,0.0,0.0,0.0,0.0,0.0,0.0,0.0,0.0,0.0,0.0,0.0,0.0,0.0,0.0,0.0,0.0,0.0,0.0,0.0,0.0,0.0,0.0,0.0,0.0,0.0,0.0,0.0,0.0,0.0,0.0,0.0,0.0,0.0,0.0,0.0,0.0,0.0,0.0,0.0,0.0,0.0,0.0,0.0,0.0,0.0,0.0,0.0,0.0,0.0,0.0,0.0,0.0,0.0,0.0,0.0,0.0,0.0,0.0,0.0,0.0,0.0,0.0,0.0,0.0,0.0,0.0,0.0,0.0,0.0,0.0,0.0,0.0,0.0,0.0,0.0,0.0,0.0,0.0,0.0,0.0,0.0,0.0,0.0,0.0,0.0,0.0,0.0,0.0,0.0,0.0,0.0,0.0,3.7124,4.3122,5.2097,5.2377,5.19,5.19,5.1292,4.6261,3.5301,3.4081,0.0,0.0,0.0,0.0,0.0,0.0,0.0,0.0,0.0,0.0,0.0,0.0,0.0,0.0,0.0,0.0,0.0,0.0,0.0,0.0,0.0,0.0,0.0,0.0,0.0,0.0,0.0,0.0,0.0,0.0,0.0,0.0,0.0,0.0,0.0,0.0,0.0,0.0,0.0,0.0,0.0,0.0,0.0,0.0,0.0,0.0,0.0,0.0,0.0,0.0,0.0,0.0,0.0,0.0,0.0,0.0,0.0,0.0,0.0,0.0,0.0,0.0,0.0,0.0,0.0,0.0,0.0,0.0,0.0,0.0,0.0,0.0,0.0,0.0,0.0,0.0,0.0,0.0,0.0,0.0,0.0,0.0,0.0,0.0,0.0,0.0,0.0,0.0,0.0,0.0,0.0,0.0,0.0,0.0,0.0,0.0,0.0,0.0,0.0,0.0,0.0,0.0,0.0,3.9362,4.8948,5.0929,5.1619,5.1748,5.0533,4.5355,3.5005,0.0,0.0,0.0,0.0,0.0,0.0,0.0,0.0,0.0,0.0,0.0,0.0,0.0,0.0,0.0,0.0,0.0,0.0,0.0,0.0,0.0,0.0,0.0,0.0,0.0,0.0,0.0,0.0,0.0,0.0,0.0,0.0,0.0,0.0,0.0,0.0,0.0,0.0,0.0,0.0,0.0,0.0,0.0,0.0,0.0,0.0,0.0,0.0,0.0,0.0,0.0,0.0,0.0,0.0,0.0,0.0,0.0,0.0,0.0,0.0,0.0,0.0,0.0,0.0,0.0,0.0,0.0,0.0,0.0,0.0,0.0,0.0,0.0,0.0,0.0,0.0,0.0,0.0,0.0,0.0,0.0,0.0,0.0,0.0,0.0,0.0,0.0,0.0,0.0,0.0,0.0,0.0,0.0,0.0,0.0,0.0,0.0,0.0,0.0,0.0,0.0,0.0,0.0,0.0,3.8226,4.0938,4.6523,5.0356,5.1035,5.0248,4.5012,3.3811,0.0,0.0,0.0,0.0,0.0,0.0,0.0,0.0,0.0,0.0,0.0,0.0,0.0,0.0]}],[{"header":{"parameterUnit":"kt","parameterCategory":2,"dx":1,"dy":1,"la1":29.285339999999998,"la2":30.599998999999997,"lo1":-89.70041500000002,"lo2":-87.6738589999976,"nx":112,"ny":82,"refTime":"2022-10-29T06:00:00:Z","depth":0,"parameterNumber":2,"parameterNumberName":"V-component_of_WINDS"},"data":[8.4248,8.3268,8.152,7.861,7.335,0.0,6.4668,0.0,5.2184,0.0,0.0,0.0,0.0,0.0,0.0,0.0,0.0,0.0,0.0,0.0,0.0,0.0,0.0,0.0,0.0,0.0,0.0,0.0,0.0,0.0,0.0,0.0,8.8296,9.8446,9.978,10.1785,10.4867,10.7049,10.8584,10.9632,11.1737,11.2736,11.2736,11.2736,11.2736,11.2736,11.2736,11.2736,11.2736,11.2736,11.2736,11.2736,11.2736,11.2736,11.2736,11.2736,11.2736,11.2736,11.2736,11.2736,11.2736,11.2736,11.2736,11.2736,11.2736,11.2736,11.2736,11.2736,11.2736,11.2736,11.2736,11.2736,11.2736,11.2736,11.2736,11.2736,11.2736,11.2736,11.2736,11.2736,11.2736,11.2736,11.2736,11.2736,11.2736,11.2736,11.2736,11.2736,11.2736,11.2736,11.2736,11.2736,11.2736,11.2736,11.2736,11.7124,11.8365,11.4898,11.521,11.51,11.4076,11.3114,11.2318,11.1789,11.2318,11.2318,11.1789,11.2318,11.2548,11.2548,11.2548,11.2548,7.4747,7.4257,7.3348,7.0838,0.0,0.0,0.0,0.0,0.0,0.0,0.0,0.0,0.0,0.0,0.0,0.0,0.0,0.0,0.0,0.0,0.0,0.0,0.0,0.0,0.0,0.0,0.0,0.0,0.0,0.0,0.0,8.4977,9.1181,9.8581,10.034,10.2624,10.5708,10.7299,10.8848,11.0431,11.1987,11.2736,11.2736,11.2736,11.2736,11.2736,11.2736,11.2736,11.2736,11.2736,11.2736,11.2736,11.2736,11.2736,11.2808,11.3343,11.3557,11.3557,11.3557,11.32,11.2736,11.2736,11.2736,11.2736,11.2736,11.2736,11.2736,11.2736,11.2736,11.2736,11.2736,11.2736,11.2736,11.2736,11.2736,11.2736,11.2736,11.2736,11.2736,11.2736,11.2736,11.2736,11.2736,11.2736,11.2736,11.2736,11.2736,11.2736,11.2736,11.2736,11.2736,11.2736,11.2736,11.2736,11.2736,11.8457,11.9962,11.5026,11.4743,11.4543,11.4109,11.308,11.2548,11.2548,11.2548,11.2548,11.2548,11.2548,11.2548,11.2548,11.2548,11.2548,0.0,0.0,0.0,6.3318,0.0,0.0,0.0,0.0,4.1821,0.0,0.0,0.0,0.0,0.0,0.0,0.0,0.0,0.0,0.0,0.0,0.0,0.0,0.0,0.0,0.0,0.0,0.0,0.0,0.0,0.0,8.4896,8.8134,9.2719,9.8818,10.0537,10.281,10.5779,10.7335,10.8905,11.0502,11.2023,11.2736,11.2736,11.2736,11.2736,11.2736,11.2736,11.2736,11.2736,11.2736,11.2736,11.2736,11.2736,11.2808,11.3057,11.4604,11.5175,11.5175,11.5175,11.4105,11.2808,11.2736,11.2736,11.2736,11.2736,11.2736,11.2736,11.2736,11.2736,11.2736,11.2736,11.2736,11.2736,11.2736,11.2736,11.2736,11.2736,11.2736,11.2736,11.2736,11.2736,11.2736,11.2736,11.2736,11.2736,11.2736,11.2736,11.2736,11.2736,11.2736,11.2736,11.2736,11.2736,11.2808,11.3022,11.8599,11.9433,11.3254,11.2654,11.2548,11.2548,11.2548,11.2548,11.2548,11.2548,11.2548,11.2548,11.2548,11.2548,11.2548,11.2548,11.2548,5.8409,0.0,0.0,0.0,0.0,0.0,0.0,0.0,0.0,0.0,0.0,0.0,0.0,0.0,0.0,0.0,0.0,3.9466,0.0,0.0,0.0,0.0,0.0,0.0,0.0,0.0,0.0,0.0,0.0,8.4296,8.785,9.3339,9.7648,10.0388,10.2007,10.4323,10.7406,10.787,10.944,11.2094,11.2522,11.2736,11.2736,11.2736,11.2736,11.2736,11.2736,11.2736,11.2736,11.2736,11.2736,11.2736,11.2736,11.4128,11.6197,11.6602,11.6744,11.6744,11.6744,11.5746,11.4248,11.3129,11.2736,11.2736,11.2736,11.2736,11.2736,11.2736,11.2736,11.2736,11.2736,11.2736,11.2736,11.2736,11.2736,11.2736,11.2736,11.2736,11.2736,11.2736,11.2736,11.2736,11.2736,11.2736,11.2736,11.2736,11.2736,11.2736,11.2736,11.2736,11.2736,11.2736,11.2736,11.4591,11.9134,12.1096,12.1334,11.9543,11.5097,11.2548,11.2548,11.2548,11.2548,11.2548,11.2548,11.2548,11.2548,11.2548,11.2548,11.2548,11.2548,11.2548,0.0,0.0,0.0,0.0,0.0,0.0,4.1762,0.0,3.8748,0.0,0.0,0.0,0.0,0.0,0.0,0.0,4.3465,0.0,0.0,0.0,0.0,0.0,0.0,0.0,7.6141,7.8254,8.1449,8.7221,8.8153,8.9348,9.1477,9.5735,9.8555,9.9403,10.2064,10.4715,10.724,10.8452,11.0275,11.2736,11.2736,11.2736,11.2736,11.2736,11.2736,11.2772,11.345,11.3735,11.3771,11.4449,11.4698,11.4698,11.4698,11.5804,11.7481,11.8159,11.8373,11.8373,11.8373,11.7802,11.6744,11.5234,11.427,11.3592,11.295,11.2736,11.2736,11.2736,11.2736,11.2736,11.2736,11.2736,11.2736,11.2736,11.2736,11.2736,11.2736,11.2736,11.2736,11.2736,11.2736,11.2736,11.2736,11.2736,11.2736,11.2736,11.2736,11.2736,11.2736,11.2736,11.2736,11.2736,11.5091,11.81,12.1774,12.2059,12.2059,12.2059,11.6114,11.2548,11.2548,11.2548,11.2548,11.2548,11.2548,11.2548,11.2548,11.2548,11.2548,11.2548,11.2548,11.2548,0.0,0.0,0.0,0.0,3.8862,0.0,0.0,0.0,3.7821,3.9949,0.0,0.0,0.0,0.0,0.0,0.0,0.0,0.0,4.838,5.695,6.2852,6.1225,6.141,6.5935,7.6942,8.6653,9.2239,9.2214,9.3836,9.4952,9.5081,9.633,9.7175,9.7436,10.127,10.4184,10.5854,10.8536,11.0774,11.2498,11.2326,11.2397,11.2747,11.2747,11.2854,11.3103,11.4643,11.5353,11.546,11.6851,11.741,11.7422,11.7779,11.7945,11.8123,11.9479,12.0014,12.0014,12.0014,11.9895,11.9479,11.8123,11.6602,11.5068,11.3699,11.3164,11.2986,11.2808,11.2736,11.2736,11.2736,11.2736,11.2736,11.2736,11.2736,11.2736,11.2736,11.2736,11.2736,11.2736,11.2736,11.2736,11.2736,11.2736,11.2986,11.3699,11.3806,11.3806,11.3806,11.3806,11.3806,11.3806,11.8742,12.2059,12.2059,12.2059,12.1779,12.1046,11.5673,11.2548,11.2548,11.2548,11.2548,11.2548,11.2548,11.2548,11.2548,11.2548,11.2548,11.2548,11.2548,11.2548,0.0,0.0,0.0,0.0,0.0,3.6575,0.0,0.0,0.0,0.0,0.0,0.0,0.0,0.0,0.0,5.0065,0.0,0.0,0.0,6.8163,0.0,8.1017,8.0243,8.1487,8.6305,8.9768,9.2297,9.3707,9.4451,9.5375,9.6551,9.6951,9.7705,9.8895,10.0859,10.2632,10.4229,10.595,10.8218,11.0975,10.9716,11.0404,11.273,11.2865,11.3534,11.472,11.6262,11.6958,11.6958,11.7303,11.741,11.7636,12.0169,12.1167,12.1203,12.1488,12.1631,12.1631,12.1631,12.0799,11.9681,11.9372,11.823,11.6887,11.6566,11.5603,11.4355,11.3093,11.2736,11.2736,11.2736,11.2736,11.2736,11.2736,11.2736,11.2736,11.2736,11.2736,11.2736,11.2736,11.2736,11.2736,11.2736,11.2736,11.4449,11.9491,12.0276,12.0276,12.0276,12.0276,12.0276,12.0276,12.1346,12.2059,12.2059,12.2059,11.9848,11.4707,11.3219,11.2548,11.2548,11.2548,11.2548,11.2548,11.2548,11.2548,11.2548,11.2548,11.2548,11.2548,11.2548,11.2548,0.0,0.0,0.0,3.6891,0.0,0.0,0.0,4.1071,4.2387,5.2682,5.0837,4.9517,5.6607,5.6031,5.5364,5.8249,6.242,6.573,6.6817,7.4725,8.12,8.34,8.24,8.3398,8.8065,8.9972,9.1285,9.2353,9.3383,9.4589,9.6042,9.6171,9.6543,9.7262,10.0135,10.2015,10.2785,10.5666,10.8301,11.0592,10.9792,11.0586,11.2741,11.2795,11.3645,11.5127,11.6725,11.7857,11.8623,11.9443,11.9741,11.9812,12.0595,12.1385,12.2059,12.2059,12.2059,12.2059,12.2059,12.156,12.0906,12.0906,11.9871,11.8587,11.8587,11.7481,11.6067,11.5305,11.5091,11.5091,11.5091,11.5091,11.5091,11.5091,11.5091,11.5091,11.5091,11.5091,11.4591,11.3057,11.5269,11.7445,11.7445,11.7445,11.8457,12.1595,12.2059,12.2059,12.2059,12.2059,12.2059,12.2059,12.2059,12.2059,12.2059,11.9123,11.5924,11.2727,11.2548,11.2548,11.2548,11.2548,11.2548,11.2548,11.2548,11.2548,11.2548,11.2548,11.2548,11.2548,11.2548,11.2548,3.6343,3.5465,3.494,0.0,0.0,0.0,4.4125,4.357,4.5118,0.0,5.6867,5.6755,6.284,6.4235,6.4529,6.4832,7.0118,7.5351,7.8659,7.954,8.0406,8.1769,8.1271,8.2927,8.8248,9.0161,9.1182,9.1389,9.2683,9.397,9.5185,9.5251,9.5251,9.5251,9.9272,10.142,10.142,10.5688,10.8622,11.0146,11.0164,11.1028,11.2699,11.2699,11.3595,11.5147,11.7034,11.8589,11.9866,12.1122,12.162,12.1545,12.0562,12.0995,12.2059,12.2059,12.2059,12.2059,12.2059,12.2059,12.2059,12.2059,12.1203,12.0192,12.0192,11.9087,11.7874,11.7874,11.766,11.741,11.741,11.741,11.741,11.741,11.741,11.7588,11.8171,11.8325,11.7599,11.5055,11.8635,12.2059,12.2059,12.2059,12.2059,12.2059,12.2059,12.2059,12.2059,12.2059,12.2059,12.2059,12.2059,12.2059,12.2059,11.6205,11.2548,11.2548,11.2548,11.2548,11.2548,11.2548,11.2548,11.2548,11.2548,11.2548,11.2548,11.2548,11.2548,11.2548,11.2548,11.2548,3.483,3.4709,3.494,3.6409,3.6738,0.0,4.1593,4.6111,5.1636,5.9229,6.1098,6.2922,6.8041,6.5519,6.4349,6.9441,7.2434,7.6545,8.365,8.4718,8.5296,8.6857,8.8111,8.9726,9.1812,9.3334,9.4246,9.44,9.4567,9.4833,9.5212,9.5251,9.5251,9.5251,9.8198,9.9775,9.9775,10.4187,10.7111,10.8519,10.8512,10.9942,11.2541,11.2669,11.3536,11.5103,11.8129,11.9611,11.9744,11.992,11.999,12.0132,12.1334,12.1937,12.2059,12.2059,12.2059,12.2059,12.2059,12.2059,12.2059,12.2059,12.1952,12.1809,12.1809,12.0728,11.9479,11.9479,11.848,11.741,11.741,11.741,11.741,11.741,11.741,11.8171,12.0953,12.1549,12.143,12.1108,12.1595,12.2059,12.2059,12.2059,12.2059,12.2059,12.2059,12.2059,12.2059,12.2059,12.2059,12.2059,12.2059,12.2059,12.2059,11.6205,11.2548,11.2548,11.2548,11.2548,11.2548,11.2548,11.2548,11.2548,11.2548,11.2548,11.2548,11.2548,11.2548,11.2548,11.2548,11.2548,3.46,3.5203,3.6189,3.7623,0.0,0.0,4.5409,4.9066,5.41,6.3621,6.6558,6.8988,7.4174,7.4859,7.5128,7.6676,7.8688,8.1649,8.6251,8.7212,8.7962,8.928,9.0142,9.0891,9.1548,9.2895,9.3788,9.3839,9.4612,9.5113,9.5248,9.5251,9.5251,9.5251,9.8868,10.0743,10.0743,10.5181,10.8083,10.9512,10.95,11.0591,11.2566,11.2634,11.3441,11.4967,11.6329,11.7452,11.8311,11.7303,11.7482,11.8339,11.801,11.904,12.0728,12.0728,12.1309,12.2059,12.2059,12.2059,12.2059,12.2059,12.2059,12.2059,12.2059,12.1631,12.112,12.112,12.0632,12.0133,12.0133,12.0133,12.0133,12.0133,12.0133,12.049,12.1809,12.206,12.2073,12.2083,12.2059,12.2059,12.2059,12.2059,12.2059,12.2059,12.2059,12.2059,12.2059,11.8844,11.6515,11.6515,11.6515,11.6515,11.6515,11.4076,11.2548,11.2548,11.2548,11.2548,11.2548,11.2548,11.2548,11.2548,11.2548,11.2548,11.2548,11.2548,11.2548,11.2548,11.2548,11.2548,3.4972,0.0,0.0,0.0,0.0,0.0,5.139,5.481,5.8899,6.6731,7.1074,7.4544,7.801,8.1102,8.2949,8.2688,8.4313,8.6317,8.8422,8.9105,8.9757,9.0592,9.1198,9.1569,9.1569,9.2854,9.3709,0.0,9.4662,9.5251,9.5251,9.5251,9.5415,9.5843,9.9624,10.1893,10.232,10.6659,10.9355,11.0408,11.0803,11.1526,11.2548,11.2548,11.315,11.4243,11.4707,11.5323,11.5994,11.5194,11.5612,11.6645,11.5897,11.7003,11.911,11.911,12.0106,12.141,12.141,12.1694,12.2059,12.2059,12.2059,12.2059,12.2059,12.2059,12.2059,12.2059,12.2059,12.2059,12.2059,12.2059,12.2059,12.2059,12.2059,12.2059,12.2059,12.162,12.1046,12.0458,11.9883,11.9433,11.9433,12.0908,12.2059,12.2059,12.0588,11.9433,11.9433,11.542,11.2548,11.2548,11.2548,11.2548,11.2548,11.2548,11.2548,11.2548,11.2548,11.2548,11.2548,11.2548,11.2548,11.2548,11.2548,11.2548,11.2548,11.2548,11.2548,11.2548,11.2548,11.2548,0.0,0.0,0.0,4.7298,4.9468,5.1423,5.8656,6.4673,6.8367,6.7334,7.3883,7.9453,7.8195,8.0326,8.3183,8.6048,8.7744,8.9196,9.0692,9.0902,9.0907,9.0935,9.2193,9.3052,9.3052,9.4334,9.5185,9.5185,9.5218,9.5251,9.5251,9.5251,9.5876,9.7287,10.015,10.2386,10.3931,10.8205,11.0375,11.0441,11.1822,11.2515,11.2548,11.2548,11.2583,11.2725,11.421,11.4042,11.2797,11.4277,11.4902,11.513,11.6706,11.7406,11.7496,11.7496,11.8454,11.9829,11.9829,12.0805,12.2059,12.2059,12.2059,12.2059,12.2059,12.2059,12.2059,12.2059,12.2059,12.2059,12.2059,12.2059,12.2059,12.2059,12.2059,12.2059,12.2059,12.0484,11.8454,11.6432,11.431,11.2832,11.2832,11.7981,12.2059,12.2059,11.6821,11.2832,11.2832,11.2689,11.2548,11.2548,11.2548,11.2548,11.2548,11.2548,11.2548,11.2548,11.2548,11.2548,11.2548,11.2548,11.2548,11.2548,11.2548,11.2548,11.2548,11.2548,11.2548,11.2548,11.2548,11.2548,3.62,4.0269,4.4908,4.8793,5.4119,5.8807,6.03,6.589,7.0614,7.0121,7.5416,8.0225,8.0718,8.3973,8.6933,8.7952,8.93,9.0418,9.0907,9.1799,9.2394,9.2394,9.3643,9.4531,9.4531,9.4955,9.5251,9.5251,9.5251,9.5251,9.5251,9.6139,9.6862,9.7386,9.9262,10.1925,10.5378,10.9685,11.1822,11.1822,11.2282,11.2548,11.2548,11.2548,11.2548,11.2583,11.3114,11.3044,11.2583,11.3115,11.3324,11.3393,11.3941,11.4806,11.5739,11.5739,11.6764,11.8339,11.9386,12.0106,12.0666,12.1754,12.2059,12.2059,12.2059,12.2059,12.2059,12.2059,12.2059,12.2059,12.2059,12.2059,12.2059,12.2059,12.1284,12.0536,12.0536,11.9165,11.7521,11.6154,11.5263,11.4277,11.2797,11.431,11.5737,11.5737,11.3907,11.2548,11.2548,11.2548,11.2548,11.2548,11.2548,11.2548,11.2548,11.2548,11.2548,11.2548,11.2548,11.2548,11.2548,11.2548,11.2548,11.2548,11.2548,11.2548,11.2548,11.2548,11.2548,11.2548,11.2548,11.2548,3.9533,4.4448,4.9861,5.6026,6.1353,6.5549,6.7205,7.1239,7.4593,7.4593,7.8351,8.1876,8.2823,8.6209,8.914,9.0192,9.1141,9.193,9.2423,9.3311,9.3873,9.3873,9.4692,9.5251,9.5251,9.5251,9.5251,9.5251,9.5251,9.5481,9.5974,9.6862,9.7618,9.8144,9.9558,10.1893,10.5345,10.9619,11.2019,11.2548,11.2548,11.2548,11.2548,11.2548,11.2548,11.2548,11.2548,11.2548,11.2548,11.2548,11.2548,11.2548,11.2548,11.315,11.4042,11.4042,11.5099,11.6645,11.7659,11.8391,11.9082,12.0079,12.0405,12.0405,12.0405,12.0405,12.0405,12.0405,12.0405,12.0405,12.0405,12.0805,12.1223,12.1223,12.0882,12.0132,11.8391,11.7218,11.6117,11.4905,11.4676,11.4243,11.283,11.2548,11.2548,11.2548,11.2548,11.2548,11.2548,11.2548,11.2548,11.2548,11.2548,11.2548,11.2548,11.2548,11.2548,11.2548,11.2548,11.2548,11.2548,11.2548,11.2548,11.2548,11.2548,11.2548,11.2548,11.2548,11.2548,11.2548,11.2548,11.2548,4.5336,4.922,5.4119,6.8048,7.0625,7.1588,7.8614,8.0225,8.0225,8.0324,8.2468,8.4407,8.4572,8.7037,8.9929,9.269,9.3183,9.3676,9.5054,9.5251,9.5251,9.5251,9.5251,9.5251,9.5251,9.5251,9.5251,9.5251,9.5317,9.5941,9.732,9.7517,9.821,9.9593,10.1038,10.255,10.4096,10.8238,11.1033,11.2548,11.2548,11.2548,11.2548,11.2548,11.2548,11.2548,11.2548,11.2548,11.2548,11.2548,11.2548,11.2548,11.2548,11.2548,11.2548,11.2548,11.3463,11.4739,11.4837,11.5929,11.7287,11.7377,11.7406,11.7406,11.7406,11.7406,11.7406,11.7406,11.7406,11.7406,11.7406,11.8517,11.9605,11.9523,12.0666,12.0562,11.5892,11.487,11.441,11.2867,11.2548,11.2548,11.2548,11.2548,11.2548,11.2548,11.2548,11.2548,11.2548,11.2548,11.2548,11.2548,11.2548,11.2548,11.2548,11.2548,11.2548,11.2548,11.2548,11.2548,11.2548,11.2548,11.2548,11.2548,11.2548,11.2548,11.2548,11.2548,11.2548,11.2548,11.2548,11.2548,4.6261,5.66,6.5442,7.0318,7.4439,7.8063,8.1014,8.1672,8.2001,8.306,8.3881,8.5065,8.7267,9.0061,9.2263,9.2986,9.4005,9.4856,9.5218,9.5251,9.5251,9.5251,9.5251,9.5251,9.5251,9.5251,9.5251,9.5251,9.6237,9.7024,9.7386,9.9394,10.0742,10.1104,10.2616,10.4096,10.5542,10.7711,11.008,11.2548,11.2548,11.2548,11.2548,11.2548,11.2548,11.2548,11.2548,11.2548,11.2548,11.2548,11.2548,11.2548,11.2548,11.2548,11.2548,11.2548,11.2797,11.329,11.4476,11.5162,11.5739,11.698,11.7406,11.7406,11.7406,11.7406,11.7406,11.7406,11.7406,11.7406,11.7406,11.7704,11.7699,11.6422,11.7397,11.7934,11.5452,11.487,11.441,11.2867,11.2548,11.2548,11.2548,11.2548,11.2548,11.2548,11.2548,11.2548,11.2548,11.2548,11.2548,11.2548,11.2548,11.2548,11.2548,11.2548,11.2548,11.2548,11.2548,11.2548,11.2548,11.2548,11.2548,11.2548,11.2548,11.2548,11.2548,11.2548,11.2548,11.2548,11.2548,11.2548,4.5998,5.8802,7.0339,7.5054,7.7685,7.9831,8.256,8.2658,8.2625,8.4078,8.5426,8.7004,8.9333,9.1573,9.3315,9.3939,9.4725,9.5251,9.5251,9.5251,9.5251,9.5251,9.581,9.6172,9.6172,9.6763,9.7127,9.7127,9.7881,9.8605,9.9229,10.0775,10.1991,10.2682,10.3537,10.4391,10.5181,10.6627,10.8468,11.0671,11.1921,11.2548,11.2548,11.2548,11.2548,11.2548,11.2548,11.2548,11.2548,11.2548,11.2548,11.2548,11.2548,11.2548,11.2548,11.2548,11.2548,11.2656,11.3532,11.3873,11.4008,11.497,11.5262,11.5262,11.5262,11.5262,11.5262,11.5262,11.5262,11.5262,11.5262,11.5773,11.6054,11.5097,11.618,11.6737,11.4377,11.3873,11.36,11.2725,11.2548,11.2548,11.2548,11.2548,11.2548,11.2548,11.2548,11.2548,11.2548,11.2548,11.2548,11.2548,11.2548,11.2548,11.2548,11.2548,11.2548,11.2548,11.2548,11.2548,11.2548,11.2548,11.2548,11.2548,11.2548,11.2548,11.2548,11.2548,11.2548,11.2548,11.2548,11.2548,4.7146,5.9215,7.1555,8.0094,8.0349,7.9593,8.3717,8.3546,8.2921,8.4374,8.6872,8.9267,9.0681,9.216,9.3578,9.5021,9.5415,9.5547,9.5547,9.5711,9.581,9.581,9.6928,9.7682,9.7682,9.8771,9.9527,9.9527,9.9691,10.0349,10.1597,10.186,10.2616,10.3964,10.3997,10.3997,10.3997,10.5411,10.6759,10.8007,11.0902,11.2348,11.2548,11.2548,11.2548,11.2548,11.2548,11.2548,11.2548,11.2548,11.2548,11.2548,11.2548,11.2548,11.2548,11.2548,11.2548,11.2548,11.2548,11.2548,11.2548,11.2548,11.2548,11.2548,11.2548,11.2548,11.2548,11.2548,11.2548,11.2548,11.2548,11.3532,11.4575,11.4575,11.5675,11.5994,11.3148,11.2548,11.2548,11.2548,11.2548,11.2548,11.2548,11.2548,11.2548,11.2548,11.2548,11.2548,11.2548,11.2548,11.2548,11.2548,11.2548,11.2548,11.2548,11.2548,11.2548,11.2548,11.2548,11.2548,11.2548,11.2548,11.2548,11.2548,11.2548,11.2548,11.2548,11.2548,11.2548,11.2548,11.2548,11.2548,5.698,6.4628,7.2916,8.0382,8.1862,8.2323,8.5546,8.5091,8.444,8.5973,8.7623,8.9267,9.0681,9.216,9.3578,9.5021,9.6237,9.6994,9.6994,9.8046,9.8804,9.8804,9.9001,9.9132,9.9132,9.9395,9.9527,9.9527,10.0612,10.1432,10.1662,10.2912,10.3734,10.3997,10.3997,10.3997,10.3997,10.5411,10.6233,10.6529,10.9422,11.1395,11.2548,11.2548,11.2548,11.2548,11.2548,11.2548,11.2548,11.2548,11.2548,11.2548,11.2548,11.2548,11.2548,11.2548,11.2548,11.2548,11.2548,11.2548,11.2548,11.2548,11.2548,11.2548,11.2548,11.2548,11.2548,11.2548,11.2548,11.2548,11.2548,11.2727,11.2939,11.2939,11.315,11.3219,11.2689,11.2548,11.2548,11.2548,11.2548,11.2548,11.2548,11.2548,11.2548,11.2548,11.2548,11.2548,11.2548,11.2548,11.2548,11.2548,11.2548,11.2548,11.2548,11.2548,11.2548,11.2548,11.2548,11.2548,11.2548,11.2548,11.2548,11.2548,11.2548,11.2548,11.2548,11.2548,11.2548,11.2548,11.2548,11.2548,5.953,6.5405,7.0943,7.8178,8.1106,8.3013,8.6006,8.5486,8.352,8.0521,8.588,9.0324,8.7985,9.1832,9.558,9.6237,9.7553,9.8506,9.8506,9.91,9.9527,9.9527,10.0184,10.0612,10.0612,10.1368,10.1861,10.1861,10.2517,10.2879,10.2879,10.3602,10.3997,10.3997,10.3997,10.3997,10.3997,10.4687,10.5378,10.6134,10.7515,10.9323,11.1395,11.0671,11.0737,11.146,11.2217,11.2548,11.2548,11.2548,11.2548,11.2548,11.2548,11.2548,11.2548,11.2548,11.2548,11.2548,11.2548,11.2548,11.2548,11.2548,11.2548,11.2548,11.2548,11.2548,11.2548,11.2548,11.2548,11.2548,11.2548,11.2548,11.2548,11.2548,11.2548,11.2548,11.2548,11.2548,11.2548,11.2548,11.2548,11.2548,11.2548,11.2548,11.2548,11.2548,11.2548,11.2548,11.2548,11.2548,11.2548,11.2548,11.2548,11.2548,11.2548,11.2548,11.2548,11.2548,11.2548,11.2548,11.2548,11.1822,11.1099,11.0343,11.031,11.031,11.031,11.031,11.031,11.031,11.031,11.031,5.8134,6.4135,6.9397,7.5143,7.9428,8.2783,8.4822,8.4335,8.1843,7.6223,8.4177,9.0981,8.7004,9.1601,9.6333,9.7254,9.8605,9.9625,9.9921,10.0283,10.048,10.048,10.1498,10.2156,10.2156,10.3274,10.3997,10.3997,10.3997,10.3997,10.3997,10.3997,10.3997,10.3997,10.3997,10.3997,10.3997,10.3997,10.4556,10.5707,10.597,10.7318,10.9455,10.8337,10.8599,11.0047,11.146,11.2285,11.2548,11.2548,11.2548,11.2548,11.2548,11.2548,11.2548,11.2548,11.2548,11.2548,11.2548,11.2548,11.2548,11.2548,11.2548,11.2548,11.2548,11.2548,11.2548,11.2548,11.2548,11.2548,11.2548,11.2548,11.2548,11.2548,11.2548,11.2548,11.2548,11.2548,11.2548,11.2548,11.2548,11.2548,11.2548,11.2548,11.2548,11.2548,11.2548,11.2548,11.2548,11.2548,11.2548,11.2548,11.2548,11.2548,11.2548,11.2548,11.2548,11.2548,11.2548,11.2416,11.212,11.0704,10.9387,10.8303,10.827,10.827,10.827,10.827,10.827,10.827,10.827,10.8434,5.3347,6.1799,7.1294,7.1952,7.7192,8.1935,8.0916,8.0587,8.0324,7.9641,8.4697,8.9863,9.1934,9.1897,9.2847,9.6761,9.8605,9.9987,10.1301,10.2715,10.3602,10.3602,10.3701,10.38,10.38,10.3931,10.3997,10.3997,10.3997,10.3997,10.3997,10.3997,10.3997,10.3997,10.3997,10.3997,10.3997,10.3997,10.4063,10.4227,10.5509,10.6299,10.6496,10.6364,10.712,10.8533,10.9981,11.1329,11.2548,11.2548,11.2548,11.2548,11.2548,11.2548,11.2548,11.2548,11.2548,11.2548,11.2548,11.2548,11.2548,11.2548,11.2548,11.2548,11.2548,11.2548,11.2548,11.2548,11.2548,11.2548,11.2548,11.2548,11.2548,11.2548,11.2548,11.2548,11.2548,11.2548,11.2548,11.2548,11.2548,11.2548,11.2548,11.2548,11.2548,11.2548,11.2548,11.2548,11.2548,11.2548,11.2548,11.2548,11.2548,11.2548,11.2548,11.2548,11.2548,11.2548,11.2548,11.1954,11.0671,10.9223,10.8401,10.827,10.827,10.827,10.827,10.827,10.827,10.827,10.827,10.896,5.3709,6.1569,6.9035,6.9934,7.3617,7.7135,7.7431,7.8162,7.8557,7.7694,8.4927,9.0685,8.8286,8.8844,9.1108,9.5383,9.5846,9.7062,10.1104,10.3011,10.3997,10.3997,10.3997,10.3997,10.3997,10.3997,10.3997,10.3997,10.3997,10.3997,10.3997,10.3997,10.3997,10.3997,10.3997,10.3997,10.3997,10.3997,10.3997,10.3997,10.4589,10.4852,10.4852,10.4852,10.5641,10.7022,10.7581,10.8633,11.0047,11.0902,11.1756,11.2548,11.2548,11.2548,11.2548,11.2548,11.2548,11.2548,11.2548,11.2548,11.2548,11.2548,11.2548,11.2548,11.2548,11.2548,11.2548,11.2548,11.2548,11.2548,11.2548,11.2548,11.2548,11.2548,11.2548,11.2548,11.2548,11.2548,11.2548,11.2548,11.2548,11.2548,11.2548,11.2548,11.2548,11.2548,11.2548,11.2548,11.2548,11.2548,11.2548,11.2548,11.1756,11.1263,11.1263,11.0474,10.9981,10.9981,10.9981,10.9323,10.7877,10.7285,10.6594,10.5706,10.5673,10.5673,10.5673,10.5673,10.6134,10.6955,10.5628,10.5782,5.1209,5.8412,6.4443,6.4127,6.8597,7.3419,7.4866,7.4612,7.4547,7.6115,8.4637,9.0324,8.5295,8.5722,8.8281,9.2654,9.2493,9.4136,10.0742,10.2616,10.3471,10.3931,10.3997,10.3997,10.3997,10.3997,10.3997,10.3997,10.3997,10.3997,10.3997,10.3997,10.3997,10.3997,10.3997,10.3997,10.3997,10.3997,10.3997,10.3997,10.3997,10.3997,10.3997,10.3997,10.4556,10.5509,10.597,10.6693,10.7744,10.9192,11.0375,11.1329,11.1756,11.1888,11.1954,11.2416,11.2548,11.2548,11.2548,11.2548,11.2647,11.3039,11.317,11.3269,11.3663,11.3499,11.317,11.317,11.2874,11.2548,11.2548,11.2548,11.2548,11.2548,11.2548,11.2548,11.2548,11.2548,11.2548,11.2548,11.2548,11.2548,11.2548,11.2548,11.2548,11.2548,11.2548,11.2416,11.1954,11.1888,11.1756,11.1329,11.0375,10.9784,10.9784,10.8829,10.827,10.827,10.827,10.7415,10.5575,10.5476,10.5016,10.403,10.4424,10.4622,10.4622,10.5082,10.5805,10.6725,10.4498,10.4244,4.3847,5.0881,5.752,5.3182,6.1898,7.1929,7.3353,6.9189,6.748,7.6133,8.375,8.7985,8.4933,8.325,8.3743,8.8182,8.8905,9.1864,10.0446,10.1695,10.2254,10.3832,10.3997,10.3997,10.3997,10.3997,10.3997,10.3997,10.3997,10.3997,10.3997,10.3997,10.3997,10.3997,10.3997,10.3997,10.3997,10.3997,10.3997,10.3997,10.3997,10.3997,10.3997,10.3997,10.3997,10.4096,10.5509,10.6135,10.6299,10.7712,10.8303,10.8434,10.9882,11.0441,11.0606,11.2055,11.2548,11.2548,11.2548,11.2548,11.2776,11.4222,11.4647,11.4942,11.6359,11.5801,11.4647,11.4647,11.3631,11.2548,11.2548,11.2548,11.2548,11.2548,11.2548,11.2548,11.2548,11.2548,11.2548,11.2548,11.2548,11.2548,11.2548,11.2548,11.2548,11.2548,11.2548,11.2019,11.0606,11.0441,10.9882,10.8467,10.8303,10.8303,10.8303,10.827,10.827,10.827,10.827,10.6988,10.4128,10.403,10.403,10.3997,10.5378,10.6135,10.6101,10.7514,10.8237,10.8203,10.5985,10.5683,4.1704,4.7806,5.4612,5.721,6.101,6.4464,6.5911,7.092,7.4382,7.1151,7.628,8.1376,8.1442,8.2665,8.5157,8.9563,8.9464,9.1141,9.7783,10.0413,10.1827,10.2353,10.3339,10.3997,10.3997,10.3997,10.3997,10.3997,10.3997,10.3997,10.3997,10.3997,10.3997,10.3997,10.3997,10.3997,10.3997,10.3997,10.3997,10.3997,10.3997,10.3997,10.3997,10.3997,10.3997,10.403,10.449,10.4687,10.4852,10.7284,10.827,10.8401,10.9849,10.9817,10.9125,11.0573,11.1099,11.123,11.2219,11.317,11.4091,11.4515,11.5337,11.6261,11.6688,11.6524,11.6162,11.6162,11.5143,11.4025,11.4025,11.4025,11.3795,11.2776,11.2548,11.2548,11.2548,11.1756,11.1099,11.1099,11.031,10.9585,10.9585,10.9585,10.9585,10.9585,10.9585,10.9488,10.8993,10.8927,10.8763,10.8303,10.7416,10.6825,10.6825,10.5904,10.5312,10.5312,10.7185,10.7876,10.6955,10.6922,10.6922,10.6922,10.735,10.6866,10.5343,10.5759,10.578,10.5285,10.3081,10.2823,4.1256,4.6045,5.2081,5.6289,5.6683,5.735,6.2141,6.7671,7.0372,6.5488,7.0103,7.5625,7.7592,8.0049,8.3076,8.7015,8.6884,8.8871,9.6341,9.8901,10.0446,10.1531,10.2517,10.3372,10.3931,10.3997,10.3997,10.3997,10.3997,10.3997,10.3997,10.3997,10.3997,10.3997,10.3997,10.3997,10.3997,10.3997,10.3997,10.3997,10.3997,10.3997,10.3997,10.3997,10.4293,10.4819,10.4819,10.4819,10.4983,10.7317,10.7941,10.7614,10.9026,10.9355,10.9256,11.0671,11.0869,11.0638,11.2019,11.2776,11.3332,11.4942,11.6129,11.705,11.8168,11.8135,11.7708,11.7708,11.6655,11.5274,11.4157,11.3499,11.2674,11.1263,11.0934,11.0934,11.0934,11.0244,10.9619,10.9619,10.8862,10.827,10.827,10.827,10.827,10.827,10.827,10.8073,10.7514,10.7448,10.7251,10.6692,10.5871,10.5312,10.5312,10.4983,10.4819,10.4819,10.6211,10.7381,10.8236,10.6652,10.6193,10.7001,10.6778,10.5991,10.4595,10.5171,10.5213,10.4748,10.2523,10.1992,4.175,4.4979,4.9649,5.1687,5.0423,5.1157,6.0719,6.0417,5.8316,5.8896,6.4264,6.9688,7.2469,7.4697,7.7407,8.1433,8.2292,8.581,9.5511,9.7044,9.8193,10.0978,10.147,10.2224,10.3833,10.3997,10.3997,10.3997,10.3997,10.3997,10.3997,10.3997,10.3997,10.3997,10.3997,10.3997,10.3997,10.3997,10.3866,10.3569,10.3866,10.3997,10.3931,10.4063,10.4918,10.6266,10.6266,10.6266,10.6397,10.7844,10.7679,10.6561,10.7876,10.9223,11.0573,11.1888,11.1559,11.0638,11.2019,11.1756,11.1395,11.5373,11.6754,11.7346,12.0108,12.0042,11.899,11.899,11.7971,11.6195,11.34,11.1691,11.0343,10.8796,10.8434,10.8401,10.8303,10.8204,10.8106,10.8106,10.804,10.7974,10.7974,10.7974,10.7974,10.7974,10.7974,10.7481,10.6134,10.597,10.5444,10.4128,10.3997,10.3997,10.3997,10.5312,10.6166,10.6163,10.5466,10.5988,10.8018,10.4196,10.2961,10.5015,10.4456,10.4078,10.3917,10.5248,10.5827,10.5623,10.3527,10.2601,3.9299,4.1296,4.5172,5.3285,5.2251,4.9803,5.2215,5.5561,5.5998,4.8553,5.1826,5.6559,5.8336,6.0454,6.6025,7.8564,8.39,8.7788,9.1507,9.3577,9.5531,9.7686,9.9783,10.1842,10.38,10.3997,10.3997,10.3997,10.3997,10.3997,10.3997,10.3997,10.3997,10.3997,10.3997,10.3997,10.3997,10.3997,10.2466,9.9396,10.2534,10.376,10.3301,10.4906,10.6397,10.7744,10.7744,10.7744,10.7876,10.9323,10.9718,10.9455,10.9784,11.0145,11.0441,11.077,11.0704,11.0638,11.2019,11.3039,11.3825,11.4844,11.5932,11.6951,11.7642,11.7642,11.7379,11.7379,11.7116,11.6425,11.465,11.3923,11.3036,11.0507,10.9915,10.9585,10.85,10.7416,10.6627,10.6627,10.5739,10.5016,10.5016,10.5016,10.5016,10.5016,10.5016,10.4885,10.4556,10.449,10.4359,10.403,10.3997,10.3997,10.3997,10.5312,10.6345,10.6841,10.6241,10.6103,10.6605,10.5596,10.5348,10.5834,10.57,10.4791,10.3114,10.3418,10.2701,10.107,10.0549,10.0309,3.8662,4.0204,4.3228,5.0097,4.8296,4.5179,4.6649,4.8023,4.744,4.1942,4.5198,4.9672,5.1854,5.6557,6.2637,7.0432,7.6075,8.0272,8.264,8.7355,9.1098,9.2505,9.6377,9.9894,10.2338,10.2569,10.2569,10.2569,10.347,10.3171,10.1337,10.206,10.2163,10.1236,10.1233,10.1233,10.1233,10.2095,10.0994,9.8032,10.2739,10.4274,10.3115,10.5878,10.791,10.9256,10.9256,10.9256,10.9355,11.0803,11.1,11.0474,11.1132,11.1395,11.1395,11.1395,11.1395,11.1493,11.2285,11.2611,11.2937,11.4252,11.5205,11.5998,11.6623,11.682,11.682,11.682,11.5866,11.4518,11.3104,11.2743,11.2148,10.9946,10.9387,10.9225,10.8434,10.7645,10.6923,10.6299,10.5509,10.4786,10.4128,10.3997,10.3997,10.3997,10.3997,10.3997,10.3997,10.3997,10.3997,10.3997,10.3997,10.426,10.4918,10.5674,10.64,10.7048,10.6519,10.6152,10.6152,10.4173,10.357,10.4591,10.3612,10.2515,10.1336,10.1336,10.0699,9.9507,9.9507,9.9507,3.9122,4.0387,4.2206,4.4734,4.2289,3.9948,4.2616,4.0667,3.8309,3.8309,4.1725,4.5482,4.8026,5.4918,6.0371,6.0804,6.4582,6.8854,7.2725,8.0118,8.5579,8.6743,9.2289,9.7124,9.9863,10.0309,10.0436,10.0436,10.206,10.1613,9.8113,9.9541,9.9654,9.8032,9.7964,9.7695,9.705,9.9188,9.9277,9.7396,10.283,10.448,10.2817,10.6106,10.8385,10.9757,10.9757,10.9757,10.9855,11.1065,11.087,10.9855,11.1098,11.1735,11.202,11.202,11.2267,11.2548,11.2548,11.1756,11.1132,11.3598,11.4351,11.4581,11.5801,11.6162,11.6162,11.6162,11.442,11.2285,11.1033,11.0737,11.0375,10.8927,10.8599,10.8533,10.8303,10.827,10.7908,10.6693,10.6463,10.6068,10.4885,10.4654,10.4654,10.4654,10.4457,10.4326,10.4326,10.4128,10.3997,10.3997,10.4194,10.4654,10.5534,10.6058,10.633,10.6433,10.594,10.55,10.513,10.1527,10.0414,10.2255,10.0459,9.9507,9.9507,9.9507,9.9507,9.9507,9.9507,9.9507,4.0158,4.036,3.9937,4.0425,3.9509,3.86,3.9072,3.8716,3.8309,3.8309,3.892,3.9574,4.0037,4.2865,4.762,5.5307,5.7299,6.0392,6.7642,7.4122,7.9195,8.2088,8.8966,9.4346,9.6531,9.7797,9.8411,9.8411,9.8701,9.8596,9.8032,9.8256,9.8262,9.7964,9.7964,9.632,9.2888,9.5892,9.6463,9.4577,9.9841,10.1942,10.129,10.3607,10.5428,10.6801,10.6801,10.6801,10.6801,10.7021,10.699,10.6833,10.7021,10.8215,10.9775,10.9775,11.0911,11.2548,11.2548,11.2416,11.2318,11.271,11.2874,11.2907,11.314,11.3239,11.3239,11.3239,11.2877,11.2515,11.2285,11.2217,11.1855,11.0441,11.008,10.9749,10.8533,10.827,10.8204,10.7974,10.7941,10.7876,10.7645,10.7613,10.7613,10.7613,10.6594,10.5805,10.5805,10.4753,10.3997,10.3997,10.5082,10.5134,10.3467,10.5545,10.5956,10.3608,10.3363,10.2515,10.0639,9.9887,9.966,10.0022,9.9734,9.9507,9.9507,9.9507,9.9507,9.9507,9.9507,9.9507,3.9567,3.9654,3.9586,4.0075,3.9248,3.8309,3.8309,3.8309,3.8309,3.8309,3.8309,3.8309,3.8309,4.1436,4.4719,4.6918,5.0219,5.4518,6.021,7.0782,7.8665,8.0605,8.6691,9.1667,9.4089,9.486,9.5495,9.6228,9.7324,9.7012,9.481,9.5697,9.5815,9.476,9.469,9.3783,9.1962,9.5184,9.5839,9.3967,10.0052,10.2198,10.0957,10.3826,10.5481,10.6152,10.6152,10.6152,10.6152,10.6152,10.6152,10.6152,10.6152,10.6725,10.7558,10.7558,10.8215,10.9055,10.9055,10.9807,11.0947,11.216,11.1735,11.1016,11.2195,11.1699,11.1016,11.2195,11.2548,11.2548,11.2548,11.2548,11.2384,11.1724,11.1559,11.1362,11.0737,11.0573,11.0375,10.9552,10.9455,10.919,10.8401,10.827,10.827,10.827,10.7711,10.7318,10.7318,10.5644,10.4499,10.4499,10.4028,10.3648,10.3471,10.4306,10.3709,10.1188,10.1025,10.0594,9.9552,9.9507,9.9507,9.9507,9.9507,9.9507,9.9507,9.9507,9.9507,9.9507,9.9507,9.9507,4.0942,0.0,4.2296,4.4368,4.2758,4.0617,0.0,3.942,3.8309,3.8309,3.8309,3.8309,3.8309,4.1463,4.3538,4.1832,4.5175,4.9838,5.514,6.6366,7.4954,7.7345,8.2809,8.7329,8.9774,9.134,9.2765,9.4079,9.5658,9.5207,9.2101,9.3364,9.3498,9.1975,9.1962,9.1962,9.1962,9.4719,9.537,9.3996,9.9762,10.1639,10.021,10.3215,10.4591,10.4591,10.4591,10.4591,10.4591,10.4591,10.4591,10.4591,10.4591,10.4882,10.5377,10.5377,10.5705,10.6152,10.6152,10.7163,10.8794,11.0505,10.9882,10.8947,11.1126,11.0947,11.0288,11.145,11.216,11.2548,11.2548,11.2548,11.2548,11.2548,11.2548,11.2548,11.2548,11.2548,11.2217,11.1132,11.0902,11.0573,10.9453,10.9256,10.9256,10.9256,10.8548,10.8008,10.8008,10.5782,10.4183,10.4183,10.2999,10.2483,10.3147,10.2503,10.1336,9.9643,9.9507,9.9507,9.9507,9.9507,9.9507,9.9507,9.9507,9.9507,9.9507,9.9507,9.9507,9.9507,9.9507,9.9507,0.0,4.8632,5.0004,5.5515,5.2163,4.7518,4.7518,4.272,0.0,3.8309,3.8309,3.8309,3.8309,3.8582,4.0299,4.473,4.3916,4.6139,5.5993,5.8342,6.176,6.8968,7.5381,7.9819,8.1227,8.676,9.0743,9.2055,9.231,9.2268,9.1962,9.2059,9.2101,9.1962,9.1962,9.1962,9.1962,9.3383,9.4024,9.3924,9.6719,9.796,9.784,9.9348,10.0022,10.0022,10.0022,10.0022,10.0022,10.0022,10.0022,10.0022,10.0022,10.1247,10.3088,10.3088,10.434,10.6152,10.6152,10.6233,10.6395,10.6556,10.6475,10.6725,10.8839,11.0801,11.1912,11.0032,11.0947,11.2548,11.2548,11.2548,11.2548,11.2548,11.2548,11.2548,11.2548,11.2548,11.2515,11.2416,11.2416,11.2384,11.2285,11.2252,11.2252,11.2252,10.937,10.7186,10.7186,10.4108,10.1875,10.1875,10.3079,10.3066,10.1113,10.0228,9.9689,9.9552,9.9507,9.9507,9.9507,9.9507,9.9507,9.9507,9.9507,9.9507,9.9507,9.9507,9.9507,9.9507,9.9507,9.9507,5.0154,5.2832,5.5257,5.7083,5.4667,5.0962,4.7525,4.4228,4.122,3.8804,3.8309,3.8309,3.8309,3.8309,3.892,4.0852,4.1066,4.4847,5.5982,5.9563,6.4798,7.4919,7.6838,7.9078,8.3556,8.4022,8.5941,9.0379,9.1454,9.1962,9.1962,9.1962,9.1962,9.1962,9.2718,9.3154,9.3154,9.4448,9.5452,9.6193,9.7152,9.8024,9.8809,9.9303,9.9507,9.9507,9.9507,9.9507,0.0,9.9507,9.9507,9.9507,9.9507,10.0038,10.0788,10.0788,10.1262,10.2023,10.2023,10.2916,10.3866,10.2472,10.3878,10.6274,10.7084,10.6925,10.6614,10.7163,10.8832,11.0213,10.8903,11.0542,11.2195,11.0801,11.1522,11.2548,11.2548,11.2548,11.2548,11.2548,11.2548,11.2548,11.2548,11.1413,11.051,11.051,10.8233,10.6488,10.6488,10.407,10.2397,10.2397,10.1678,10.0857,10.0036,9.9685,9.9507,9.9507,9.9507,9.9507,9.9507,9.9507,9.9507,9.9507,9.9507,9.9507,9.9507,9.9507,9.9507,9.9507,9.9507,9.9507,5.5673,5.9111,6.184,6.2773,6.0348,5.6176,5.036,4.6768,4.3461,3.9164,3.8309,3.8309,3.8309,3.8309,3.8309,3.8309,3.9728,4.4759,5.5953,6.0784,6.6892,7.6844,7.6809,7.785,8.2617,8.2975,8.4836,8.9652,9.1193,9.1962,9.1962,9.1962,9.1962,9.1962,9.2805,9.327,9.327,9.4564,9.5641,9.6425,9.7239,9.8053,9.8925,9.9332,9.9507,9.9507,9.9507,9.9507,9.9507,9.9507,9.9507,9.9507,9.9507,9.9507,9.9507,9.9507,9.9507,9.9507,9.9507,10.0504,10.1527,9.9993,10.1571,10.4004,10.4004,10.3002,10.2385,10.5336,10.7637,10.8762,10.6685,10.8826,11.098,10.8794,10.9398,11.0505,11.0505,11.0505,11.0723,11.1377,11.098,11.0723,11.1377,10.97,10.8261,10.8261,10.6444,10.5089,10.5089,10.3174,10.1761,10.1761,10.0414,9.9507,9.9507,9.9507,9.9507,9.9507,9.9507,9.9507,9.9507,9.9507,9.9507,9.9507,9.9507,9.9507,9.9507,9.9507,9.9507,9.9507,9.9507,9.9507,6.4246,6.8071,7.0266,7.4504,7.0638,6.4011,5.7323,5.068,4.4468,3.9339,3.8309,3.8309,3.8309,3.8309,3.8309,3.8309,4.0503,4.5806,5.6098,6.0813,6.5611,7.2006,7.393,7.521,7.6454,8.3527,8.8559,8.9885,9.1164,9.1932,9.1962,9.1962,9.1962,9.1962,9.1962,9.1962,9.1962,9.3241,9.3924,9.3953,9.6396,9.7572,9.7631,9.8954,9.9507,9.9507,9.9507,9.9507,9.9507,9.9507,9.9507,9.9507,9.9507,9.9507,9.9507,9.9507,9.9507,9.9507,9.9507,9.9507,9.9507,9.9507,9.9507,9.9507,9.9507,9.9507,10.0414,10.4841,10.7558,10.8685,10.6605,10.7637,10.8685,10.6605,10.6112,10.6152,10.6152,10.6152,10.6725,10.88,10.7558,10.6805,10.8839,10.7479,10.6112,10.6112,10.4215,10.2787,10.2787,10.0877,9.9507,9.9507,9.9507,9.9507,9.9507,9.9507,9.9507,9.9507,9.9507,9.9507,9.9507,9.9507,9.9507,9.9507,9.9507,9.9507,9.9507,9.9507,9.9507,9.9507,9.9507,9.9507,6.1057,6.7337,7.3912,7.4061,7.1952,6.7362,5.7941,5.2778,4.7777,3.9892,3.8309,3.8309,3.8309,3.8309,3.8309,3.8309,4.2704,4.8809,5.6448,6.314,7.0004,7.731,7.9317,7.9201,7.6803,8.189,8.6251,8.8472,8.9826,9.096,9.1903,9.1962,9.1962,9.1962,9.2834,9.3299,9.3299,9.4622,9.5655,9.6483,9.7239,9.8082,9.8954,9.9332,9.9507,9.9507,9.9507,9.9507,9.9507,9.9507,9.9507,9.9507,9.9507,9.9507,9.9507,9.9507,9.9507,9.9507,9.9507,9.9507,9.9507,9.9507,9.9507,9.9507,9.9507,9.9507,9.9796,10.1114,10.1906,10.2615,10.357,10.5429,10.6484,10.434,10.5006,10.6152,10.6152,10.6152,10.6283,10.6925,10.6565,10.6354,10.6964,10.5223,10.3824,10.3824,10.1936,10.0504,10.0504,9.9932,9.9507,9.9507,9.9507,9.9507,9.9507,9.9507,9.9507,9.9507,9.9507,9.9507,9.9507,9.9507,9.9507,9.9507,9.9507,9.9507,9.9507,9.9507,9.9507,9.9507,9.9507,9.9507,6.3917,6.9211,7.4721,7.374,7.2484,6.8701,5.8169,5.4064,4.9778,4.0241,3.8309,3.892,4.0939,3.9659,3.9135,4.1676,4.4041,4.8518,5.7032,6.3111,7.012,7.9376,8.1624,8.1674,7.9797,8.2385,8.5059,8.7134,8.8954,9.0117,9.0391,9.0391,9.0653,9.1135,9.1932,9.2601,9.3096,9.4419,9.5437,9.6106,9.7123,9.7979,9.878,9.9274,9.9507,9.9507,9.9507,9.9507,9.9507,9.9507,9.9507,9.9507,9.9507,9.9507,9.9507,9.9507,9.9507,9.9507,9.9507,9.9507,9.9507,9.9507,9.9507,9.9507,9.9507,9.9507,9.9507,9.9507,9.9507,10.0038,10.2255,10.3174,10.3143,10.1834,10.2558,10.3485,10.3485,10.3485,10.3781,10.4633,10.4119,10.3781,10.4674,10.3002,10.1527,10.1527,10.037,9.9507,9.9507,9.9507,9.9507,9.9507,9.9507,9.9507,9.9507,9.9507,9.9507,9.9507,9.9507,9.9507,9.9507,9.9507,9.9507,9.9507,9.9507,9.9507,9.9507,9.9507,9.9507,9.9507,9.9507,9.9507,6.989,7.2291,7.3673,7.3698,7.2605,6.8807,5.8387,5.4776,5.071,4.0405,3.8309,3.9833,4.4934,4.219,4.1211,4.7508,4.625,4.8104,5.8545,6.2646,6.8549,7.923,0.0,0.0,8.4071,8.4148,8.4681,8.5844,8.8228,8.91,8.7948,8.7977,8.8617,8.9797,8.9826,9.0379,9.1583,9.2979,9.3779,9.3924,9.6396,9.7631,9.7776,9.8983,9.9507,9.9507,9.9507,9.9507,9.9507,9.9507,9.9507,9.9507,9.9507,9.9507,9.9507,9.9507,9.9507,9.9507,9.9507,9.9507,9.9507,9.9507,9.9507,9.9507,9.9507,9.9507,9.9507,9.9507,9.9507,10.0022,10.2023,10.1025,9.9507,9.9507,9.9507,9.9507,9.9507,9.9507,10.0129,10.2124,10.0922,10.0174,10.2198,10.0877,9.9507,9.9507,9.9507,9.9507,9.9507,9.9507,9.9507,9.9507,9.9507,9.9507,9.9507,9.9507,9.9507,9.9507,9.9507,9.9507,9.9507,9.9507,9.9507,9.9507,9.9507,9.9507,9.9507,9.939,9.9332,9.9332,9.9216,9.9203,6.6712,6.9934,7.3918,7.5033,7.416,7.0308,5.9976,5.5561,5.071,4.0405,3.8309,3.9833,4.4934,4.5814,4.7566,5.3048,5.8312,6.2587,6.506,7.108,7.6547,8.0074,8.1624,0.0,8.4071,8.4148,8.4264,8.4565,8.6047,8.6832,8.6512,8.7483,8.8181,8.8472,8.8472,8.8617,8.8879,9.1205,9.2863,9.3924,9.6396,9.814,9.91,9.939,9.9507,9.9507,9.9507,9.9507,9.9507,9.9507,9.9507,9.9507,9.9507,9.9507,9.9507,9.9507,9.9507,9.9507,9.9507,9.9507,9.9507,9.9507,9.9507,9.9507,9.9507,9.9507,9.9507,9.9507,9.9507,9.9643,10.0084,9.9887,9.9507,9.9507,9.9507,9.9507,9.9507,9.9507,9.9689,10.0129,9.9841,9.9689,10.0129,9.9841,9.9507,9.9507,9.9507,9.9507,9.9507,9.9507,9.9507,9.9507,9.9507,9.9507,9.9507,9.9507,9.9507,9.9507,9.9507,9.9507,9.9507,9.9507,9.9507,9.9507,9.9507,9.9507,9.9507,9.8518,9.7979,9.7995,9.7051,9.663,6.829,7.0351,7.3146,7.5284,7.4106,7.0579,6.3391,5.7566,5.1408,4.3558,3.9979,4.0037,4.5756,4.7362,4.9919,5.6334,6.0726,6.442,6.7562,7.2476,7.6925,8.0103,8.214,8.346,8.409,8.4148,8.4148,8.4148,8.4797,8.5175,8.5175,8.5815,8.6494,8.7105,8.7134,8.7425,8.8035,8.9402,9.042,9.1089,9.3024,9.4623,9.5946,9.7197,9.8069,9.8635,9.9245,9.9507,9.9507,9.9507,9.9507,9.9507,9.9507,9.9507,9.9507,9.9507,9.9507,9.9507,9.9507,9.9507,9.9507,9.9507,9.9507,9.9507,9.9507,9.9507,9.9507,9.9507,9.9507,9.9507,9.9507,9.9507,9.9507,9.9507,9.9507,9.9507,9.9507,9.9507,9.9507,9.9507,9.9507,9.9507,9.9507,9.9507,9.9507,9.9507,9.9507,9.9507,9.9507,9.9507,9.9274,9.8664,9.9158,9.9274,9.8664,9.9158,9.9507,9.9507,9.8954,9.8606,9.8606,9.8069,9.7749,9.7749,9.7749,9.7749,9.7749,9.708,9.676,9.6731,9.6135,9.5815,7.091,7.1524,7.2182,7.4767,7.3389,7.0231,6.5968,5.9799,5.3445,4.8024,4.3703,4.2859,4.899,5.053,5.314,6.0173,6.186,6.41,6.9247,7.233,7.5646,0.0,8.2646,8.4148,8.4148,8.4148,8.4148,8.4148,8.4148,8.4148,8.4148,8.4148,8.4681,8.5728,8.5786,8.628,8.7366,8.7599,8.7832,8.8064,8.9361,9.0669,9.202,9.4419,9.6004,9.7036,9.8315,9.8867,9.8912,9.91,9.9187,9.9216,9.942,9.9507,9.9507,9.9507,9.9507,9.9507,9.9507,9.9507,9.9449,9.9013,9.8867,9.8867,9.8867,9.8867,9.8867,9.8867,9.8867,9.8896,9.9129,9.9187,9.9245,9.9449,9.9507,9.9507,9.9507,9.9507,9.9507,9.9507,9.9507,9.9507,9.9507,9.9507,9.9507,9.9507,9.9507,9.9507,9.9507,9.9129,9.846,9.7385,9.8228,9.8431,9.7356,9.8257,9.8867,9.8867,9.7879,9.7268,9.7268,9.6368,9.5815,9.5815,9.5815,9.5611,9.5186,9.4954,9.4618,9.4207,9.4006,9.3846,7.011,7.1524,7.1929,7.3551,7.2641,6.9741,6.3556,6.1271,5.8598,5.2256,5.1292,5.3218,5.8491,6.128,6.4274,6.8666,0.0,7.4187,7.3901,7.7106,7.9696,8.0394,8.2646,8.4148,8.4148,8.4148,8.4148,8.4148,8.4148,8.4148,8.4148,8.4148,8.4235,8.4448,8.441,8.4536,8.4681,8.5786,8.693,8.8064,8.9361,9.0669,9.202,9.3445,9.4244,9.4434,9.5757,9.631,9.6397,9.7414,9.7805,9.7966,9.9071,9.9507,9.9507,9.9507,9.9507,9.9507,9.9507,9.9507,9.9158,9.7037,9.631,9.631,9.631,9.631,9.631,9.631,9.631,9.6572,9.7588,9.7805,9.814,9.9245,9.9507,9.9507,9.9507,9.9507,9.9507,9.9507,9.9507,9.9507,9.9507,9.9507,9.9507,9.9507,9.9507,9.9507,9.9507,9.7633,9.6252,9.6077,9.6223,9.6252,9.6077,9.6223,9.631,9.631,9.6164,9.6048,9.6048,9.5903,9.5815,9.5815,9.5815,9.4803,9.2609,9.1493,8.9847,8.7696,8.657,8.6035,6.9945,7.1524,7.1886,7.3321,7.2502,7.04,6.6813,6.3069,5.9302,5.5703,5.3683,5.3451,5.6422,6.0842,6.5059,6.8261,7.2534,7.5559,7.5733,7.8467,8.0481,0.0,8.2646,0.0,8.4148,8.4148,8.4148,8.4148,8.4148,8.4148,8.4148,8.4148,8.4148,8.4148,8.4148,8.4148,8.4148,8.4739,8.5321,8.5873,8.6454,8.7414,8.8693,9.0013,9.1002,9.1787,9.3067,9.3662,9.3736,9.4986,9.5495,9.5655,9.6935,9.7429,9.7429,9.7429,9.7429,9.7429,9.7429,9.7429,9.7299,9.6164,9.5815,9.5815,9.5815,9.5815,9.5815,9.5815,9.5815,9.5932,9.6469,9.6586,9.6731,9.7284,9.7429,9.7429,9.7429,9.7429,9.7429,9.7429,9.7429,9.7429,9.7429,9.7429,9.7429,9.7429,9.7429,9.7167,9.6469,9.6048,9.5262,9.3837,9.4302,9.4448,9.372,9.3662,9.3982,9.471,9.3358,9.2572,9.2572,9.1887,9.1181,9.0482,9.0511,8.9624,8.7887,8.7294,8.6498,8.5409,8.4852,8.4564,6.7511,6.932,6.9825,7.1983,7.1636,7.0355,6.8746,6.4783,6.0995,5.9325,5.6913,5.5516,5.6823,6.122,6.5321,6.7242,7.1287,7.4395,7.503,7.7653,0.0,7.9958,0.0,8.3838,8.4148,8.4148,8.4148,8.4148,8.4148,8.4148,8.4148,8.4148,8.4148,8.4148,8.4148,8.4148,8.4148,8.4148,8.4148,8.4148,8.4148,8.4681,8.5669,8.6988,8.8093,8.91,9.0391,9.0973,9.106,9.234,9.2892,9.3038,9.471,9.5117,9.4884,9.5204,9.5321,9.5175,9.4186,9.3837,9.3837,9.3837,9.3837,9.3837,9.3837,9.3837,9.3924,9.4244,9.436,9.4506,9.5175,9.5321,9.5408,9.5728,9.5815,9.5815,9.5815,9.5597,9.5437,9.5801,9.5553,9.5437,9.5757,9.5553,9.5321,9.5321,9.5321,9.4622,9.2673,9.3255,9.3109,9.1176,9.1816,9.1991,9.1031,9.0973,9.1351,9.2311,9.0037,8.8665,8.8665,8.7162,8.5938,8.5057,8.5041,8.4406,8.3232,8.3232,8.3019,8.2678,8.2678,8.2678,6.0898,6.3234,6.42,6.84,6.9386,6.8643,6.6115,6.6197,6.6112,6.3421,6.3722,6.4827,6.6108,6.7648,6.8753,6.8898,7.1109,7.2447,7.1371,7.4453,7.7239,7.8496,0.0,0.0,0.0,8.4148,8.4148,8.4148,8.4148,8.4148,8.4148,8.4148,8.4148,8.4148,8.4148,8.4148,8.4148,8.4148,8.4148,8.4148,8.4148,8.4216,8.4294,8.5611,8.6251,8.6367,8.7686,8.8239,8.8355,8.9652,9.0204,9.0437,9.2979,9.3212,9.2281,9.3546,9.4011,9.3458,8.9722,8.8442,8.8442,8.8442,8.8442,8.8442,8.8442,8.8442,8.8704,8.9943,9.0292,9.0873,9.3328,9.4011,9.4302,9.5524,9.5815,9.5815,9.5815,9.4855,9.436,9.5583,9.4826,9.439,9.5612,9.4797,9.4011,9.4011,9.4011,9.2644,8.8821,8.8384,8.8384,8.8268,8.8297,8.8326,8.8268,8.8239,8.8268,8.8355,8.624,8.5039,8.5039,8.2839,8.1566,8.1488,8.1488,8.0859,7.9586,7.9586,7.8868,7.7541,7.7541,7.7541,6.0437,6.2773,6.3806,6.8137,6.92,6.8537,6.5927,6.5682,6.5233,6.2509,6.2966,6.4012,6.4478,6.6281,6.8057,6.8869,7.044,7.169,7.201,7.3959,7.5849,7.7123,7.9608,8.1645,8.2925,8.2277,8.2131,8.3013,8.3722,8.4148,8.4148,8.4148,8.4148,8.4148,8.4148,8.4148,8.4148,8.4148,8.4148,8.4148,8.4148,8.4148,8.4177,8.4681,8.4885,8.4914,8.535,8.5553,8.5669,8.6978,8.7501,8.7675,8.946,8.9838,8.9489,8.9955,9.0129,8.9809,8.7599,8.7366,8.8035,8.8035,8.8035,8.8035,8.8035,8.8035,8.8152,8.8617,8.8762,8.8966,8.9897,9.0129,9.0246,9.0723,9.084,9.084,9.084,9.0491,9.0246,9.0752,9.0491,9.0316,9.0782,9.0462,9.0129,9.0129,8.9431,8.8384,8.6988,8.7541,8.7715,8.6901,8.6814,8.6814,8.6814,8.6018,8.5902,8.6756,8.3927,8.2223,8.2223,8.0086,7.8508,7.7633,7.7614,7.7059,7.5823,7.5823,7.5545,7.5042,7.5042,7.5457,5.6421,5.9516,6.1635,6.5989,6.8137,6.8649,6.6452,6.5625,6.4649,6.2406,6.2258,6.2646,6.3111,6.4594,6.634,6.8055,6.9105,7.0065,7.1283,7.2563,7.3872,7.5117,7.7187,7.9201,8.0918,8.0336,8.019,8.1034,8.2248,8.2908,8.2908,8.3315,8.3615,8.3615,8.3954,8.4148,8.4148,8.4148,8.4148,8.4148,8.4148,8.4148,8.4148,8.4148,8.4148,8.4148,8.4148,8.4148,8.4206,8.5117,8.5466,8.5582,8.6901,8.7134,8.6814,8.725,8.7134,8.6639,8.5757,8.6018,8.6756,8.6756,8.6756,8.6756,8.6756,8.6756,8.6843,8.7279,8.7395,8.7512,8.7919,8.8035,8.8035,8.8035,8.8035,8.8035,8.8035,8.7715,8.7541,8.7948,8.7686,8.7541,8.7977,8.8035,8.789,8.7483,8.6629,8.5931,8.5495,8.6193,8.6396,8.5553,8.5466,8.5466,8.5466,8.4681,8.4225,8.4335,8.1436,7.9382,7.8609,7.644,7.4858,7.4012,7.3992,7.3744,7.3334,7.2992,7.2992,7.3334,7.2967,7.3259,4.8646,5.2886,5.7114,6.1654,6.5857,6.8587,6.7383,6.6165,6.4871,6.3629,6.2217,6.1629,6.2878,6.314,6.4012,6.6515,6.6981,6.7446,6.8782,7.0033,7.1287,7.2505,7.3784,7.5529,7.806,7.8321,7.838,7.8409,7.9638,8.0365,8.0365,8.1624,8.2294,8.2294,8.3469,8.4032,8.4032,8.4032,8.4061,8.409,8.409,8.4119,8.4148,8.4148,8.4148,8.4148,8.4148,8.4148,8.4148,8.4148,8.4148,8.4264,8.5553,8.5292,8.4332,8.5582,8.5262,8.4148,8.4148,8.4148,8.4148,8.4148,8.4148,8.4148,8.4148,8.4148,8.4448,8.5698,8.6047,8.6338,8.7599,8.7919,8.7919,8.7919,8.7919,8.7919,8.7919,8.6959,8.6396,8.7686,8.693,8.6465,8.7715,8.7919,8.7512,8.6261,8.6047,8.5582,8.4323,8.4148,8.4148,8.4148,8.4148,8.4148,8.4148,8.4148,8.3207,8.1,7.8789,7.6509,7.4112,7.1872,7.0716,7.0668,7.0668,7.1135,7.2185,7.1135,7.1159,7.216,7.111,7.0692,5.0141,4.9926,5.0781,6.0404,6.2128,6.1937,6.3736,6.3941,6.3684,6.3421,6.2217,6.1368,6.1687,6.253,6.3402,6.4129,6.503,6.6108,6.7417,6.7912,6.8959,7.117,7.2505,7.3174,7.3028,7.3814,7.4715,7.5646,7.6925,7.7682,7.7682,7.8903,7.9608,7.9608,8.0823,8.1492,8.1492,8.1492,8.1994,8.2896,8.2896,8.3353,8.4148,8.4148,8.4148,8.4148,8.4148,8.4148,8.4148,8.4148,8.4148,8.4216,8.4565,8.4468,8.4206,8.4555,8.4468,8.4148,8.4148,8.4148,8.4148,8.4148,8.4148,8.4148,8.4148,8.4148,8.4235,8.4584,8.471,8.4797,8.5146,8.5233,8.5233,8.5233,8.5233,8.5233,8.5233,8.4972,8.4826,8.5175,8.4943,8.4826,8.5175,8.5233,8.5117,8.4768,8.471,8.4555,8.4206,8.4148,8.4148,8.4148,8.4148,8.4148,8.4148,8.4148,8.3207,8.1,7.8789,7.6181,7.3068,7.0709,6.9116,6.838,6.838,6.8526,6.8774,6.8502,6.8526,6.8774,6.8502,6.8794,4.5388,4.4631,4.5453,5.2821,5.4777,5.5962,6.0153,6.0709,6.1061,6.3603,6.2548,6.1348,6.2019,6.2255,6.253,6.3082,6.3838,6.4769,6.6079,6.6719,6.7621,6.9134,6.9919,7.0094,6.9396,7.0938,7.2272,7.3062,7.425,7.4943,7.4943,7.6198,7.6896,7.6896,7.8706,7.963,7.963,8.0219,8.086,8.1587,8.1587,8.1965,8.2617,8.2617,8.2617,8.2646,8.3207,8.344,8.3469,8.3983,8.4148,8.4148,8.4148,8.4148,8.4071,8.2995,8.2617,8.2617,8.2617,8.2617,8.2617,8.2617,8.2617,8.2474,8.1587,8.1317,8.1317,8.1317,8.1728,8.2091,8.2013,8.2385,8.2549,8.1647,8.1406,8.1406,8.1406,8.1406,8.1406,8.1406,8.1406,8.1687,8.2628,8.2786,8.247,8.1567,8.1406,8.1406,8.1406,8.1406,8.1406,8.1406,8.1406,8.1406,8.1406,8.0939,7.9734,7.7516,7.5753,7.3452,7.0501,6.9088,6.8091,6.7457,6.7457,6.7457,6.7457,6.6994,6.6818,6.6774,6.5309,6.4534,3.7231,3.8316,4.1092,4.271,4.5721,4.9796,0.0,0.0,5.6584,6.1976,6.1082,5.9817,6.1329,6.0957,6.0787,6.2094,6.2675,6.3402,6.471,6.5904,6.6631,6.6631,6.6748,6.6835,6.6835,6.8959,7.0385,7.0501,7.1458,7.2156,7.2268,7.3523,7.4255,7.4255,7.6606,7.7885,7.7885,7.9172,7.9899,8.0045,8.019,8.0336,8.0481,8.0481,8.0481,8.054,8.1712,8.2207,8.2294,8.3353,8.378,8.378,8.378,8.378,8.3489,8.1296,8.0481,8.0481,8.0481,8.0481,8.0481,8.0481,8.0305,7.9795,7.7919,7.72,7.7017,7.7017,7.7838,7.8705,7.844,7.9248,7.961,7.7658,7.7197,7.7239,7.7491,7.7365,7.7266,7.761,7.7511,7.8,8.0121,8.0474,7.971,7.7518,7.7197,7.7197,7.7197,7.7407,7.7449,7.7197,7.7407,7.7449,7.7197,7.6244,7.4689,7.246,7.1449,6.9826,6.735,6.7262,6.7213,6.7091,6.6969,6.6896,6.6896,6.5866,6.5353,6.5287,6.2162,5.944,0.0,0.0,0.0,0.0,0.0,0.0,0.0,4.6636,4.7611,4.9911,4.9552,4.9238,5.0586,5.3183,5.5546,5.6858,5.9623,6.2065,6.3373,6.378,6.3954,6.3954,6.4856,6.5467,6.5467,6.5932,6.669,6.7737,6.8028,6.8639,6.9684,7.0934,7.1665,7.1665,7.3057,7.3809,7.3809,7.5122,7.6286,7.7355,7.8409,7.9492,8.0481,8.0481,8.0481,8.0481,8.0743,8.0831,8.086,8.1121,8.1172,8.1172,8.1172,8.1172,8.1151,8.0656,8.0481,8.0481,8.0481,8.0481,8.0481,8.0481,7.9327,7.7881,7.7469,7.6173,7.4842,7.4842,7.5045,7.5235,7.5155,7.5358,7.5428,7.4983,7.4902,7.5347,7.7037,7.6097,7.5618,7.8163,7.7315,7.6584,7.7958,7.8204,7.7429,7.5239,7.4902,7.4902,7.4902,7.6376,7.6773,7.5064,7.6376,7.6733,7.5024,7.4686,7.3617,7.1386,7.1054,6.9514,6.6318,6.6208,6.5793,6.4981,6.4036,6.3572,6.3506,6.2498,6.2002,6.1961,6.1275,5.7887,0.0,0.0,0.0,0.0,0.0,0.0,0.0,0.0,0.0,0.0,0.0,4.5321,4.669,0.0,5.3101,5.4411,5.7818,6.0699,6.2035,6.2762,6.2937,6.2269,6.3344,6.4158,6.4158,6.474,6.505,6.4864,6.4831,6.4777,6.4672,6.5993,6.7064,6.7725,6.9762,7.0684,7.0371,7.1663,7.2189,7.1956,7.4186,7.5558,7.6259,7.781,7.8525,7.8525,7.8525,7.8903,7.9521,7.9521,7.9899,8.0219,7.7594,7.6576,7.6664,7.7339,7.7572,7.7517,7.7121,7.6992,7.6992,7.6992,7.5578,7.3861,7.3861,7.2463,7.0823,7.0823,7.1285,7.1692,7.1652,7.2114,7.2314,7.1135,7.0867,7.1135,7.219,7.1594,7.1315,7.2908,7.2341,7.2209,7.3967,7.3291,7.2134,7.1021,7.0867,7.0867,7.0867,7.1776,7.1177,6.7987,7.0477,7.1125,6.791,6.9639,7.0173,6.8526,6.7956,6.6636,6.4346,6.4255,6.3767,6.271,6.2108,6.1815,6.1815,6.0229,5.9482,5.9418,5.729,5.3916,0.0,0.0,0.0,0.0,0.0,0.0,0.0,0.0,0.0,0.0,0.0,0.0,0.0,0.0,0.0,5.149,5.5526,5.8941,6.064,6.1774,6.2035,6.099,6.2035,6.282,6.282,6.3751,6.3796,6.2329,6.2206,6.1634,6.0354,6.1726,6.2952,6.368,6.6681,6.7845,6.6999,6.8267,6.8367,6.7242,6.9969,0.0,7.1839,7.458,7.5844,7.5844,7.5844,7.6425,7.742,7.742,7.8002,7.8431,7.311,7.0998,7.1142,7.2181,7.2588,7.2492,7.1849,7.1607,7.1663,7.1913,7.055,6.8929,6.9104,6.7805,0.0,6.6221,6.7036,6.7875,6.7819,6.8715,6.9202,6.7319,6.6823,6.6953,6.7362,6.7127,6.7002,6.7633,6.7421,6.7818,6.9937,6.7706,6.5311,6.4524,6.436,6.436,6.436,6.5423,6.4714,6.0829,6.463,6.5893,6.2017,6.4109,6.5622,6.5598,6.3833,6.223,6.1067,6.082,6.0018,5.8569,5.7883,5.7982,5.8866,5.6738,5.6043,5.653,5.0594,4.7193,0.0,0.0,0.0,0.0,0.0,0.0,0.0,0.0,0.0,0.0,0.0,0.0,0.0,0.0,0.0,0.0,5.0797,5.6186,5.9091,5.965,5.9679,5.9506,6.0641,6.1455,6.1455,6.1571,6.1435,6.0897,6.086,6.0691,6.0267,6.1726,0.0,0.0,0.0,6.4828,6.3218,6.4484,6.5805,6.7119,6.8272,6.9603,7.1109,7.2492,7.3174,7.3174,7.3174,7.3198,7.3377,7.3377,7.3431,7.3021,6.7192,6.4957,6.4957,6.5094,6.5149,6.5142,6.5072,0.0,0.0,6.6231,6.515,6.3658,6.4592,6.3427,6.1749,6.1749,6.2535,6.3329,6.3329,6.4205,6.5023,6.473,6.4712,6.5208,6.7061,6.5963,6.552,6.8314,6.735,6.6465,6.7655,6.2905,5.7728,5.388,5.3318,5.3318,5.3318,5.8152,6.0761,5.8503,6.378,0.0,6.417,6.0912,6.0546,6.4297,5.9863,5.6629,5.5531,5.4527,5.2598,4.9695,4.6593,4.6996,5.1011,4.8811,4.9294,5.1949,4.0097,3.608,0.0,0.0,0.0,0.0,0.0,0.0,0.0,0.0,0.0,0.0,0.0,0.0,0.0,0.0,0.0,0.0,4.7314,5.1133,5.2437,5.3896,5.5749,5.8019,5.9359,6.0117,6.0117,5.997,5.9414,5.8248,5.7261,5.6275,5.5234,5.6673,5.7542,5.7646,5.9954,6.063,5.9539,6.0085,6.016,5.9853,6.2071,6.3458,6.4227,6.6556,6.7621,6.7621,6.7621,6.7621,6.7621,6.7621,6.7621,6.7431,0.0,0.0,0.0,0.0,6.3006,6.2749,6.2309,6.2161,6.2205,6.2731,6.1925,6.1105,6.2756,6.2198,6.1049,6.1049,6.1327,6.1693,6.1693,6.2035,6.2441,6.2441,6.2441,6.266,6.3549,6.3038,6.2782,6.4107,6.4181,0.0,6.3767,6.1498,5.9144,5.7313,5.7044,5.7264,5.7861,6.0255,6.0843,5.8194,6.2571,6.4293,6.0908,6.1269,0.0,0.0,0.0,5.9433,5.8374,5.7288,0.0,0.0,0.0,4.5683,4.7049,4.2912,0.0,0.0,3.4718,3.2252,0.0,0.0,0.0,0.0,0.0,0.0,0.0,0.0,0.0,0.0,0.0,0.0,0.0,0.0,0.0,0.0,4.2121,4.5002,4.5196,4.8343,5.1418,5.3581,5.6762,5.8363,5.7253,5.7585,5.7155,5.5376,5.4123,5.2862,5.1586,5.2995,5.4073,5.4593,5.6681,5.7308,5.6393,5.6385,5.5948,5.5115,5.7274,5.8577,5.9115,6.1744,6.2959,6.2959,6.2959,6.2959,6.2959,6.3396,6.3596,6.3417,6.195,6.1376,6.1222,6.0009,5.9372,5.9059,5.848,5.8296,5.8312,5.8617,5.8269,5.8064,5.9858,5.9878,5.9253,5.9253,5.9472,5.9692,5.9692,5.9936,6.0155,6.0155,6.0155,6.0155,6.0155,6.0155,6.0253,6.0546,6.101,6.0692,5.8754,5.89,5.8862,5.7691,5.752,5.7788,5.8531,5.9653,5.9545,5.7251,6.0878,6.2173,5.9071,6.0561,6.1791,6.2157,6.079,5.9896,5.9731,5.7559,5.4846,5.1524,4.5853,4.3047,0.0,0.0,0.0,0.0,0.0,0.0,0.0,0.0,0.0,0.0,0.0,0.0,0.0,0.0,0.0,0.0,0.0,0.0,0.0,0.0,0.0,0.0,0.0,0.0,3.8513,4.3983,4.7113,4.479,5.2268,5.6078,5.2135,5.3923,5.452,5.2568,5.2361,5.2091,5.1537,5.2995,5.3158,5.1701,5.477,5.565,5.3953,5.3953,5.4758,5.6325,5.6032,5.6776,5.8382,5.976,6.0365,6.0365,6.0365,6.0365,6.0494,6.1995,6.262,6.193,5.4751,5.1951,5.1951,5.1884,5.1842,5.1857,5.1815,5.1782,5.1978,5.2972,5.3269,5.3455,5.454,5.4847,5.4835,5.4835,5.5556,5.6336,5.6336,5.7141,5.8008,5.8008,5.8008,5.8008,5.8008,5.8008,5.8301,5.9312,5.874,5.6751,5.2536,5.3479,5.342,4.9239,4.8605,0.0,4.8654,5.2288,5.4835,5.4738,5.8569,6.1098,6.0976,5.7251,5.669,6.0814,5.6239,5.4264,5.6262,5.1314,4.6958,4.3588,3.7382,3.5588,3.8333,0.0,0.0,0.0,0.0,0.0,0.0,0.0,0.0,0.0,0.0,0.0,0.0,0.0,0.0,0.0,0.0,0.0,0.0,0.0,0.0,0.0,0.0,0.0,0.0,3.6732,4.0886,4.2642,4.7265,4.9438,4.721,4.9064,4.9773,4.8162,4.987,5.0505,4.936,4.9814,5.0198,5.0329,5.1414,5.2086,5.2299,5.2266,5.2595,5.3133,5.3011,5.3252,5.3845,5.4266,5.4476,5.4476,5.4476,5.4476,5.4509,5.5043,5.5863,5.6656,5.5258,5.4311,5.3567,5.2433,5.1591,5.0835,4.9711,4.932,4.9393,4.9735,5.0809,5.2097,5.2429,5.3552,5.464,5.464,5.4884,5.5141,5.5141,5.5434,5.5738,5.5738,5.5738,5.5738,5.5738,5.5738,5.5836,5.6202,5.5421,5.4249,5.2799,5.3711,5.4129,5.2703,5.3051,5.4044,5.5483,5.6348,5.7081,5.7751,5.852,5.896,5.896,5.8276,5.8179,5.8949,5.7935,5.7342,5.7334,5.3666,5.0457,4.784,4.3784,3.9014,3.3579,0.0,0.0,0.0,0.0,0.0,0.0,0.0,0.0,0.0,0.0,0.0,0.0,0.0,0.0,0.0,0.0,0.0,0.0,0.0,0.0,0.0,0.0,0.0,0.0,0.0,0.0,3.977,4.3575,0.0,4.2594,4.3504,4.3584,4.1984,4.3466,4.4877,4.586,4.5898,4.6922,4.9149,4.9191,4.9564,5.0329,5.0329,5.05,5.0899,5.0899,5.1119,5.151,5.151,5.151,5.151,5.151,5.151,5.1437,5.0646,5.093,5.1812,5.1746,5.132,5.058,4.9509,4.869,4.8113,4.8204,4.8215,4.8215,4.8215,4.8765,4.9348,4.8805,4.8914,4.911,4.8556,4.9224,5.0193,5.0515,5.1492,5.241,5.281,5.2883,5.3005,5.3396,5.3528,5.3274,5.2483,5.2102,5.1433,4.9926,5.1818,5.3124,5.2007,5.3676,5.5694,5.7505,5.6546,5.5966,5.6638,5.611,5.5702,5.5702,5.6975,5.7434,5.6788,5.7726,5.7498,5.57,5.4149,5.1489,4.7585,4.4468,3.9077,0.0,0.0,0.0,0.0,0.0,0.0,0.0,0.0,0.0,0.0,0.0,0.0,0.0,0.0,0.0,0.0,0.0,0.0,0.0,0.0,0.0,0.0,0.0,0.0,0.0,0.0,0.0,3.6036,4.0709,0.0,0.0,0.0,0.0,3.4221,3.3866,3.5941,4.0952,4.1269,4.3268,4.7581,4.7727,4.7874,4.8142,4.8142,4.8654,4.9686,4.9622,5.0125,5.1239,5.1239,5.1239,5.1239,5.1306,5.1339,5.1168,4.8688,4.7707,4.7446,4.427,4.2933,4.2766,4.2766,4.2742,4.3103,4.6247,4.7377,4.7516,4.7499,4.6418,4.4881,4.353,4.1269,0.0,0.0,3.9172,4.1795,4.2825,4.5438,4.8096,4.9168,4.9565,4.9979,5.0995,5.1272,5.0622,4.8208,4.8549,4.7893,4.3706,0.0,4.9715,4.6947,5.009,5.317,5.4321,5.292,5.1832,5.1786,5.1739,5.1693,5.1693,5.3448,5.4543,5.4543,5.5531,5.4755,5.1775,5.232,4.9496,4.275,3.9244,0.0,0.0,0.0,0.0,0.0,0.0,0.0,0.0,0.0,0.0,0.0,0.0,0.0,0.0,0.0,0.0,0.0,0.0,0.0,0.0,0.0,0.0,0.0,0.0,0.0,0.0,2.6262,2.9616,3.3084,3.3318,3.2292,0.0,0.0,0.0,0.0,0.0,0.0,3.3398,3.4119,3.6533,4.0852,4.0972,4.2951,4.7026,4.702,4.7557,4.8605,4.7322,4.6891,4.7182,4.7182,4.7182,4.7247,4.8516,4.9044,4.8615,4.3004,4.098,4.1242,3.9341,3.6965,3.4664,3.4664,3.4126,3.3495,3.4335,3.6242,3.8267,3.7692,3.7618,3.768,3.7513,0.0,0.0,0.0,0.0,3.6111,3.8865,4.1076,4.2972,4.4471,4.6759,4.8337,4.7395,4.817,4.7554,4.2397,4.1617,4.0479,3.631,3.7345,0.0,4.1872,4.5773,4.9404,5.2109,5.3268,5.3577,5.2806,5.201,5.1587,5.1587,5.2715,5.3444,5.3444,5.4445,5.4658,5.3867,4.9456,4.4975,4.0702,0.0,0.0,0.0,0.0,0.0,0.0,0.0,0.0,0.0,0.0,0.0,0.0,0.0,0.0,0.0,0.0,0.0,0.0,0.0,0.0,0.0,0.0,0.0,0.0,0.0,0.0,0.0,2.2297,2.5919,3.0321,2.875,2.6878,0.0,0.0,0.0,0.0,0.0,0.0,0.0,0.0,0.0,3.4439,3.4353,3.6243,4.0411,4.146,4.2543,4.3708,4.4361,4.4595,4.4402,4.5049,4.4987,4.4418,4.4643,4.342,4.1014,3.722,3.566,3.5361,0.0,0.0,0.0,0.0,2.7353,2.6993,2.836,3.0552,3.2579,3.1392,0.0,0.0,0.0,0.0,0.0,0.0,0.0,3.2424,3.5128,3.8782,4.2185,4.3574,4.5028,4.595,4.5443,4.2362,3.856,3.4719,3.4293,3.3232,2.9061,3.0953,0.0,0.0,0.0,4.3862,4.6499,4.8082,4.8822,4.8579,4.8021,4.8016,4.8892,5.0304,5.1261,5.1581,5.3078,5.2812,5.0291,4.6496,4.1702,0.0,0.0,0.0,0.0,0.0,0.0,0.0,0.0,0.0,0.0,0.0,0.0,0.0,0.0,0.0,0.0,0.0,0.0,0.0,0.0,0.0,0.0,0.0,0.0,0.0,0.0,0.0,0.0,0.0,2.2635,2.7654,0.0,0.0,0.0,0.0,0.0,0.0,0.0,0.0,0.0,0.0,0.0,0.0,0.0,2.8897,3.157,3.3612,3.5303,3.6732,3.9683,4.0975,4.0769,4.2028,4.1913,4.0613,3.868,0.0,3.1531,3.0773,0.0,0.0,0.0,0.0,0.0,0.0,0.0,0.0,0.0,0.0,0.0,0.0,0.0,0.0,0.0,0.0,0.0,0.0,0.0,0.0,0.0,0.0,4.1401,4.2136,4.2322,4.2321,4.2217,3.4814,2.7794,2.6472,2.6864,2.6125,0.0,0.0,0.0,0.0,0.0,0.0,3.9699,4.1349,4.2494,4.2957,4.3085,4.3839,4.553,4.7124,4.8435,4.9354,5.046,4.8994,4.4214,4.2942,0.0,0.0,0.0,0.0,0.0,0.0,0.0,0.0,0.0,0.0,0.0,0.0,0.0,0.0,0.0,0.0,0.0,0.0,0.0,0.0,0.0,0.0,0.0,0.0,0.0,0.0,0.0,0.0,0.0,0.0,0.0,0.0,0.0,0.0,0.0,0.0,0.0,0.0,0.0,0.0,0.0,0.0,0.0,0.0,0.0,0.0,0.0,0.0,0.0,0.0,2.9567,2.9544,3.0074,3.0337,3.0314,2.991,2.6585,2.5866,2.6639,2.19,0.0,0.0,0.0,0.0,0.0,0.0,0.0,0.0,0.0,0.0,0.0,0.0,0.0,0.0,0.0,0.0,0.0,0.0,0.0,0.0,0.0,0.0,2.9775,2.8776,3.2975,3.5528,2.9256,0.0,0.0,0.0,0.0,0.0,0.0,0.0,0.0,0.0,0.0,0.0,3.611,4.2127,4.5704,4.4358,4.4792,4.5316,4.5637,4.5396,4.5887,4.7403,4.3327,4.1001,0.0,0.0,0.0,0.0,0.0,0.0,0.0,0.0,0.0,0.0,0.0,0.0,0.0,0.0,0.0,0.0,0.0,0.0,0.0,0.0,0.0,0.0,0.0,0.0,0.0,0.0,0.0,0.0,0.0,0.0,0.0,0.0,0.0,0.0,0.0,0.0,0.0,0.0,0.0,0.0,0.0,0.0,0.0,0.0,0.0,0.0,0.0,0.0,0.0,0.0,0.0,0.0,0.0,0.0,0.0,0.0,0.0,0.0,2.1994,1.9486,0.0,0.0,0.0,0.0,0.0,0.0,0.0,0.0,0.0,0.0,0.0,0.0,0.0,0.0,0.0,0.0,0.0,0.0,0.0,0.0,0.0,0.0,0.0,0.0,0.0,0.0,0.0,0.0,0.0,0.0,0.0,0.0,0.0,0.0,0.0,0.0,0.0,0.0,0.0,0.0,3.1733,3.7933,4.1996,4.1517,4.1456,4.1861,4.286,4.2598,4.2358,4.2315,3.9793,0.0,0.0,0.0,0.0,0.0,0.0,0.0,0.0,0.0,0.0,0.0,0.0,0.0,0.0,0.0,0.0,0.0,0.0,0.0,0.0,0.0,0.0,0.0,0.0,0.0,0.0,0.0,0.0,0.0,0.0,0.0,0.0,0.0,0.0,0.0,0.0,0.0,0.0,0.0,0.0,0.0,0.0,0.0,0.0,0.0,0.0,0.0,0.0,0.0,0.0,0.0,0.0,0.0,0.0,0.0,0.0,0.0,0.0,0.0,1.9223,1.5205,0.0,0.0,0.0,0.0,0.0,0.0,0.0,0.0,0.0,0.0,0.0,0.0,0.0,0.0,0.0,0.0,0.0,0.0,0.0,0.0,0.0,0.0,0.0,0.0,0.0,0.0,0.0,0.0,0.0,0.0,0.0,0.0,0.0,0.0,0.0,0.0,0.0,0.0,0.0,0.0,2.7817,3.3574,3.7662,3.81,3.7757,3.8143,3.9674,3.9974,3.9167,3.715,3.6217,0.0,0.0,0.0,0.0,0.0,0.0,0.0,0.0,0.0,0.0,0.0,0.0,0.0,0.0,0.0,0.0,0.0,0.0,0.0,0.0,0.0,0.0,0.0,0.0,0.0,0.0,0.0,0.0,0.0,0.0,0.0,0.0,0.0,0.0,0.0,0.0,0.0,0.0,0.0,0.0,0.0,0.0,0.0,0.0,0.0,0.0,0.0,0.0,0.0,0.0,0.0,0.0,0.0,0.0,0.0,0.0,0.0,0.0,0.0,0.0,0.0,0.0,0.0,0.0,0.0,0.0,0.0,0.0,0.0,0.0,0.0,0.0,0.0,0.0,0.0,0.0,0.0,0.0,0.0,0.0,0.0,0.0,0.0,0.0,0.0,0.0,0.0,0.0,0.0,0.0,0.0,0.0,0.0,0.0,0.0,0.0,0.0,0.0,0.0,0.0,0.0,2.5409,3.2491,3.7225,3.6454,3.7073,3.7597,3.7755,3.8433,3.7508,3.4406,0.0,0.0,0.0,0.0,0.0,0.0,0.0,0.0,0.0,0.0,0.0,0.0,0.0,0.0,0.0,0.0,0.0,0.0,0.0,0.0,0.0,0.0,0.0,0.0,0.0,0.0,0.0,0.0,0.0,0.0,0.0,0.0,0.0,0.0,0.0,0.0,0.0,0.0,0.0,0.0,0.0,0.0,0.0,0.0,0.0,0.0,0.0,0.0,0.0,0.0,0.0,0.0,0.0,0.0,0.0,0.0,0.0,0.0,0.0,0.0,0.0,0.0,0.0,0.0,0.0,0.0,0.0,0.0,0.0,0.0,0.0,0.0,0.0,0.0,0.0,0.0,0.0,0.0,0.0,0.0,0.0,0.0,0.0,0.0,0.0,0.0,0.0,0.0,0.0,0.0,0.0,0.0,0.0,0.0,0.0,0.0,0.0,0.0,0.0,0.0,0.0,0.0,2.5646,3.2176,3.6564,3.6189,3.6052,3.601,3.601,3.5843,3.3889,2.9543,0.0,0.0,0.0,0.0,0.0,0.0,0.0,0.0,0.0,0.0,0.0,0.0,0.0,0.0,0.0,0.0,0.0,0.0,0.0,0.0,0.0,0.0,0.0,0.0,0.0,0.0,0.0,0.0,0.0,0.0,0.0,0.0,0.0,0.0,0.0,0.0,0.0,0.0,0.0,0.0,0.0,0.0,0.0,0.0,0.0,0.0,0.0,0.0,0.0,0.0,0.0,0.0,0.0,0.0,0.0,0.0,0.0,0.0,0.0,0.0,0.0,0.0,0.0,0.0,0.0,0.0,0.0,0.0,0.0,0.0,0.0,0.0,0.0,0.0,0.0,0.0,0.0,0.0,0.0,0.0,0.0,0.0,0.0,0.0,0.0,0.0,0.0,0.0,0.0,0.0,0.0,0.0,0.0,0.0,0.0,0.0,0.0,0.0,0.0,0.0,0.0,0.0,2.5318,3.1509,3.581,3.581,3.5313,3.4876,3.4663,3.4082,3.1387,2.5841,0.0,0.0,0.0,0.0,0.0,0.0,0.0,0.0,0.0,0.0,0.0,0.0,0.0,0.0,0.0,0.0,0.0,0.0,0.0,0.0,0.0,0.0,0.0,0.0,0.0,0.0,0.0,0.0,0.0,0.0,0.0,0.0,0.0,0.0,0.0,0.0,0.0,0.0,0.0,0.0,0.0,0.0,0.0,0.0,0.0,0.0,0.0,0.0,0.0,0.0,0.0,0.0,0.0,0.0,0.0,0.0,0.0,0.0,0.0,0.0,0.0,0.0,0.0,0.0,0.0,0.0,0.0,0.0,0.0,0.0,0.0,0.0,0.0,0.0,0.0,0.0,0.0,0.0,0.0,0.0,0.0,0.0,0.0,0.0,0.0,0.0,0.0,0.0,0.0,0.0,0.0,0.0,0.0,0.0,0.0,0.0,0.0,0.0,0.0,0.0,0.0,0.0,2.3646,3.0344,3.5023,3.5023,3.4971,3.4682,3.3897,3.3711,3.0819,0.0,0.0,0.0,0.0,0.0,0.0,0.0,0.0,0.0,0.0,0.0,0.0,0.0,0.0,0.0,0.0,0.0,0.0,0.0,0.0,0.0,0.0,0.0,0.0,0.0,0.0,0.0,0.0,0.0,0.0,0.0,0.0,0.0,0.0,0.0,0.0,0.0,0.0,0.0,0.0,0.0,0.0,0.0,0.0,0.0,0.0,0.0,0.0,0.0,0.0,0.0,0.0,0.0,0.0,0.0,0.0,0.0,0.0,0.0,0.0,0.0,0.0,0.0,0.0,0.0,0.0,0.0,0.0,0.0,0.0,0.0,0.0,0.0,0.0,0.0,0.0,0.0,0.0,0.0,0.0,0.0,0.0,0.0,0.0,0.0,0.0,0.0,0.0,0.0,0.0,0.0,0.0,0.0,0.0,0.0,0.0,0.0,0.0,0.0,0.0,0.0,0.0,0.0,2.284,2.7592,3.1625,3.3922,3.3625,3.317,3.2923,3.2379,2.9423,2.3304,0.0,0.0,0.0,0.0,0.0,0.0,0.0,0.0,0.0,0.0,0.0,0.0,0.0,0.0,0.0,0.0,0.0,0.0,0.0,0.0,0.0,0.0,0.0,0.0,0.0,0.0,0.0,0.0,0.0,0.0,0.0,0.0,0.0,0.0,0.0,0.0,0.0,0.0,0.0,0.0,0.0,0.0,0.0,0.0,0.0,0.0,0.0,0.0,0.0,0.0,0.0,0.0,0.0,0.0,0.0,0.0,0.0,0.0,0.0,0.0,0.0,0.0,0.0,0.0,0.0,0.0,0.0,0.0,0.0,0.0,0.0,0.0,0.0,0.0,0.0,0.0,0.0,0.0,0.0,0.0,0.0,0.0,0.0,0.0,0.0,0.0,0.0,0.0,0.0,0.0,0.0,0.0,0.0,0.0,0.0,0.0,0.0,0.0,0.0,0.0,0.0,0.0,0.0,2.7081,3.1351,3.3125,3.2809,3.2342,3.2062,3.0946,2.7901,2.2387,0.0,0.0,0.0,0.0,0.0,0.0,0.0,0.0,0.0,0.0,0.0,0.0,0.0,0.0,0.0,0.0,0.0,0.0,0.0,0.0,0.0,0.0,0.0,0.0,0.0,0.0,0.0,0.0,0.0,0.0,0.0,0.0,0.0,0.0,0.0,0.0,0.0,0.0,0.0,0.0,0.0,0.0,0.0,0.0,0.0,0.0,0.0,0.0,0.0,0.0,0.0,0.0,0.0,0.0,0.0,0.0,0.0,0.0,0.0,0.0,0.0,0.0,0.0,0.0,0.0,0.0,0.0,0.0,0.0,0.0,0.0,0.0,0.0,0.0,0.0,0.0,0.0,0.0,0.0,0.0,0.0,0.0,0.0,0.0,0.0,0.0,0.0,0.0,0.0,0.0,0.0,0.0,0.0,0.0,0.0,0.0,0.0,0.0,0.0,0.0,0.0,0.0,0.0,2.7888,3.2992,3.2449,3.2323,3.1994,3.1267,2.9649,2.651,2.1434,1.8834,0.0,0.0,0.0,0.0,0.0,0.0,0.0,0.0,0.0,0.0,0.0,0.0,0.0,0.0,0.0,0.0,0.0,0.0,0.0,0.0,0.0,0.0,0.0,0.0,0.0,0.0,0.0,0.0,0.0,0.0,0.0,0.0,0.0,0.0,0.0,0.0,0.0,0.0,0.0,0.0,0.0,0.0,0.0,0.0,0.0,0.0,0.0,0.0,0.0,0.0,0.0,0.0,0.0,0.0,0.0,0.0,0.0,0.0,0.0,0.0,0.0,0.0,0.0,0.0,0.0,0.0,0.0,0.0,0.0,0.0,0.0,0.0,0.0,0.0,0.0,0.0,0.0,0.0,0.0,0.0,0.0,0.0,0.0,0.0,0.0,0.0,0.0,0.0,0.0,0.0,0.0,0.0,0.0,0.0,0.0,0.0,0.0,0.0,0.0,0.0,0.0,0.0,2.4355,2.83,3.1237,3.0942,3.0458,3.0278,2.9876,2.6943,2.0673,1.9718,0.0,0.0,0.0,0.0,0.0,0.0,0.0,0.0,0.0,0.0,0.0,0.0,0.0,0.0,0.0,0.0,0.0,0.0,0.0,0.0,0.0,0.0,0.0,0.0,0.0,0.0,0.0,0.0,0.0,0.0,0.0,0.0,0.0,0.0,0.0,0.0,0.0,0.0,0.0,0.0,0.0,0.0,0.0,0.0,0.0,0.0,0.0,0.0,0.0,0.0,0.0,0.0,0.0,0.0,0.0,0.0,0.0,0.0,0.0,0.0,0.0,0.0,0.0,0.0,0.0,0.0,0.0,0.0,0.0,0.0,0.0,0.0,0.0,0.0,0.0,0.0,0.0,0.0,0.0,0.0,0.0,0.0,0.0,0.0,0.0,0.0,0.0,0.0,0.0,0.0,0.0,0.0,0.0,0.0,0.0,0.0,0.0,0.0,0.0,0.0,0.0,0.0,2.0104,2.4242,3.004,3.024,2.9927,2.9927,2.9613,2.6709,2.0407,1.9405,0.0,0.0,0.0,0.0,0.0,0.0,0.0,0.0,0.0,0.0,0.0,0.0,0.0,0.0,0.0,0.0,0.0,0.0,0.0,0.0,0.0,0.0,0.0,0.0,0.0,0.0,0.0,0.0,0.0,0.0,0.0,0.0,0.0,0.0,0.0,0.0,0.0,0.0,0.0,0.0,0.0,0.0,0.0,0.0,0.0,0.0,0.0,0.0,0.0,0.0,0.0,0.0,0.0,0.0,0.0,0.0,0.0,0.0,0.0,0.0,0.0,0.0,0.0,0.0,0.0,0.0,0.0,0.0,0.0,0.0,0.0,0.0,0.0,0.0,0.0,0.0,0.0,0.0,0.0,0.0,0.0,0.0,0.0,0.0,0.0,0.0,0.0,0.0,0.0,0.0,0.0,0.0,0.0,0.0,0.0,0.0,0.0,0.0,0.0,0.0,0.0,0.0,0.0,2.1233,2.7976,2.933,2.9653,2.9427,2.9028,2.6153,2.0083,0.0,0.0,0.0,0.0,0.0,0.0,0.0,0.0,0.0,0.0,0.0,0.0,0.0,0.0,0.0,0.0,0.0,0.0,0.0,0.0,0.0,0.0,0.0,0.0,0.0,0.0,0.0,0.0,0.0,0.0,0.0,0.0,0.0,0.0,0.0,0.0,0.0,0.0,0.0,0.0,0.0,0.0,0.0,0.0,0.0,0.0,0.0,0.0,0.0,0.0,0.0,0.0,0.0,0.0,0.0,0.0,0.0,0.0,0.0,0.0,0.0,0.0,0.0,0.0,0.0,0.0,0.0,0.0,0.0,0.0,0.0,0.0,0.0,0.0,0.0,0.0,0.0,0.0,0.0,0.0,0.0,0.0,0.0,0.0,0.0,0.0,0.0,0.0,0.0,0.0,0.0,0.0,0.0,0.0,0.0,0.0,0.0,0.0,0.0,0.0,0.0,0.0,0.0,0.0,2.0379,2.278,2.6557,2.8418,2.71,2.8068,2.5759,1.8645,0.0,0.0,0.0,0.0,0.0,0.0,0.0,0.0,0.0,0.0,0.0,0.0,0.0,0.0]}]]]